Date StartTime U_cm/s V_cm/s W_cm/s Ustd_cm/s Vstd_cm/s Wstd_cm/s Uvar_(cm/s)^2 Vvar_(cm/s)^2 Wvar_(cm/s)^2 KE_(m/s)^2 TurbulentKE_(m/s)^2 HorizWindSpeed_cm/s FrictionSpeec_cm/s DragCoef SpeedOfSound_m/s SonicTemperature_C Pressure_mb 
02/04/2014  00:00:00     -121.563       55.653      -14.068       45.930       30.457       23.062     2109.544      927.656      531.847        1.082        0.178      133.697       19.076        0.020      331.748       -0.037      857.801
02/04/2014  00:01:00      -98.483       53.409      -15.234       33.020       26.980       21.861     1090.332      727.903      477.889        0.754        0.115      112.033       14.330        0.016      331.657       -0.186      857.784
02/04/2014  00:02:00      -76.422       41.751      -19.419       27.332       27.106       16.691      747.044      734.749      278.579        0.486        0.088       87.083       18.120        0.043      331.723       -0.075      857.766
02/04/2014  00:03:00     -111.504       52.736       -9.187       60.761       37.511       26.729     3691.922     1407.104      714.422        1.056        0.291      123.346       25.749        0.044      331.761       -0.016      857.767
02/04/2014  00:04:00      -72.775       50.798       -4.115       40.814       33.045       21.259     1665.772     1092.002      451.937        0.555        0.160       88.751       17.442        0.039      331.717       -0.087      857.790
02/04/2014  00:05:00      -68.647       23.784      -12.519       40.156       58.538       24.978     1612.493     3426.743      623.905        0.555        0.283       72.651       22.077        0.092      331.777        0.012      857.789
02/04/2014  00:06:00      -64.289       -3.155       -7.508       33.684       48.969       26.791     1134.609     2397.974      717.772        0.422        0.213       64.366       17.950        0.078      331.721       -0.080      857.775
02/04/2014  00:07:00      -38.493       -1.876       -1.545       33.269       29.401       24.884     1106.798      864.423      619.201        0.204        0.130       38.538       20.531        0.284      331.687       -0.137      857.754
02/04/2014  00:08:00      -47.672       32.510       -3.789       32.869       52.189       25.605     1080.386     2723.646      655.638        0.390        0.223       57.702       27.377        0.225      331.666       -0.170      857.763
02/04/2014  00:09:00      -54.616       20.639       -1.674       32.121       26.185       22.969     1031.727      685.658      527.571        0.283        0.112       58.386       13.911        0.057      331.657       -0.185      857.779
02/04/2014  00:10:00      -67.188       38.817      -20.867       35.155       26.741       22.763     1235.897      715.081      518.168        0.446        0.123       77.595        4.730        0.004      331.706       -0.104      857.777
02/04/2014  00:11:00     -120.949       58.816      -21.378       52.953       49.991       37.142     2804.051     2499.101     1379.534        1.261        0.334      134.492       14.157        0.011      331.722       -0.081      857.761
02/04/2014  00:12:00      -86.299       96.287      -21.319       41.054       48.871       24.361     1685.423     2388.416      593.441        1.092        0.233      129.301       14.390        0.012      331.762       -0.013      857.741
02/04/2014  00:13:00      -94.618      129.907      -23.769       46.892       37.628       31.309     2198.862     1415.886      980.282        1.549        0.230      160.713       23.100        0.021      331.857        0.143      857.731
02/04/2014  00:14:00      -98.037      156.908      -24.990       44.439       44.020       27.709     1974.785     1937.772      767.788        1.977        0.234      185.017       22.212        0.014      331.788        0.027      857.738
02/04/2014  00:15:00      -82.444      139.914      -19.489       49.160       45.128       31.779     2416.722     2036.526     1009.935        1.611        0.273      162.397       27.018        0.028      331.790        0.032      857.743
02/04/2014  00:16:00      -95.352       96.786      -19.352       44.325       57.508       25.391     1964.699     3307.181      644.690        1.237        0.296      135.866       30.983        0.052      331.772        0.003      857.762
02/04/2014  00:17:00      -70.596       78.218      -21.312       32.754       52.801       18.446     1072.837     2787.991      340.239        0.788        0.210      105.365       17.965        0.029      331.780        0.015      857.775
02/04/2014  00:18:00     -123.476      101.820      -30.490       37.545       43.811       19.778     1409.595     1919.409      391.177        1.513        0.186      160.043        6.966        0.002      331.774        0.005      857.776
02/04/2014  00:19:00      -75.645       86.616      -12.932       37.451       48.451       23.565     1402.611     2347.485      555.301        0.885        0.215      114.998       17.847        0.024      331.844        0.120      857.770
02/04/2014  00:20:00      -98.886       73.392       -4.945       50.806       71.055       35.806     2581.254     5048.864     1282.035        1.205        0.446      123.146       36.536        0.088      331.743       -0.046      857.762
02/04/2014  00:21:00      -92.304       98.397      -14.615       43.319       43.819       23.638     1876.496     1920.117      558.749        1.138        0.218      134.915       19.297        0.020      331.720       -0.082      857.766
02/04/2014  00:22:00      -87.819       52.944       -9.412       31.589       40.833       22.829      997.845     1667.353      521.185        0.689        0.159      102.544       20.141        0.039      331.752       -0.029      857.775
02/04/2014  00:23:00      -97.629      120.005      -22.437       47.607       53.205       30.349     2266.387     2830.724      921.070        1.523        0.301      154.702       27.793        0.032      331.745       -0.042      857.785
02/04/2014  00:24:00      -90.238       86.357      -15.453       48.436       52.240       26.974     2346.094     2729.021      727.595        1.082        0.290      124.902       28.985        0.054      331.772        0.003      857.784
02/04/2014  00:25:00      -67.317       91.348      -12.133       52.700       38.443       25.223     2777.297     1477.842      636.209        0.896        0.245      113.473       21.319        0.035      331.900        0.213      857.799
02/04/2014  00:26:00     -109.159      107.675      -21.959       54.620       47.094       24.947     2983.356     2217.847      622.335        1.491        0.291      153.329       21.998        0.021      331.795        0.040      857.819
02/04/2014  00:27:00     -103.495       72.422      -21.994       39.393       64.729       23.842     1551.834     4189.799      568.459        1.137        0.316      126.317       21.024        0.028      331.803        0.053      857.833
02/04/2014  00:28:00     -125.529       49.058      -12.998       56.232       55.389       34.521     3162.084     3067.899     1191.701        1.288        0.371      134.775       13.359        0.010      331.770        0.000      857.826
02/04/2014  00:29:00     -137.154       74.942      -26.928       55.235       61.514       35.253     3050.959     3783.937     1242.803        1.661        0.404      156.293       35.349        0.051      331.748       -0.038      857.822
02/04/2014  00:30:00     -101.720      127.285      -27.007       52.083       61.968       33.939     2712.675     3840.033     1151.843        1.749        0.385      162.937       34.737        0.045      331.801        0.050      857.814
02/04/2014  00:31:00     -105.328      103.511      -16.830       57.938       70.354       35.068     3356.755     4949.748     1229.777        1.581        0.477      147.676       26.507        0.032      331.756       -0.023      857.821
02/04/2014  00:32:00     -109.399      138.302      -26.123       47.847       65.120       34.860     2289.290     4240.553     1215.223        1.976        0.387      176.340       38.760        0.048      331.735       -0.060      857.817
02/04/2014  00:33:00     -122.864      119.673      -25.536       76.217       75.494       33.764     5809.035     5699.336     1140.002        2.136        0.632      171.515       31.030        0.033      331.720       -0.084      857.808
02/04/2014  00:34:00     -124.423       64.440       -3.230       84.277       84.943       48.957     7102.566     7215.394     2396.756        1.818        0.836      140.120       47.386        0.114      331.765       -0.010      857.803
02/04/2014  00:35:00     -197.768       76.955      -26.334      100.444       60.301       41.572    10088.951     3636.253     1728.229        3.059        0.773      212.213       48.529        0.052      331.734       -0.060      857.805
02/04/2014  00:36:00     -125.225       13.633      -12.413       66.124       67.150       24.593     4372.406     4509.172      604.822        1.275        0.474      125.965       27.204        0.047      331.706       -0.106      857.806
02/04/2014  00:37:00      -96.531        9.560      -16.024       56.866       36.827       34.270     3233.795     1356.218     1174.431        0.771        0.288       97.004       30.714        0.100      331.737       -0.053      857.799
02/04/2014  00:38:00     -100.901        9.551       10.238       51.996       82.315       33.593     2703.564     6775.735     1128.514        1.049        0.530      101.352       38.159        0.142      331.759       -0.021      857.811
02/04/2014  00:39:00      -96.191       13.835      -10.727       81.253       37.654       34.152     6601.975     1417.828     1166.330        0.937        0.459       97.181       38.291        0.155      331.760       -0.018      857.835
02/04/2014  00:40:00     -105.945       65.833      -14.683       42.348       57.986       30.522     1793.319     3362.355      931.567        1.093        0.304      124.733       24.183        0.038      331.776        0.010      857.852
02/04/2014  00:41:00     -157.699      110.605      -37.708       75.485       74.571       43.954     5697.940     5560.819     1931.915        2.586        0.660      192.620       40.500        0.044      331.828        0.092      857.856
02/04/2014  00:42:00     -106.821      120.491      -18.056       62.309       80.427       45.690     3882.385     6468.470     2087.605        1.934        0.622      161.024       36.008        0.050      331.804        0.054      857.855
02/04/2014  00:43:00     -156.691       34.481       -8.206       72.995       79.259       43.138     5328.214     6282.002     1860.894        1.964        0.674      160.440       38.863        0.059      331.776        0.007      857.877
02/04/2014  00:44:00      -88.494       45.985      -10.104       63.311       60.890       27.866     4008.281     3707.600      776.530        0.927        0.425       99.728       31.736        0.101      331.772        0.002      857.897
02/04/2014  00:45:00     -134.335       16.282      -25.291       62.902       62.135       36.563     3956.619     3860.733     1336.880        1.405        0.458      135.318       27.321        0.041      331.752       -0.031      857.885
02/04/2014  00:46:00      -68.325       75.365       -4.262       58.423       78.419       41.207     3413.221     6149.527     1697.999        1.081        0.563      101.726       46.464        0.209      331.769       -0.002      857.867
02/04/2014  00:47:00      -68.742       57.747      -11.445       68.045       67.044       39.567     4630.174     4494.940     1565.534        0.944        0.535       89.779       42.408        0.223      331.753       -0.028      857.871
02/04/2014  00:48:00     -103.140       50.755      -13.889       58.605       74.739       38.725     3434.588     5585.934     1499.620        1.196        0.526      114.952       20.824        0.033      331.770       -0.001      857.890
02/04/2014  00:49:00     -120.656       64.015       -9.830      101.703       83.647       47.147    10343.440     6996.871     2222.833        1.915        0.978      136.587       58.663        0.184      331.782        0.018      857.898
02/04/2014  00:50:00     -112.559       44.789      -10.918       66.450       57.974       25.516     4415.549     3361.015      651.043        1.161        0.421      121.143       18.682        0.024      331.788        0.029      857.882
02/04/2014  00:51:00     -129.089      -47.773       -2.805       40.337       65.159       30.276     1627.101     4245.724      916.615        1.287        0.339      137.646       24.652        0.032      331.735       -0.058      857.875
02/04/2014  00:52:00      -44.201       -1.678       -1.786       50.206       41.463       36.137     2520.628     1719.192     1305.858        0.375        0.277       44.233       19.078        0.186      331.691       -0.129      857.893
02/04/2014  00:53:00     -118.635      -35.027      -17.600       37.049       38.738       22.245     1372.646     1500.600      494.820        0.949        0.168      123.698       14.451        0.014      331.699       -0.115      857.914
02/04/2014  00:54:00     -115.818      -32.644      -11.437       51.130       64.496       32.979     2614.319     4159.738     1087.599        1.123        0.393      120.331       21.253        0.031      331.683       -0.144      857.929
02/04/2014  00:55:00      -84.325       30.080       -4.169       37.509       46.808       20.517     1406.939     2190.999      420.951        0.603        0.201       89.529        6.207        0.005      331.697       -0.120      857.928
02/04/2014  00:56:00      -88.498      -14.998      -10.385       32.929       34.418       19.226     1084.336     1184.579      369.630        0.540        0.132       89.760       16.277        0.033      331.718       -0.086      857.919
02/04/2014  00:57:00      -87.721      -42.743       -6.219       44.875       28.243       26.844     2013.802      797.679      720.581        0.655        0.177       97.581       12.437        0.016      331.730       -0.066      857.925
02/04/2014  00:58:00     -150.584        4.726      -11.381       69.147       78.155       37.750     4781.369     6108.272     1425.079        1.757        0.616      150.658       36.457        0.059      331.718       -0.087      857.919
02/04/2014  00:59:00      -86.822       32.715       -0.116       42.084       44.037       26.425     1771.026     1939.257      698.261        0.651        0.220       92.781       24.271        0.068      331.694       -0.123      857.916
02/04/2014  01:00:00      -69.227      -21.517        0.147       57.473       42.390       25.962     3303.094     1796.895      674.002        0.551        0.289       72.494       30.062        0.172      331.737       -0.054      857.915
02/04/2014  01:01:00     -155.374        8.712      -20.614       58.382       47.755       27.019     3408.439     2280.587      730.053        1.553        0.321      155.618       25.650        0.027      331.767       -0.005      857.922
02/04/2014  01:02:00      -81.573      -37.897        1.717       66.011       45.424       30.005     4357.498     2063.373      900.287        0.771        0.366       89.946       33.481        0.139      331.732       -0.062      857.910
02/04/2014  01:03:00      -91.912      -12.776      -13.129       43.231       23.456       21.351     1868.882      550.168      455.853        0.583        0.144       92.796       16.873        0.033      331.726       -0.071      857.887
02/04/2014  01:04:00     -110.389       30.539       -6.764       41.587       39.606       23.107     1729.519     1568.628      533.916        0.850        0.192      114.536       15.926        0.019      331.727       -0.072      857.877
02/04/2014  01:05:00     -103.536       -1.389       -8.522       47.773       40.762       26.847     2282.219     1661.547      720.744        0.773        0.233      103.545       25.050        0.059      331.698       -0.119      857.884
02/04/2014  01:06:00     -161.081       15.065      -17.669       67.378       49.043       18.270     4539.749     2405.241      333.810        1.688        0.364      161.784       17.676        0.012      331.774        0.005      857.880
02/04/2014  01:07:00     -162.961       -3.102       -5.893       55.121       42.846       31.003     3038.312     1835.753      961.157        1.622        0.292      162.991       29.202        0.032      331.773        0.003      857.874
02/04/2014  01:08:00     -125.263      -39.648      -10.982       59.887       43.025       28.239     3586.411     1851.120      797.429        1.181        0.312      131.388       25.838        0.039      331.735       -0.058      857.875
02/04/2014  01:09:00     -156.307      -13.689      -19.792       57.434       40.382       32.124     3298.675     1630.678     1031.940        1.549        0.298      156.905       24.892        0.025      331.759       -0.020      857.883
02/04/2014  01:10:00     -155.334      -35.647       -6.432       59.453       49.723       29.360     3534.691     2472.422      861.997        1.615        0.343      159.371       27.900        0.031      331.795        0.040      857.883
02/04/2014  01:11:00      -77.428      -46.383        3.181       80.050       48.007       29.054     6407.946     2304.708      844.107        0.886        0.478       90.258       23.974        0.071      331.740       -0.049      857.874
02/04/2014  01:12:00     -169.829        5.813      -14.028       58.123       54.368       32.441     3378.266     2955.882     1052.404        1.823        0.369      169.928       28.358        0.028      331.780        0.015      857.870
02/04/2014  01:13:00     -123.608       -8.779       -9.632       37.462       28.109       25.570     1403.389      790.108      653.816        0.915        0.142      123.920       22.302        0.032      331.746       -0.039      857.866
02/04/2014  01:14:00      -73.975      -20.297       -9.887       42.685       45.874       20.858     1821.980     2104.454      435.037        0.517        0.218       76.709       21.964        0.082      331.697       -0.122      857.856
02/04/2014  01:15:00     -158.536       -7.746       -7.032       58.640       46.331       34.192     3438.604     2146.561     1169.108        1.600        0.338      158.725       33.235        0.044      331.738       -0.053      857.843
02/04/2014  01:16:00     -219.061      -53.316      -12.620       61.533       71.089       34.760     3786.297     5053.600     1208.259        3.052        0.502      225.456       28.615        0.016      331.711       -0.101      857.831
02/04/2014  01:17:00     -281.917      -33.296      -25.515       55.843       60.182       32.993     3118.467     3621.882     1088.515        4.453        0.391      283.877       23.817        0.007      331.767       -0.011      857.809
02/04/2014  01:18:00     -173.626      -45.480      -10.665      100.898       80.938       45.685    10180.449     6550.919     2087.090        2.557        0.941      179.484       50.548        0.079      331.744       -0.044      857.797
02/04/2014  01:19:00     -236.662      -68.993       -6.373       76.576       71.341       37.683     5863.926     5089.561     1419.995        3.659        0.619      246.514       31.865        0.017      331.716       -0.093      857.807
02/04/2014  01:20:00     -211.266      -46.067       -0.715       86.359       51.247       45.347     7457.905     2626.281     2056.386        2.945        0.607      216.230       43.103        0.040      331.691       -0.133      857.802
02/04/2014  01:21:00     -217.844      -59.449       -3.770       61.613       92.229       34.668     3796.197     8506.173     1201.885        3.225        0.675      225.811       34.029        0.023      331.693       -0.131      857.791
02/04/2014  01:22:00     -243.532      -91.288      -17.435       72.406       68.407       42.237     5242.612     4679.512     1783.971        3.982        0.585      260.080       32.801        0.016      331.717       -0.092      857.782
02/04/2014  01:23:00     -270.769      -18.329      -19.655       63.947       68.260       47.882     4089.191     4659.479     2292.731        4.254        0.552      271.389       39.827        0.022      331.701       -0.119      857.797
02/04/2014  01:24:00     -194.744      -51.958      -12.732      109.412       93.323       42.141    11970.946     8709.123     1775.855        3.162        1.123      201.556       52.785        0.069      331.696       -0.126      857.808
02/04/2014  01:25:00     -269.052      -44.270      -23.079       81.408       66.608       49.218     6627.328     4436.676     2422.454        4.418        0.674      272.670       48.522        0.032      331.724       -0.080      857.808
02/04/2014  01:26:00     -211.173      -42.143       -0.159       87.706       60.452       39.878     7692.373     3654.449     1590.234        2.965        0.647      215.337       45.820        0.045      331.698       -0.121      857.804
02/04/2014  01:27:00     -251.253      -62.781       -5.141      138.584       82.154       53.374    19205.640     6749.290     2848.837        4.794        1.440      258.978       56.726        0.048      331.730       -0.068      857.797
02/04/2014  01:28:00     -274.928      -12.295      -15.469      129.378       81.439       49.746    16738.596     6632.381     2474.708        5.091        1.292      275.202       55.828        0.041      331.720       -0.086      857.814
02/04/2014  01:29:00     -248.453      -69.855       -4.076      119.892       84.688       56.336    14374.073     7172.063     3173.709        4.567        1.236      258.086       57.432        0.050      331.712       -0.098      857.826
02/04/2014  01:30:00     -225.944      -83.095      -12.386      105.520       82.859       46.480    11134.493     6865.595     2160.400        3.913        1.008      240.739       45.619        0.036      331.741       -0.050      857.818
02/04/2014  01:31:00     -190.929      -34.326        5.167       81.958       84.333       41.491     6717.091     7112.080     1721.494        2.660        0.778      193.990       43.140        0.049      331.698       -0.122      857.816
02/04/2014  01:32:00     -206.164      -45.362        5.209       86.595       97.578       45.265     7498.636     9521.484     2048.915        3.183        0.953      211.095       49.727        0.055      331.709       -0.102      857.829
02/04/2014  01:33:00     -267.732       10.827      -20.056      108.878       87.151       42.693    11854.496     7595.316     1822.723        4.673        1.064      267.951       46.333        0.030      331.717       -0.090      857.862
02/04/2014  01:34:00     -320.870      -21.507      -21.294      110.666       98.393       51.805    12247.038     9681.184     2683.758        6.424        1.231      321.590       54.149        0.028      331.704       -0.113      857.880
02/04/2014  01:35:00     -136.343      -53.533       17.959      109.573      110.011       43.769    12006.193    12102.319     1915.682        2.390        1.301      146.476       56.188        0.147      331.686       -0.140      857.893
02/04/2014  01:36:00     -132.596      -70.773      -13.981       99.185       82.928       42.200     9837.653     6877.107     1780.874        2.064        0.925      150.301       39.638        0.070      331.700       -0.117      857.917
02/04/2014  01:37:00     -190.310      -32.123       -1.470       86.572       62.314       44.648     7494.746     3883.032     1993.410        2.531        0.669      193.002       48.082        0.062      331.658       -0.187      857.916
02/04/2014  01:38:00     -226.601      -29.530      -22.514       88.543       54.537       38.123     7839.941     2974.259     1453.379        3.250        0.613      228.517       37.369        0.027      331.670       -0.167      857.912
02/04/2014  01:39:00     -269.806      -45.350      -18.524       74.507       79.367       42.810     5551.355     6299.161     1832.688        4.444        0.684      273.591       34.562        0.016      331.719       -0.089      857.899
02/04/2014  01:40:00     -261.334      -56.634      -14.830      116.253       73.765       50.710    13514.680     5441.248     2571.541        4.662        1.076      267.401       55.729        0.043      331.698       -0.122      857.904
02/04/2014  01:41:00     -234.176      -28.571       -1.417       85.434       77.984       42.020     7298.988     6081.512     1765.666        3.540        0.757      235.913       40.142        0.029      331.697       -0.122      857.898
02/04/2014  01:42:00     -217.762      -60.038       -0.690      113.480       86.461       47.377    12877.676     7475.461     2244.593        3.681        1.130      225.887       55.699        0.061      331.662       -0.181      857.894
02/04/2014  01:43:00     -233.786      -51.568      -12.836      103.683       98.020       45.662    10750.266     9607.851     2084.984        3.996        1.122      239.405       48.123        0.040      331.685       -0.143      857.917
02/04/2014  01:44:00     -227.237      -51.421      -13.690      121.239       82.007       47.279    14698.996     6725.082     2235.266        3.906        1.183      232.983       51.687        0.049      331.682       -0.148      857.922
02/04/2014  01:45:00     -194.133      -67.110        0.637      100.162       99.815       49.622    10032.472     9962.990     2462.368        3.232        1.123      205.405       50.780        0.061      331.666       -0.174      857.922
02/04/2014  01:46:00     -181.809      -25.888       -3.120      105.898       91.794       53.210    11214.388     8426.112     2831.334        2.810        1.124      183.643       57.483        0.098      331.680       -0.151      857.930
02/04/2014  01:47:00     -286.466      -43.670      -17.288       82.264       84.899       40.612     6767.347     7207.808     1649.370        4.994        0.781      289.776       32.521        0.013      331.726       -0.077      857.925
02/04/2014  01:48:00     -211.795      -79.644       -3.062      114.502       74.132       45.085    13110.601     5495.508     2032.700        3.592        1.032      226.275       49.081        0.047      331.709       -0.104      857.898
02/04/2014  01:49:00     -195.933      -35.955      -19.239       61.747       84.267       42.658     3812.680     7100.849     1819.685        2.639        0.637      199.205       41.470        0.043      331.729       -0.069      857.895
02/04/2014  01:50:00     -251.693      -61.144      -12.361       78.292       76.272       43.040     6129.563     5817.404     1852.414        4.052        0.690      259.013       38.651        0.022      331.708       -0.106      857.928
02/04/2014  01:51:00     -211.737       -0.257      -17.457       65.618       56.128       32.993     4305.776     3150.347     1088.509        2.684        0.427      211.737       30.559        0.021      331.703       -0.112      857.951
02/04/2014  01:52:00     -164.044      -59.590      -17.437       78.678       56.598       36.295     6190.296     3203.332     1317.324        2.074        0.536      174.532       34.784        0.040      331.710       -0.100      857.958
02/04/2014  01:53:00     -228.634       16.140      -20.327       88.323       63.068       39.639     7800.871     3977.635     1571.232        3.315        0.667      229.203       39.383        0.030      331.754       -0.028      857.955
02/04/2014  01:54:00     -262.137       -2.511      -25.219      107.943       65.066       36.663    11651.618     4233.636     1344.179        4.329        0.861      262.149       44.184        0.028      331.791        0.030      857.953
02/04/2014  01:55:00     -210.743       -3.681       -8.487       77.902       73.425       40.600     6068.767     5391.270     1648.349        2.880        0.655      210.776       31.947        0.023      331.720       -0.085      857.977
02/04/2014  01:56:00     -244.833      -20.771      -15.049       75.346       74.173       33.143     5676.988     5501.642     1098.428        3.644        0.614      245.713       29.056        0.014      331.755       -0.028      857.997
02/04/2014  01:57:00     -300.334       32.323      -33.012       67.494       47.209       42.734     4555.429     2228.690     1826.215        5.047        0.431      302.068       37.930        0.016      331.781        0.014      857.996
02/04/2014  01:58:00     -270.084        9.621      -23.809       85.267       60.350       38.671     7270.510     3642.095     1495.475        4.300        0.620      270.255       36.526        0.018      331.787        0.023      857.981
02/04/2014  01:59:00     -225.098      -47.816      -20.176       89.253       67.326       43.623     7966.076     4532.730     1902.965        3.388        0.720      230.121       36.164        0.025      331.798        0.044      857.980
02/04/2014  02:00:00     -153.123      -12.555       -1.151       80.398       69.621       43.875     6463.777     4847.135     1925.008        1.842        0.662      153.637       41.972        0.075      331.784        0.022      857.982
02/04/2014  02:01:00      -77.001      -38.485       -0.149       55.097       45.364       25.059     3035.700     2057.887      627.965        0.656        0.286       86.082       21.452        0.062      331.780        0.016      857.983
02/04/2014  02:02:00     -104.822       11.638       -7.553       61.082       78.423       34.803     3730.970     6150.239     1211.240        1.113        0.555      105.466       26.445        0.063      331.768       -0.003      857.997
02/04/2014  02:03:00      -81.636      101.916       -5.782       76.061       58.028       49.292     5785.303     3367.223     2429.738        1.433        0.579      130.581       37.213        0.081      331.844        0.119      858.009
02/04/2014  02:04:00      -48.328       74.897       -2.868       48.374       60.398       29.090     2339.997     3647.934      846.251        0.739        0.342       89.135       29.916        0.113      331.819        0.082      858.019
02/04/2014  02:05:00      -62.265       11.829       -0.081       43.532       45.070       18.136     1894.997     2031.317      328.926        0.414        0.213       63.379       14.878        0.055      331.833        0.103      858.054
02/04/2014  02:06:00      -47.418       51.258       -6.928       64.760       38.238       25.070     4193.847     1462.120      628.506        0.560        0.314       69.827       11.742        0.028      331.729       -0.068      858.063
02/04/2014  02:07:00      -19.524       30.031       -2.267       26.590       37.755       25.165      707.010     1425.425      633.300        0.203        0.138       35.820       10.090        0.079      331.698       -0.118      858.068
02/04/2014  02:08:00      -57.919       44.751       -2.881       31.863       22.767       20.477     1015.240      518.353      419.297        0.366        0.098       73.194       14.031        0.037      331.645       -0.206      858.063
02/04/2014  02:09:00      -49.933       20.499       -7.663       31.567       27.024       16.711      996.504      730.321      279.273        0.249        0.100       53.977       11.747        0.047      331.673       -0.158      858.073
02/04/2014  02:10:00      -23.356       14.278       -1.800       41.933       35.281       30.066     1758.349     1244.758      903.977        0.233        0.195       27.374       23.759        0.753      331.681       -0.145      858.084
02/04/2014  02:11:00      -54.300        4.236       -2.629       41.360       48.235       24.265     1710.636     2326.578      588.769        0.380        0.231       54.465       22.435        0.170      331.671       -0.163      858.102
02/04/2014  02:12:00      -51.598        1.466       -6.688       27.203       45.362       20.320      739.986     2057.677      412.906        0.296        0.161       51.619       21.918        0.180      331.651       -0.195      858.113
02/04/2014  02:13:00      -59.193       14.304       -1.471       30.337       41.357       19.305      920.352     1710.427      372.702        0.336        0.150       60.897       15.382        0.064      331.613       -0.257      858.117
02/04/2014  02:14:00      -73.720       -0.573      -10.744       58.177       56.340       32.610     3384.550     3174.231     1063.420        0.659        0.381       73.722       34.489        0.219      331.592       -0.294      858.126
02/04/2014  02:15:00     -147.239       26.844      -12.666       58.404       47.913       25.711     3411.022     2295.625      661.042        1.446        0.318      149.666       24.551        0.027      331.633       -0.227      858.147
02/04/2014  02:16:00      -59.482      -16.948       -0.249       43.057       27.248       33.518     1853.896      742.444     1123.455        0.377        0.186       61.849        9.810        0.025      331.620       -0.248      858.165
02/04/2014  02:17:00      -70.210       78.807       -7.109       42.283       80.133       36.625     1787.815     6421.364     1341.399        1.037        0.478      105.546       48.863        0.214      331.693       -0.128      858.188
02/04/2014  02:18:00      -55.057      155.881      -10.502       48.174       76.901       33.400     2320.730     5913.747     1115.536        1.839        0.468      165.319       32.116        0.038      331.778        0.012      858.200
02/04/2014  02:19:00      -57.510      110.831       -2.357       63.003       68.890       36.429     3969.429     4745.898     1327.065        1.282        0.502      124.864       38.856        0.097      331.839        0.114      858.239
02/04/2014  02:20:00      -47.282      166.364      -14.687       50.366       68.055       36.209     2536.778     4631.523     1311.127        1.930        0.424      172.952       41.813        0.058      331.782        0.016      858.253
02/04/2014  02:21:00      -41.115      205.978      -26.613       55.174       69.830       32.961     3044.187     4876.197     1086.433        2.691        0.450      210.042       32.582        0.024      331.735       -0.063      858.269
02/04/2014  02:22:00      -57.405      103.001      -16.332       54.477       54.890       29.699     2967.728     3012.861      882.043        1.052        0.343      117.917       29.311        0.062      331.717       -0.088      858.287
02/04/2014  02:23:00      -81.655       66.657       -8.012       51.523       54.203       32.417     2654.613     2937.925     1050.853        0.891        0.332      105.407       15.418        0.021      331.776        0.010      858.309
02/04/2014  02:24:00      -47.776      107.736       -3.182       68.300       76.809       38.166     4664.935     5899.550     1456.680        1.296        0.601      117.854       36.064        0.094      331.817        0.076      858.314
02/04/2014  02:25:00      -87.693      104.906      -23.628       47.943       46.581       21.305     2298.506     2169.776      453.905        1.209        0.246      136.731       23.285        0.029      331.793        0.038      858.321
02/04/2014  02:26:00      -85.564      105.747      -28.691       48.551       45.753       25.846     2357.228     2093.294      667.992        1.222        0.256      136.028       27.771        0.042      331.762       -0.012      858.323
02/04/2014  02:27:00      -55.771      109.064      -18.748       30.623       51.226       21.995      937.753     2624.056      483.797        0.970        0.202      122.496       20.807        0.029      331.716       -0.088      858.332
02/04/2014  02:28:00      -86.196       50.773      -10.386       37.609       34.977       22.444     1414.401     1223.409      503.744        0.663        0.157      100.038       20.608        0.042      331.686       -0.139      858.345
02/04/2014  02:29:00      -76.680       75.923      -18.309       31.599       29.815       19.583      998.489      888.940      383.476        0.712        0.114      107.908        9.491        0.008      331.627       -0.236      858.359
02/04/2014  02:30:00      -63.906       68.343      -15.500       40.566       43.317       29.167     1645.569     1876.357      850.736        0.668        0.219       93.567       20.426        0.048      331.625       -0.238      858.363
02/04/2014  02:31:00      -74.052       -1.806       -9.514       42.967       52.012       25.596     1846.180     2705.199      655.149        0.539        0.260       74.074       17.815        0.058      331.665       -0.172      858.364
02/04/2014  02:32:00     -162.566       95.678      -18.718      107.669       71.749       47.574    11592.633     5147.913     2263.270        2.746        0.950      188.632       41.490        0.048      331.791        0.034      858.377
02/04/2014  02:33:00     -127.404       91.928       -3.996      102.127       52.972       47.029    10429.963     2806.054     2211.686        2.007        0.772      157.106       52.047        0.110      331.719       -0.085      858.392
02/04/2014  02:34:00     -114.730       61.907      -17.470       57.229       50.333       26.660     3275.199     2533.411      710.781        1.191        0.326      130.367       20.667        0.025      331.696       -0.122      858.398
02/04/2014  02:35:00     -136.935       30.423      -13.545       99.658       62.665       35.136     9931.815     3926.915     1234.508        1.747        0.755      140.274       31.106        0.049      331.718       -0.086      858.413
02/04/2014  02:36:00      -82.204       25.202       -5.360       69.248       56.118       44.506     4795.225     3149.218     1980.774        0.867        0.496       85.980       31.686        0.136      331.751       -0.033      858.432
02/04/2014  02:37:00     -204.235       50.835      -10.410      115.128       61.971       51.351    13254.415     3840.408     2636.976        3.206        0.987      210.466       58.442        0.077      331.785        0.023      858.427
02/04/2014  02:38:00     -120.354       50.626      -17.151       36.595       43.158       28.349     1339.161     1862.631      803.669        1.067        0.200      130.568       15.360        0.014      331.818        0.077      858.420
02/04/2014  02:39:00      -89.480       98.242      -17.891       71.105       77.716       39.328     5055.893     6039.833     1546.709        1.531        0.632      132.884       30.364        0.052      331.895        0.204      858.418
02/04/2014  02:40:00     -122.476        8.068      -16.855       69.076       96.872       60.630     4771.449     9384.227     3676.034        1.659        0.892      122.741       49.090        0.160      331.892        0.198      858.430
02/04/2014  02:41:00     -194.228       98.405      -39.953       74.074       90.643       42.446     5486.995     8216.209     1801.625        3.225        0.775      217.735       31.504        0.021      331.902        0.215      858.434
02/04/2014  02:42:00     -177.251       90.618      -18.672      102.543       90.888       53.546    10515.043     8260.624     2867.170        3.081        1.082      199.071       54.650        0.075      331.940        0.277      858.433
02/04/2014  02:43:00     -109.436       43.390       -5.181       62.452       62.452       30.678     3900.223     3900.268      941.145        1.131        0.437      117.724       12.196        0.011      331.904        0.219      858.441
02/04/2014  02:44:00     -141.231       -2.014      -26.796       87.600       96.962       34.084     7673.747     9401.677     1161.751        1.945        0.912      141.245       38.475        0.074      331.923        0.250      858.429
02/04/2014  02:45:00     -227.164      103.579      -46.255      154.945      104.451       59.436    24008.095    10910.101     3532.680        5.145        1.923      249.664       69.092        0.077      331.982        0.347      858.424
02/04/2014  02:46:00     -199.740       89.999      -43.956       79.815       99.685       52.958     6370.395     9937.058     2804.590        3.452        0.956      219.080       13.166        0.004      331.921        0.244      858.415
02/04/2014  02:47:00     -131.554       71.660      -31.889       62.549       53.882       43.455     3912.373     2903.267     1888.371        1.608        0.435      149.805       21.399        0.020      331.861        0.148      858.421
02/04/2014  02:48:00      -91.570        8.439      -16.535       70.114       66.290       54.402     4916.030     4394.402     2959.538        1.050        0.613       91.958       39.600        0.185      331.856        0.140      858.411
02/04/2014  02:49:00     -149.827      -48.549      -27.016       62.392       52.776       40.105     3892.711     2785.258     1608.377        1.691        0.414      157.497       22.224        0.020      331.870        0.162      858.386
02/04/2014  02:50:00     -166.284      -37.840      -13.948       88.957       58.772       37.949     7913.412     3454.131     1440.116        2.104        0.640      170.535       23.846        0.020      331.846        0.124      858.392
02/04/2014  02:51:00     -110.946       51.567      -23.636       53.455       72.860       38.167     2857.421     5308.556     1456.724        1.257        0.481      122.344       35.577        0.085      331.863        0.151      858.396
02/04/2014  02:52:00     -192.563     -116.186      -26.271       89.232       81.842       57.930     7962.323     6698.108     3355.923        3.464        0.901      224.899       41.975        0.035      331.859        0.143      858.429
02/04/2014  02:53:00     -244.461      -49.766      -16.659      115.887       81.489       47.276    13429.752     6640.450     2235.010        4.241        1.115      249.475       39.254        0.025      331.814        0.069      858.441
02/04/2014  02:54:00     -200.750       67.225      -23.210      116.576       78.833       55.164    13589.918     6214.593     3043.109        3.410        1.142      211.707       65.710        0.096      331.824        0.086      858.460
02/04/2014  02:55:00     -120.619       49.526      -29.245       85.374       85.598       61.799     7288.715     7327.030     3819.168        1.814        0.922      130.391       50.654        0.151      331.850        0.131      858.457
02/04/2014  02:56:00     -113.832       -8.975        1.179       93.427       82.171       44.198     8728.617     6752.108     1953.443        1.523        0.872      114.186       47.306        0.172      331.803        0.051      858.460
02/04/2014  02:57:00     -269.358      -98.118      -17.936      106.502       83.834       43.586    11342.662     7028.219     1899.730        5.138        1.014      286.672       29.592        0.011      331.806        0.055      858.440
02/04/2014  02:58:00     -208.578      -65.966      -16.916      185.157       78.159       48.334    34283.182     6108.761     2336.172        4.543        2.136      218.761       48.832        0.050      331.813        0.068      858.438
02/04/2014  02:59:00     -199.586      -49.295       -2.898      122.589       67.258       53.057    15028.063     4523.653     2815.022        3.232        1.118      205.583       54.560        0.070      331.794        0.036      858.447
02/04/2014  03:00:00     -136.788       11.255      -32.229       94.941       81.236       58.927     9013.859     6599.295     3472.407        1.948        0.954      137.250       30.995        0.051      331.803        0.052      858.459
02/04/2014  03:01:00      -76.639       18.562       -5.143       51.947       53.692       35.340     2698.500     2882.868     1248.927        0.654        0.342       78.855       33.140        0.177      331.776        0.010      858.470
02/04/2014  03:02:00      -90.316        3.667       -9.947       71.882       70.158       46.193     5167.035     4922.115     2133.831        1.024        0.611       90.391       46.827        0.268      331.826        0.092      858.461
02/04/2014  03:03:00      -92.036       19.673       -2.715       80.355       79.004       34.877     6456.916     6241.624     1216.376        1.139        0.696       94.115       20.302        0.047      331.803        0.053      858.466
02/04/2014  03:04:00     -115.615       26.139      -19.890       53.974       69.601       37.585     2913.149     4844.341     1412.598        1.181        0.459      118.533       31.963        0.073      331.740       -0.050      858.474
02/04/2014  03:05:00     -119.627       98.791      -31.135       45.674       70.015       37.228     2086.099     4902.128     1385.893        1.671        0.419      155.146       29.771        0.037      331.653       -0.193      858.486
02/04/2014  03:06:00     -151.059       59.501      -27.349       55.463       56.951       38.203     3076.176     3243.438     1459.480        1.744        0.389      162.355       30.755        0.036      331.617       -0.254      858.489
02/04/2014  03:07:00     -144.218       16.965      -24.230       39.345       54.312       36.255     1548.030     2949.748     1314.428        1.374        0.291      145.212       23.799        0.027      331.609       -0.265      858.485
02/04/2014  03:08:00     -150.698      -36.973      -21.483       70.558       98.364       33.961     4978.433     9675.457     1153.367        2.017        0.790      155.167       23.205        0.022      331.620       -0.250      858.474
02/04/2014  03:09:00     -104.308      -29.909      -10.878       77.331       59.390       46.753     5980.114     3527.199     2185.857        1.179        0.585      108.512       35.056        0.104      331.621       -0.246      858.463
02/04/2014  03:10:00     -192.881      -37.762      -19.463      150.948       56.060       49.927    22785.318     3142.700     2492.690        3.371        1.421      196.542       49.074        0.062      331.709       -0.102      858.458
02/04/2014  03:11:00     -259.669      -17.139      -28.291      105.066       66.455       46.809    11038.798     4416.230     2191.038        4.308        0.882      260.234       52.968        0.041      331.765       -0.012      858.460
02/04/2014  03:12:00     -175.024      -32.952      -19.432       73.351       57.087       47.728     5380.369     3258.932     2277.982        2.151        0.546      178.099       39.125        0.048      331.780        0.014      858.469
02/04/2014  03:13:00     -189.786      -95.784       -9.172       84.244       74.589       45.297     7097.117     5563.523     2051.784        2.999        0.736      212.588       33.152        0.024      331.773        0.001      858.488
02/04/2014  03:14:00     -133.036      -20.921       -3.118       70.706       71.102       46.719     4999.329     5055.527     2182.704        1.519        0.612      134.671       42.430        0.099      331.734       -0.060      858.506
02/04/2014  03:15:00     -120.982      -22.692      -20.527       60.333       59.207       36.013     3640.096     3505.485     1296.913        1.201        0.422      123.092       31.796        0.067      331.675       -0.157      858.523
02/04/2014  03:16:00     -211.425      -63.978      -19.312      101.639       64.610       52.927    10330.452     4174.490     2801.249        3.323        0.865      220.893       43.320        0.038      331.681       -0.149      858.539
02/04/2014  03:17:00     -266.423      -72.735      -33.859       92.728      106.641       48.972     8598.478    11372.212     2398.239        4.989        1.118      276.174       47.020        0.029      331.704       -0.114      858.549
02/04/2014  03:18:00     -261.178      -43.412      -34.161       57.661       55.762       31.558     3324.743     3109.357      995.910        3.935        0.372      264.761       27.463        0.011      331.723       -0.082      858.556
02/04/2014  03:19:00     -145.542        8.640      -27.849       72.812       69.637       34.912     5301.644     4849.342     1218.880        1.670        0.568      145.799       15.633        0.011      331.726       -0.074      858.562
02/04/2014  03:20:00     -118.103       59.722      -18.368       67.420       88.215       40.814     4545.464     7781.941     1665.813        1.592        0.700      132.344       47.123        0.127      331.685       -0.140      858.593
02/04/2014  03:21:00     -151.371      120.602      -33.297       51.724       50.012       30.470     2675.361     2501.156      928.422        2.233        0.305      193.540       30.160        0.024      331.513       -0.425      858.635
02/04/2014  03:22:00     -108.825      129.453      -18.641       48.261       79.027       39.696     2329.079     6245.312     1575.775        1.955        0.508      169.118       36.318        0.046      331.396       -0.617      858.667
02/04/2014  03:23:00     -126.807      144.401      -28.460       56.359       84.760       40.505     3176.312     7184.275     1640.648        2.487        0.600      192.176       46.491        0.059      331.319       -0.744      858.696
02/04/2014  03:24:00     -229.589      152.207      -48.257       75.720       70.163       49.640     5733.501     4922.847     2464.142        4.566        0.656      275.460       42.325        0.024      331.375       -0.654      858.711
02/04/2014  03:25:00     -172.286      198.924      -29.400       92.777       96.407       61.998     8607.512     9294.371     3843.802        4.593        1.087      263.161       54.066        0.042      331.391       -0.625      858.690
02/04/2014  03:26:00     -152.658      181.296      -22.669       76.083      106.729       59.009     5788.590    11391.071     3482.085        3.867        1.033      237.008       56.604        0.057      331.418       -0.583      858.675
02/04/2014  03:27:00     -196.840      200.020      -32.626       92.923      104.758       52.056     8634.655    10974.296     2709.823        5.106        1.116      280.632       45.276        0.026      331.389       -0.629      858.677
02/04/2014  03:28:00     -138.682       57.005      -24.488       65.246       58.378       36.215     4257.087     3407.978     1311.506        1.603        0.449      149.941       32.630        0.047      331.373       -0.653      858.712
02/04/2014  03:29:00     -202.059       41.890      -15.487       71.592       57.660       34.176     5125.442     3324.646     1167.998        2.622        0.481      206.356       29.120        0.020      331.329       -0.729      858.740
02/04/2014  03:30:00     -122.641       48.264      -15.573       83.538       51.072       38.642     6978.656     2608.327     1493.179        1.434        0.554      131.796       44.977        0.116      331.266       -0.830      858.758
02/04/2014  03:31:00     -159.929      -24.094      -22.653       53.894       60.008       26.530     2904.601     3600.914      703.837        1.694        0.360      161.734       15.901        0.010      331.235       -0.880      858.768
02/04/2014  03:32:00      -50.858       96.733       -1.824       63.022       91.688       39.429     3971.720     8406.760     1554.636        1.294        0.697      109.288       55.886        0.261      331.174       -0.981      858.779
02/04/2014  03:33:00      -86.773      104.627      -25.548       36.686       48.837       33.691     1345.840     2385.075     1135.075        1.200        0.243      135.928       21.006        0.024      331.181       -0.970      858.794
02/04/2014  03:34:00     -145.061       72.940      -21.861       53.574       55.516       34.344     2870.186     3081.982     1179.539        1.699        0.357      162.366        7.423        0.002      331.134       -1.049      858.799
02/04/2014  03:35:00     -163.625      207.888      -36.875       77.891       91.505       39.128     6067.000     8373.189     1531.010        4.366        0.799      264.557       34.354        0.017      331.196       -0.948      858.804
02/04/2014  03:36:00     -144.606      185.763      -31.773       76.587       97.409       49.872     5865.533     9488.440     2487.214        3.713        0.892      235.412       53.063        0.051      331.241       -0.873      858.794
02/04/2014  03:37:00     -164.417       90.473      -19.296       73.051       72.157       42.705     5336.488     5206.633     1823.675        2.398        0.618      187.666       34.907        0.035      331.196       -0.946      858.777
02/04/2014  03:38:00     -149.962      146.184      -19.753       57.339       85.362       40.008     3287.794     7286.734     1600.671        2.821        0.609      209.424       26.122        0.016      331.174       -0.985      858.757
02/04/2014  03:39:00     -198.696      -60.133      -20.834       98.592       69.627       38.118     9720.335     4847.912     1453.015        2.977        0.801      207.596       27.537        0.018      331.131       -1.054      858.752
02/04/2014  03:40:00     -145.859        0.272      -17.162       55.978       49.945       34.220     3133.585     2494.537     1170.975        1.418        0.340      145.859       22.225        0.023      331.113       -1.084      858.733
02/04/2014  03:41:00     -185.085       59.099      -22.966       54.981       49.942       36.733     3022.905     2494.241     1349.337        2.257        0.343      194.291       23.394        0.014      331.098       -1.109      858.720
02/04/2014  03:42:00     -183.867       42.853      -28.083       85.915       89.441       34.870     7381.328     7999.773     1215.934        2.651        0.830      188.795       32.628        0.030      331.080       -1.137      858.724
02/04/2014  03:43:00     -144.186       56.837      -24.724       55.116       70.842       36.968     3037.782     5018.612     1366.598        1.703        0.471      154.984       32.678        0.044      331.041       -1.202      858.724
02/04/2014  03:44:00     -132.259       50.501       -7.829       56.221       51.991       30.026     3160.805     2703.113      901.536        1.343        0.338      141.573       25.500        0.032      331.035       -1.210      858.709
02/04/2014  03:45:00     -113.209       53.443      -21.699       43.386       75.488       30.369     1882.331     5698.472      922.259        1.232        0.425      125.190       27.222        0.047      331.036       -1.208      858.690
02/04/2014  03:46:00     -116.817       67.999      -21.973       58.789       57.943       36.439     3456.197     3357.399     1327.809        1.345        0.407      135.167       38.309        0.080      331.007       -1.257      858.692
02/04/2014  03:47:00     -145.218       30.975      -12.945       61.601       45.857       31.377     3794.669     2102.836      984.529        1.455        0.344      148.485       23.509        0.025      330.992       -1.280      858.681
02/04/2014  03:48:00     -153.999      -43.989       -2.672       79.086       82.818       34.085     6254.674     6858.765     1161.769        1.996        0.714      160.158       29.485        0.034      330.948       -1.353      858.673
02/04/2014  03:49:00     -204.723      -72.492      -18.248       57.920       54.984       35.251     3354.782     3023.192     1242.665        2.756        0.381      217.179       25.528        0.014      330.953       -1.346      858.698
02/04/2014  03:50:00     -184.713      -50.616      -10.519       74.379       57.074       49.037     5532.223     3257.491     2404.640        2.399        0.560      191.522       35.615        0.035      330.886       -1.456      858.723
02/04/2014  03:51:00     -152.727       70.390      -25.540       79.290       80.083       42.552     6286.853     6413.283     1810.645        2.172        0.726      168.167       46.559        0.077      330.931       -1.381      858.728
02/04/2014  03:52:00     -158.133       77.585      -27.491       64.667       46.330       31.677     4181.878     2146.455     1003.407        1.956        0.367      176.140       32.805        0.035      330.936       -1.374      858.724
02/04/2014  03:53:00     -109.491       77.593      -12.075       56.661       52.050       33.900     3210.415     2709.167     1149.239        1.261        0.353      134.197       29.580        0.049      330.916       -1.404      858.739
02/04/2014  03:54:00     -147.942       64.102      -24.515       68.752       55.226       38.863     4726.840     3049.956     1510.363        1.794        0.464      161.232       38.661        0.057      330.924       -1.393      858.744
02/04/2014  03:55:00     -142.797       14.264      -19.191       42.618       53.835       28.741     1816.312     2898.204      826.047        1.325        0.277      143.508       18.957        0.017      330.878       -1.465      858.740
02/04/2014  03:56:00     -130.068       29.792      -15.940       70.283       53.905       41.263     4939.667     2905.774     1702.599        1.380        0.477      133.436       36.977        0.077      330.922       -1.395      858.739
02/04/2014  03:57:00     -177.314      105.584      -36.563       64.960       81.875       45.813     4219.768     6703.513     2098.828        2.847        0.651      206.369       41.742        0.041      330.970       -1.319      858.719
02/04/2014  03:58:00     -153.027      171.719      -29.260      107.867       84.417       59.043    11635.221     7126.159     3486.021        3.800        1.112      230.010       56.240        0.060      330.987       -1.291      858.684
02/04/2014  03:59:00     -186.457      170.248      -28.398       72.369       76.326       46.446     5237.276     5825.631     2157.249        3.889        0.661      252.489       37.838        0.022      331.063       -1.168      858.669
02/04/2014  04:00:00     -183.014      168.180      -29.848       76.570      104.320       49.305     5863.031    10882.707     2430.955        4.092        0.959      248.553       36.121        0.021      331.042       -1.200      858.682
02/04/2014  04:01:00     -167.725       25.405      -25.691       63.903       55.562       32.942     4083.635     3087.116     1085.145        1.885        0.413      169.638       31.904        0.035      331.022       -1.234      858.703
02/04/2014  04:02:00     -118.692       22.137      -15.787       47.547       49.953       24.336     2260.743     2495.278      592.245        1.009        0.267      120.739       18.198        0.023      331.028       -1.223      858.697
02/04/2014  04:03:00     -141.398        9.628       -7.280       67.181       51.590       38.185     4513.353     2661.571     1458.076        1.438        0.432      141.726       31.975        0.051      331.019       -1.237      858.686
02/04/2014  04:04:00     -175.700       67.163      -29.503       52.498       54.482       37.151     2756.007     2968.267     1380.180        2.168        0.355      188.099       27.742        0.022      330.972       -1.314      858.662
02/04/2014  04:05:00     -195.302       57.650      -32.543       75.957       78.905       42.030     5769.461     6226.035     1766.512        2.814        0.688      203.633       37.878        0.035      330.942       -1.364      858.671
02/04/2014  04:06:00     -142.747      -22.466      -23.488       60.678       79.508       47.280     3681.810     6321.555     2235.393        1.683        0.612      144.504       30.214        0.044      330.925       -1.391      858.681
02/04/2014  04:07:00     -195.870      -65.494      -17.430       63.439       45.488       36.997     4024.511     2069.183     1368.805        2.521        0.373      206.530       28.002        0.018      330.867       -1.486      858.695
02/04/2014  04:08:00     -181.327      -47.266       -6.626       69.737       58.129       35.584     4863.218     3378.954     1266.225        2.233        0.475      187.386       30.103        0.026      330.826       -1.554      858.715
02/04/2014  04:09:00     -114.983      -29.987      -16.042       41.668       52.179       27.746     1736.228     2722.656      769.851        0.980        0.261      118.829       22.220        0.035      330.816       -1.568      858.735
02/04/2014  04:10:00     -170.322       52.482      -24.599       64.980       53.061       32.158     4222.363     2815.456     1034.126        2.022        0.404      178.224       33.564        0.035      330.868       -1.484      858.728
02/04/2014  04:11:00      -84.007       -8.592       -2.513       47.747       44.438       22.045     2279.754     1974.724      485.989        0.594        0.237       84.445       14.397        0.029      330.864       -1.489      858.711
02/04/2014  04:12:00     -115.319       68.910      -18.760       45.658       68.987       36.773     2084.671     4759.170     1352.221        1.330        0.410      134.340       31.118        0.054      330.961       -1.329      858.713
02/04/2014  04:13:00      -93.840      104.087      -16.517       51.953       62.958       32.940     2699.092     3963.678     1085.074        1.383        0.387      140.142       30.853        0.048      330.982       -1.297      858.728
02/04/2014  04:14:00     -102.144       63.355      -16.441       38.197       46.765       26.611     1458.996     2186.999      708.134        0.954        0.218      120.196       20.888        0.030      330.953       -1.344      858.786
02/04/2014  04:15:00      -94.047       81.417      -18.485       50.026       48.454       31.755     2502.615     2347.762     1008.372        1.084        0.293      124.392       30.826        0.061      330.950       -1.348      858.807
02/04/2014  04:16:00      -98.202       52.778      -16.756       46.953       53.642       26.120     2204.563     2877.491      682.233        0.924        0.288      111.486       25.379        0.052      330.959       -1.334      858.804
02/04/2014  04:17:00     -125.500        3.796      -24.810       44.849       35.361       35.039     2011.432     1250.389     1227.726        1.043        0.224      125.558       22.250        0.031      330.969       -1.318      858.806
02/04/2014  04:18:00     -135.991      104.887      -34.725       48.500       48.234       33.982     2352.294     2326.472     1154.798        1.827        0.292      171.741       30.386        0.031      330.974       -1.311      858.791
02/04/2014  04:19:00     -131.474      136.670      -28.743       55.889       61.157       38.439     3123.603     3740.131     1477.559        2.256        0.417      189.642       39.133        0.043      331.015       -1.245      858.781
02/04/2014  04:20:00      -94.001      100.737      -13.859       56.734       76.405       30.013     3218.755     5837.663      900.781        1.456        0.498      137.783       29.513        0.046      330.980       -1.301      858.800
02/04/2014  04:21:00     -132.841       97.962      -29.061       48.328       59.439       35.590     2335.576     3532.953     1266.668        1.761        0.357      165.055       38.861        0.055      330.960       -1.334      858.818
02/04/2014  04:22:00     -129.779       63.347      -12.501       58.609       32.950       27.153     3435.070     1085.678      737.286        1.313        0.263      144.414       18.623        0.017      330.914       -1.409      858.818
02/04/2014  04:23:00      -81.613       75.960       -6.372       59.573       54.505       39.632     3548.913     2970.752     1570.705        1.028        0.405      111.492       40.347        0.131      330.940       -1.365      858.827
02/04/2014  04:24:00      -73.266       66.325      -12.245       37.507      109.761       33.358     1406.769    12047.456     1112.739        1.224        0.728       98.827       43.000        0.189      331.036       -1.208      858.832
02/04/2014  04:25:00      -74.973       62.629        0.234       54.941       51.114       37.871     3018.491     2612.659     1434.243        0.830        0.353       97.690       33.885        0.120      330.958       -1.335      858.853
02/04/2014  04:26:00     -113.078      114.980       -5.527       56.822       94.703       45.583     3228.777     8968.585     2077.826        2.015        0.714      161.267       40.465        0.063      330.983       -1.298      858.867
02/04/2014  04:27:00      -84.030       56.601      -16.485       37.892       67.118       27.849     1435.835     4504.779      775.564        0.863        0.336      101.315       28.215        0.078      330.968       -1.319      858.873
02/04/2014  04:28:00      -84.016       38.858      -21.468       39.149       44.078       22.577     1532.646     1942.850      509.708        0.651        0.199       92.567       18.786        0.041      330.986       -1.289      858.887
02/04/2014  04:29:00     -121.108       71.377      -20.309       60.478       47.773       31.922     3657.607     2282.246     1018.993        1.357        0.348      140.577       30.211        0.046      330.965       -1.324      858.895
02/04/2014  04:30:00     -151.545       43.123      -26.798       42.389       47.549       32.609     1796.816     2260.904     1063.375        1.533        0.256      157.561       26.915        0.029      330.943       -1.360      858.886
02/04/2014  04:31:00      -76.633       20.371      -15.653       52.049       35.216       27.222     2709.066     1240.140      741.024        0.561        0.235       79.294       24.384        0.095      330.942       -1.362      858.870
02/04/2014  04:32:00      -60.815       31.981       -1.326       26.002       30.418       24.635      676.098      925.246      606.893        0.347        0.110       68.711       19.847        0.083      330.981       -1.299      858.861
02/04/2014  04:33:00      -64.893      -28.765       -8.450       22.594       18.944       13.325      510.493      358.863      177.547        0.308        0.052       70.983        4.251        0.004      330.992       -1.279      858.875
02/04/2014  04:34:00     -121.445      -18.270      -10.703       50.292       37.578       24.171     2529.302     1412.079      584.216        0.986        0.226      122.812       23.340        0.036      330.909       -1.416      858.883
02/04/2014  04:35:00      -60.363      -28.704       12.653       68.510       59.282       42.038     4693.679     3514.324     1767.174        0.730        0.499       66.840       44.310        0.439      330.944       -1.359      858.877
02/04/2014  04:36:00      -74.329       61.588      -18.874       58.828       72.894       28.897     3460.701     5313.523      835.025        0.964        0.480       96.529       25.942        0.072      330.968       -1.319      858.891
02/04/2014  04:37:00      -86.291        4.358      -18.769       54.284       37.522       18.111     2946.762     1407.885      328.005        0.625        0.234       86.401        9.906        0.013      330.916       -1.406      858.903
02/04/2014  04:38:00      -58.739       11.635       -2.382       59.603       64.285       31.915     3552.531     4132.552     1018.586        0.615        0.435       59.880       31.667        0.280      330.859       -1.499      858.901
02/04/2014  04:39:00      -82.470        6.223      -31.982       54.344       54.005       23.758     2953.232     2916.504      564.451        0.715        0.322       82.704        5.940        0.005      330.952       -1.345      858.898
02/04/2014  04:40:00      -34.770       68.223        1.390       42.769       72.494       27.045     1829.229     5255.329      731.435        0.684        0.391       76.572       29.594        0.149      330.923       -1.394      858.906
02/04/2014  04:41:00      -34.816       46.765       -8.393       46.995       62.027       25.418     2208.510     3847.331      646.077        0.508        0.335       58.301       22.766        0.152      330.989       -1.284      858.931
02/04/2014  04:42:00     -117.191       91.600      -28.125       68.316       36.865       23.013     4667.136     1359.054      529.578        1.473        0.328      148.742       26.769        0.032      330.936       -1.373      858.946
02/04/2014  04:43:00      -43.366       63.152      -13.592       32.218       44.546       19.162     1038.004     1984.325      367.190        0.472        0.169       76.608       12.829        0.028      330.895       -1.440      858.962
02/04/2014  04:44:00      -31.369        7.084       -1.317       21.991       40.993       21.262      483.598     1680.432      452.066        0.183        0.131       32.159       23.340        0.527      330.917       -1.403      858.977
02/04/2014  04:45:00      -42.133        3.153      -14.661       39.678       34.045       23.672     1574.309     1159.029      560.359        0.265        0.165       42.251       15.225        0.130      330.911       -1.412      858.991
02/04/2014  04:46:00      -44.430       -5.689        2.106       34.981       17.132       12.757     1223.656      293.515      162.747        0.185        0.084       44.793       13.031        0.085      330.853       -1.507      858.981
02/04/2014  04:47:00       23.193      -15.814       -4.536       17.748       28.270       17.248      314.987      799.205      297.500        0.111        0.071       28.071       12.548        0.200      330.869       -1.482      858.996
02/04/2014  04:48:00       10.231       -6.394       13.757       18.123       19.619       14.187      328.455      384.898      201.275        0.062        0.046       12.064       12.068        1.001      330.901       -1.428      859.007
02/04/2014  04:49:00       15.409      -23.307        4.670       17.763       21.373       12.542      315.518      456.797      157.306        0.087        0.046       27.940        8.688        0.097      331.020       -1.232      859.014
02/04/2014  04:50:00       -6.493       19.015       36.796        8.834       23.089       14.450       78.036      533.124      208.797        0.129        0.041       20.093       15.291        0.579      330.909       -1.414      859.007
02/04/2014  04:51:00       -1.765       31.975       42.587       19.593       21.312       21.012      383.880      454.211      441.512        0.206        0.064       32.024        6.269        0.038      330.762       -1.659      859.013
02/04/2014  04:52:00        7.546       30.279       73.278       32.375       34.747       28.714     1048.164     1207.320      824.490        0.471        0.154       31.205       23.667        0.575      330.709       -1.744      859.011
02/04/2014  04:53:00       -6.161        2.539       65.385       21.004       34.627       17.916      441.156     1199.055      320.979        0.314        0.098        6.663       15.640        5.510      330.725       -1.719      859.017
02/04/2014  04:54:00       -0.093       56.314       75.132       20.854       43.099       34.709      434.876     1857.525     1204.713        0.616        0.175       56.314       34.605        0.378      330.688       -1.777      859.020
02/04/2014  04:55:00       20.369       38.739       72.217       26.537       32.384       23.001      704.209     1048.738      529.034        0.471        0.114       43.767       21.123        0.233      330.686       -1.782      859.013
02/04/2014  04:56:00        5.172        4.211       45.694       35.021       27.973       22.534     1226.439      782.482      507.761        0.232        0.126        6.669       14.883        4.980      330.725       -1.719      859.025
02/04/2014  04:57:00       18.656      -22.440       30.459       22.463       34.264       32.354      504.566     1174.051     1046.764        0.225        0.136       29.182       27.095        0.862      330.806       -1.586      859.026
02/04/2014  04:58:00        4.632      -30.144       20.524       17.130       26.664       25.467      293.442      710.995      648.585        0.150        0.083       30.498       10.762        0.125      330.812       -1.575      859.019
02/04/2014  04:59:00        2.242       -0.007       35.937       14.400       32.525       20.109      207.362     1057.879      404.392        0.148        0.083        2.242       21.559       92.424      330.770       -1.645      859.016
02/04/2014  05:00:00       -5.872       30.742       48.919       10.313       24.050       14.082      106.368      578.421      198.316        0.213        0.044       31.298       13.724        0.192      330.722       -1.723      859.014
02/04/2014  05:01:00       -4.094       56.122       71.864       19.255       25.453       21.043      370.761      647.879      442.792        0.490        0.073       56.271       14.961        0.071      330.762       -1.658      859.026
02/04/2014  05:02:00        8.001       13.686       55.830       20.258       45.222       22.862      410.378     2045.023      522.661        0.317        0.149       15.853       24.900        2.467      330.849       -1.515      859.042
02/04/2014  05:03:00       -8.961       22.543       40.863       15.347       20.928       17.997      235.524      438.001      323.908        0.163        0.050       24.259        8.129        0.112      330.850       -1.513      859.055
02/04/2014  05:04:00       42.751       57.514       30.412       30.050       13.640       21.082      902.996      186.038      444.470        0.380        0.077       71.662       21.350        0.089      330.760       -1.660      859.054
02/04/2014  05:05:00       48.443       45.242        4.954       31.241       13.253       12.147      975.973      175.630      147.558        0.286        0.065       66.284       10.793        0.027      330.694       -1.769      859.062
02/04/2014  05:06:00       30.789       40.322        0.598       16.584       18.618       17.417      275.045      346.643      303.363        0.175        0.046       50.732       14.284        0.079      330.728       -1.714      859.075
02/04/2014  05:07:00        4.291       -4.895       16.837       36.987       74.499       26.828     1368.047     5550.064      719.736        0.398        0.382        6.510       27.275       17.556      330.848       -1.517      859.085
02/04/2014  05:08:00      -27.529       -9.087        4.229       15.105       14.302       13.021      228.156      204.556      169.542        0.073        0.030       28.990        8.033        0.077      330.874       -1.473      859.090
02/04/2014  05:09:00       -6.765        2.956        8.835       10.617       11.388       13.338      112.715      129.679      177.904        0.028        0.021        7.382        7.562        1.049      330.823       -1.557      859.098
02/04/2014  05:10:00      -36.987       16.368       -2.552       23.063       17.381       14.849      531.920      302.112      220.494        0.135        0.053       40.447       15.358        0.144      330.787       -1.616      859.106
02/04/2014  05:11:00      -72.275       15.667      -10.336       16.293       12.973        8.545      265.471      168.293       73.018        0.304        0.025       73.954        4.006        0.003      330.629       -1.876      859.111
02/04/2014  05:12:00      -98.568      -21.962      -10.313       14.772       17.239       12.025      218.202      297.179      144.592        0.548        0.033      100.986        7.828        0.006      330.654       -1.834      859.115
02/04/2014  05:13:00      -62.956      -38.324       -4.087       33.027       26.860       19.672     1090.807      721.477      387.004        0.382        0.110       73.703       15.740        0.046      330.716       -1.734      859.132
02/04/2014  05:14:00      -11.934      -71.176        4.178       36.784       43.006       24.817     1353.095     1849.526      615.897        0.452        0.191       72.169       24.611        0.116      330.769       -1.648      859.137
02/04/2014  05:15:00      -46.312      -47.672        3.051       62.459       37.565       27.339     3901.173     1411.108      747.422        0.524        0.303       66.464       18.821        0.080      330.759       -1.663      859.148
02/04/2014  05:16:00      -41.228      -41.427        7.663       38.300       30.426       22.040     1466.914      925.763      485.765        0.318        0.144       58.446       20.263        0.120      330.733       -1.706      859.162
02/04/2014  05:17:00      -44.789      -42.588       10.935       46.318       40.536       25.455     2145.315     1643.198      647.934        0.419        0.222       61.804       25.310        0.168      330.751       -1.678      859.182
02/04/2014  05:18:00      -98.921        4.463      -15.868       29.047       34.100       16.483      843.738     1162.842      271.684        0.617        0.114       99.022       16.565        0.028      330.759       -1.665      859.208
02/04/2014  05:19:00      -79.295      -54.209       -3.002       28.521       34.406       18.390      813.441     1183.754      338.194        0.578        0.117       96.053       16.432        0.029      330.745       -1.686      859.221
02/04/2014  05:20:00      -52.702      -48.065       -4.128       22.087       22.727       13.589      487.846      516.518      184.673        0.315        0.059       71.328       10.994        0.024      330.761       -1.660      859.228
02/04/2014  05:21:00      -44.363      -16.032        0.023       36.331       30.433       22.379     1319.915      926.161      500.823        0.249        0.137       47.171       21.861        0.215      330.774       -1.637      859.232
02/04/2014  05:22:00      -70.844      -57.981       -1.030       72.099       52.561       28.395     5198.245     2762.640      806.295        0.857        0.438       91.546       13.754        0.023      330.708       -1.747      859.235
02/04/2014  05:23:00      -99.309      -18.075        7.016       65.121       83.560       36.536     4240.797     6982.280     1334.877        1.140        0.628      100.940       23.694        0.055      330.638       -1.861      859.241
02/04/2014  05:24:00     -233.630        9.175      -26.590       93.713       68.341       35.964     8782.093     4670.500     1293.404        3.506        0.737      233.810       37.572        0.026      330.652       -1.840      859.256
02/04/2014  05:25:00     -150.058      -46.905       -0.635       77.571       60.582       33.603     6017.249     3670.139     1129.174        1.777        0.541      157.218       39.083        0.062      330.604       -1.918      859.260
02/04/2014  05:26:00     -151.439      -54.493       -4.965       51.964       43.222       28.797     2700.248     1868.148      829.264        1.566        0.270      160.945       24.625        0.023      330.598       -1.927      859.259
02/04/2014  05:27:00     -143.319      -20.623      -10.356       59.855       47.352       30.825     3582.616     2242.243      950.168        1.392        0.339      144.795       32.063        0.049      330.613       -1.904      859.263
02/04/2014  05:28:00      -58.196      -50.866        8.397       88.020       43.568       41.304     7747.540     1898.142     1706.059        0.870        0.568       77.292       55.374        0.513      330.686       -1.783      859.266
02/04/2014  05:29:00      -35.675      -27.432        4.166       33.452       19.997       17.705     1119.037      399.874      313.472        0.194        0.092       45.003        7.190        0.026      330.661       -1.824      859.259
02/04/2014  05:30:00      -72.625      -36.803       -5.836       29.108       25.607       16.326      847.247      655.742      266.539        0.422        0.088       81.418       14.273        0.031      330.697       -1.763      859.257
02/04/2014  05:31:00      -11.906      -17.396       -7.068       33.475       21.594       12.261     1120.556      466.315      150.326        0.112        0.087       21.080        7.371        0.122      330.696       -1.765      859.261
02/04/2014  05:32:00      -28.194       10.901        6.555       30.647       17.337       22.985      939.254      300.573      528.306        0.136        0.088       30.228       17.663        0.341      330.700       -1.760      859.262
02/04/2014  05:33:00        6.956       41.181       -2.474       15.272       18.757       15.162      233.226      351.843      229.898        0.128        0.041       41.765       15.046        0.130      330.624       -1.883      859.256
02/04/2014  05:34:00       19.163       48.530       -2.073       14.384       18.976       17.392      206.890      360.088      302.492        0.180        0.043       52.177       12.476        0.057      330.542       -2.018      859.259
02/04/2014  05:35:00       23.236       66.973       -8.028       22.120       25.377       16.009      489.309      643.977      256.286        0.324        0.069       70.890        5.365        0.006      330.498       -2.091      859.258
02/04/2014  05:36:00        5.054       56.410       -6.039       19.761       25.035       14.684      390.481      626.776      215.616        0.224        0.062       56.636       14.105        0.062      330.621       -1.888      859.264
02/04/2014  05:37:00       13.788       23.397       -7.359       17.203       16.753        9.673      295.957      280.647       93.569        0.073        0.034       27.157        8.042        0.088      330.590       -1.939      859.255
02/04/2014  05:38:00       22.710       32.087       -7.040       15.162       11.805       10.518      229.884      139.368      110.632        0.104        0.024       39.311        6.939        0.031      330.500       -2.088      859.260
02/04/2014  05:39:00        6.168       24.774      -10.979        8.154        7.881        3.567       66.485       62.104       12.721        0.046        0.007       25.531        3.061        0.014      330.501       -2.087      859.255
02/04/2014  05:40:00       22.261       11.132       -5.607        7.662        7.164        5.031       58.699       51.330       25.307        0.039        0.007       24.889        1.920        0.006      330.541       -2.021      859.237
02/04/2014  05:41:00       32.135       36.740       -0.699       15.545       16.874       13.728      241.655      284.726      188.462        0.155        0.036       48.811       10.934        0.050      330.508       -2.076      859.231
02/04/2014  05:42:00       30.527       67.917      -10.437       11.560       19.717       10.737      133.624      388.766      115.277        0.315        0.032       74.462        9.911        0.018      330.501       -2.087      859.226
02/04/2014  05:43:00       38.802       39.499       -0.601       19.367       18.316       13.114      375.086      335.459      171.968        0.197        0.044       55.370       11.845        0.046      330.532       -2.033      859.229
02/04/2014  05:44:00       52.862       46.241        0.428       30.347       24.021       15.807      920.961      577.017      249.859        0.334        0.087       70.233       16.125        0.053      330.556       -1.997      859.225
02/04/2014  05:45:00       44.175       62.348       -4.025       22.491       27.976       18.330      505.844      782.633      335.981        0.374        0.081       76.411       14.781        0.037      330.598       -1.925      859.228
02/04/2014  05:46:00       37.732       44.373        4.186       33.358       19.805       19.357     1112.784      392.237      374.677        0.264        0.094       58.247       11.983        0.042      330.554       -1.999      859.230
02/04/2014  05:47:00       35.543       26.958       14.577       27.998       18.209       16.906      783.892      331.562      285.821        0.180        0.070       44.610       10.489        0.055      330.454       -2.163      859.232
02/04/2014  05:48:00       29.632       72.684       -8.986       27.194       33.107       17.990      739.498     1096.092      323.644        0.420        0.108       78.492       22.195        0.080      330.385       -2.277      859.232
02/04/2014  05:49:00       44.710       42.674       -4.094       24.361       26.057       15.984      593.480      678.961      255.502        0.268        0.076       61.807       14.798        0.057      330.404       -2.245      859.233
02/04/2014  05:50:00       45.073       48.558       -4.329       30.130       19.861       19.540      907.813      394.478      381.793        0.305        0.084       66.253        8.998        0.018      330.485       -2.111      859.236
02/04/2014  05:51:00       30.757      106.841       -8.729       30.098       38.910       25.081      905.880     1513.950      629.042        0.774        0.152      111.180       22.722        0.042      330.540       -2.021      859.237
02/04/2014  05:52:00       19.727       83.717      -10.029       32.762       42.786       27.437     1073.317     1830.621      752.774        0.558        0.183       86.010       30.215        0.123      330.568       -1.977      859.232
02/04/2014  05:53:00      -53.884       35.693       -7.179       23.354       26.721       23.023      545.429      714.024      530.048        0.301        0.089       64.633       15.466        0.057      330.648       -1.845      859.235
02/04/2014  05:54:00      -44.071       27.871       -9.195       24.707       31.481       14.984      610.419      991.028      224.532        0.231        0.091       52.144       12.051        0.053      330.664       -1.818      859.233
02/04/2014  05:55:00      -36.635       18.995       -3.528       25.514       16.701       11.894      650.966      278.938      141.468        0.139        0.054       41.267        9.956        0.058      330.641       -1.856      859.236
02/04/2014  05:56:00       15.361       25.784        7.554       19.555       24.769       19.061      382.397      613.517      363.338        0.116        0.068       30.013       19.743        0.433      330.718       -1.732      859.240
02/04/2014  05:57:00        2.599       94.984       -9.197       14.336       35.677       16.018      205.521     1272.856      256.571        0.542        0.087       95.020       15.590        0.027      330.678       -1.795      859.249
02/04/2014  05:58:00        5.205      102.082      -13.546       15.777       13.687       10.567      248.909      187.322      111.669        0.559        0.027      102.215        8.211        0.006      330.509       -2.071      859.260
02/04/2014  05:59:00       16.889       69.057       -8.952       10.999       20.664       11.304      120.986      426.993      127.783        0.290        0.034       71.093       10.973        0.024      330.410       -2.236      859.272
02/04/2014  06:00:00       20.512       79.581      -14.693        8.426        8.989        6.802       70.990       80.805       46.264        0.358        0.010       82.182        5.052        0.004      330.472       -2.134      859.262
02/04/2014  06:01:00       26.606       64.748       -8.736       12.589       18.755       10.714      158.479      351.757      114.788        0.280        0.031       70.002        9.476        0.018      330.461       -2.152      859.257
02/04/2014  06:02:00       12.755       63.482      -13.925       17.374       23.581       12.048      301.862      556.087      145.152        0.269        0.050       64.751       11.062        0.029      330.492       -2.099      859.257
02/04/2014  06:03:00        4.470       72.731       -7.013       18.167       22.287       11.512      330.047      496.690      132.525        0.316        0.048       72.868       11.389        0.024      330.509       -2.073      859.260
02/04/2014  06:04:00       26.001       31.322        1.328       21.847       10.971       12.074      477.277      120.363      145.781        0.120        0.037       40.708       10.111        0.062      330.440       -2.187      859.253
02/04/2014  06:05:00       59.956       34.148        3.555       17.667       14.540       14.453      312.123      211.414      208.894        0.275        0.037       68.999        6.792        0.010      330.229       -2.531      859.247
02/04/2014  06:06:00       30.115       30.227        0.523       23.805       18.530       15.948      566.690      343.376      254.352        0.149        0.058       42.668       11.978        0.079      330.161       -2.645      859.248
02/04/2014  06:07:00       24.513       67.229       -4.759       16.518       36.380       18.183      272.843     1323.534      330.628        0.353        0.096       71.558       20.953        0.086      330.289       -2.433      859.239
02/04/2014  06:08:00       16.462       61.998      -10.081       14.809       18.357       12.245      219.319      336.971      149.944        0.246        0.035       64.147       13.001        0.041      330.434       -2.197      859.227
02/04/2014  06:09:00        1.600       63.175       -9.889        7.203       12.281        5.849       51.879      150.823       34.209        0.216        0.012       63.195        5.432        0.007      330.506       -2.080      859.220
02/04/2014  06:10:00      -33.385       24.921       -4.685       21.402       19.612       14.111      458.027      384.618      199.132        0.140        0.052       41.661       12.182        0.085      330.364       -2.310      859.230
02/04/2014  06:11:00      -59.778       23.379       -7.461       24.322       15.316       11.961      591.539      234.590      143.067        0.257        0.048       64.187        5.209        0.007      330.394       -2.261      859.242
02/04/2014  06:12:00      -20.932        0.952       -1.873       14.252        8.794        6.298      203.128       77.336       39.664        0.038        0.016       20.954        3.804        0.033      330.393       -2.263      859.257
02/04/2014  06:13:00       18.383       20.889        6.223       13.340       28.411        9.218      177.964      807.205       84.966        0.094        0.054       27.826       12.900        0.215      330.477       -2.125      859.267
02/04/2014  06:14:00       25.302       41.158       -9.556       14.213       19.055        9.150      202.016      363.098       83.728        0.154        0.032       48.313        6.294        0.017      330.464       -2.147      859.278
02/04/2014  06:15:00       28.321       39.860       -6.091       14.338       14.688        8.886      205.580      215.726       78.959        0.146        0.025       48.897        7.276        0.022      330.387       -2.272      859.276
02/04/2014  06:16:00       12.775       36.462       -3.915        6.896        7.085        6.034       47.559       50.195       36.413        0.082        0.007       38.635        4.814        0.016      330.454       -2.164      859.278
02/04/2014  06:17:00        7.876       30.817       -3.763        5.687        7.235        5.798       32.348       52.350       33.622        0.057        0.006       31.807        3.544        0.012      330.545       -2.012      859.277
02/04/2014  06:18:00      -10.762       26.625       -2.699       16.112        9.660        3.206      259.606       93.311       10.277        0.060        0.018       28.718        3.693        0.017      330.499       -2.091      859.275
02/04/2014  06:19:00      -59.753       -5.085       -8.919       14.372       12.362       10.200      206.546      152.822      104.030        0.207        0.023       59.968        7.558        0.016      330.162       -2.640      859.276
02/04/2014  06:20:00      -33.155       -9.382       -0.449       22.020       10.616        9.052      484.880      112.703       81.934        0.093        0.034       34.457       10.514        0.093      330.163       -2.640      859.277
02/04/2014  06:21:00      -27.839        4.828       -3.635       19.786       12.966        5.932      391.482      168.116       35.190        0.070        0.030       28.255        6.382        0.051      330.152       -2.658      859.272
02/04/2014  06:22:00      -73.632       12.284       -8.760       15.422       10.867        8.936      237.844      118.095       79.854        0.304        0.022       74.650        8.203        0.012      330.038       -2.846      859.279
02/04/2014  06:23:00     -107.156       18.799       -8.454       41.341       20.499       15.920     1709.051      420.211      253.455        0.714        0.119      108.793       18.151        0.028      329.950       -2.989      859.286
02/04/2014  06:24:00     -129.112       31.536      -13.037       18.720       21.938       11.345      350.437      481.257      128.714        0.940        0.048      132.908        3.793        0.001      329.951       -2.988      859.300
02/04/2014  06:25:00      -91.644       12.008      -13.169       19.793       21.912       13.946      391.775      480.128      194.504        0.489        0.053       92.428       11.339        0.015      329.904       -3.064      859.311
02/04/2014  06:26:00      -75.062       18.441       -6.608       24.126       15.451       14.635      582.056      238.736      214.175        0.353        0.052       77.294        7.053        0.008      329.947       -2.994      859.316
02/04/2014  06:27:00      -84.702        6.711       -3.622       23.662       11.493        9.537      559.893      132.091       90.952        0.401        0.039       84.967       10.304        0.015      330.021       -2.872      859.312
02/04/2014  06:28:00      -84.926        5.259       -4.916       15.330       14.924        8.087      235.007      222.738       65.407        0.389        0.026       85.088        6.045        0.005      329.986       -2.930      859.327
02/04/2014  06:29:00      -48.442        0.058       -2.017       18.765       15.830       12.336      352.107      250.592      152.178        0.155        0.038       48.442       11.739        0.059      329.924       -3.031      859.348
02/04/2014  06:30:00      -49.636       -7.770       -5.353       13.854       15.893        9.164      191.936      252.594       83.973        0.154        0.026       50.241        2.397        0.002      329.961       -2.970      859.371
02/04/2014  06:31:00      -58.783      -16.555       -6.814       15.850       12.140        6.915      251.235      147.384       47.820        0.211        0.022       61.069        2.947        0.002      330.058       -2.811      859.389
02/04/2014  06:32:00      -77.053      -24.094       -5.151       17.286       10.851        9.633      298.812      117.752       92.789        0.353        0.025       80.732        4.608        0.003      330.020       -2.874      859.406
02/04/2014  06:33:00      -88.258      -23.369       -9.226       13.794       17.643       10.872      190.277      311.259      118.210        0.452        0.031       91.299        5.343        0.003      329.957       -2.977      859.414
02/04/2014  06:34:00      -68.460      -11.078       -6.000       27.976       17.225       12.396      782.649      296.717      153.669        0.304        0.062       69.350       13.388        0.037      329.776       -3.274      859.411
02/04/2014  06:35:00      -57.819        0.586       -1.097       20.689       19.647       13.925      428.020      386.020      193.905        0.218        0.050       57.822       11.352        0.039      329.755       -3.309      859.411
02/04/2014  06:36:00      -71.004      -12.416       -7.372       27.825       16.985       14.254      774.253      288.485      203.183        0.326        0.063       72.081       14.745        0.042      329.839       -3.171      859.411
02/04/2014  06:37:00      -96.952       -0.583       -9.749       24.592       20.049       14.911      604.763      401.945      222.344        0.536        0.061       96.953       11.357        0.014      329.752       -3.312      859.419
02/04/2014  06:38:00      -92.030       28.337       -6.220       27.519       17.745       14.177      757.323      314.883      200.999        0.529        0.064       96.294       12.036        0.016      329.735       -3.339      859.430
02/04/2014  06:39:00      -93.774       28.049       -7.229       19.102       18.503       14.104      364.878      342.363      198.937        0.527        0.045       97.880        8.807        0.008      329.807       -3.223      859.436
02/04/2014  06:40:00     -104.777       22.456      -11.840       24.678       17.193       13.277      609.027      295.585      176.283        0.635        0.054      107.156       10.397        0.009      329.825       -3.194      859.437
02/04/2014  06:41:00     -109.800       25.712       -7.956       16.271       10.642        6.466      264.735      113.261       41.805        0.660        0.021      112.770        4.958        0.002      329.935       -3.016      859.438
02/04/2014  06:42:00      -79.739        7.578       -6.134       18.209       17.371       10.422      331.555      301.737      108.622        0.360        0.037       80.098       11.327        0.020      329.854       -3.146      859.441
02/04/2014  06:43:00      -77.529       17.083       -4.998       21.466       12.950       10.831      460.791      167.709      117.308        0.354        0.037       79.389       12.504        0.025      329.877       -3.110      859.435
02/04/2014  06:44:00      -81.774       15.692       -5.813       18.869       16.510       11.020      356.035      272.568      121.447        0.386        0.038       83.266        5.074        0.004      329.906       -3.062      859.429
02/04/2014  06:45:00     -101.022       25.778       -6.655       18.372       11.315        7.485      337.534      128.023       56.032        0.572        0.026      104.259        4.619        0.002      329.929       -3.024      859.432
02/04/2014  06:46:00     -106.357       26.148       -6.086       16.685       13.969        9.842      278.373      195.142       96.874        0.630        0.029      109.524        6.939        0.004      329.917       -3.043      859.437
02/04/2014  06:47:00     -108.049       28.353       -6.420       22.525       14.134       11.034      507.398      199.773      121.742        0.667        0.041      111.707        6.234        0.003      329.881       -3.103      859.437
02/04/2014  06:48:00     -115.831       18.309      -10.877       18.117       19.582       14.156      328.208      383.449      200.388        0.739        0.046      117.269       10.067        0.007      329.866       -3.127      859.433
02/04/2014  06:49:00     -129.823       22.136      -15.064       27.876       19.456       14.474      777.047      378.536      209.504        0.947        0.068      131.696       11.140        0.007      329.816       -3.209      859.431
02/04/2014  06:50:00     -134.551       11.207      -14.314       35.893       25.783       18.727     1288.310      664.754      350.698        1.037        0.115      135.017       14.080        0.011      329.727       -3.354      859.437
02/04/2014  06:51:00     -138.660       -8.691      -17.113       27.986       26.004       17.358      783.205      676.234      301.309        1.068        0.088      138.932       11.729        0.007      329.639       -3.497      859.443
02/04/2014  06:52:00     -130.136      -13.661       -7.839       45.711       30.190       20.944     2089.462      911.443      438.639        1.031        0.172      130.851       16.364        0.016      329.583       -3.589      859.448
02/04/2014  06:53:00     -107.553      -27.021       -3.092       27.598       40.217       20.812      761.637     1617.377      433.126        0.756        0.141      110.895       13.454        0.015      329.589       -3.580      859.450
02/04/2014  06:54:00     -121.032      -24.777       -5.427       54.109       34.964       24.701     2927.766     1222.506      610.115        1.003        0.238      123.542       27.786        0.051      329.503       -3.721      859.454
02/04/2014  06:55:00     -102.421       -8.843       -5.009       61.692       33.569       28.662     3805.931     1126.869      821.512        0.817        0.288      102.802       30.074        0.086      329.487       -3.747      859.459
02/04/2014  06:56:00     -174.979       18.288      -20.091       31.715       27.999       21.108     1005.827      783.971      445.535        1.680        0.112      175.932       19.509        0.012      329.544       -3.653      859.448
02/04/2014  06:57:00     -169.146       17.372      -13.940       40.854       35.398       23.012     1669.055     1253.045      529.539        1.628        0.173      170.036       23.726        0.019      329.585       -3.587      859.445
02/04/2014  06:58:00     -159.349       -4.573      -22.917       31.455       34.602       19.346      989.431     1197.308      374.278        1.425        0.128      159.414       14.496        0.008      329.593       -3.573      859.460
02/04/2014  06:59:00      -92.153      -31.950       -4.902       38.944       37.189       22.650     1516.671     1383.039      513.036        0.647        0.171       97.534       21.673        0.049      329.544       -3.654      859.478
02/04/2014  07:00:00     -106.421      -13.604      -12.451       21.582       35.123       21.688      465.793     1233.621      470.353        0.692        0.108      107.287       13.558        0.016      329.557       -3.633      859.497
02/04/2014  07:01:00      -81.325      -26.410       -3.084       32.091       38.028       17.358     1029.801     1446.131      301.285        0.505        0.139       85.505       11.084        0.017      329.567       -3.616      859.511
02/04/2014  07:02:00      -63.582      -33.407      -11.324       25.527       37.760       25.591      651.634     1425.793      654.897        0.401        0.137       71.824       13.960        0.038      329.646       -3.487      859.525
02/04/2014  07:03:00      -43.902      -25.197       -7.077       26.727       19.601       12.205      714.351      384.191      148.971        0.193        0.062       50.619       10.445        0.043      329.698       -3.401      859.532
02/04/2014  07:04:00       -9.462       -6.114        6.321       22.877       13.073       12.029      523.369      170.914      144.703        0.050        0.042       11.265       12.019        1.138      329.688       -3.417      859.541
02/04/2014  07:05:00      -44.607      -29.758       -6.331       17.275       14.801       12.116      298.429      219.066      146.787        0.179        0.033       53.622        8.507        0.025      329.680       -3.430      859.548
02/04/2014  07:06:00      -25.970      -12.800       -0.611       11.141       16.578       14.312      124.131      274.843      204.827        0.072        0.030       28.953        6.391        0.049      329.621       -3.529      859.563
02/04/2014  07:07:00      -18.637       -4.982        7.152       13.435        7.889        7.118      180.486       62.241       50.672        0.036        0.015       19.292        3.244        0.028      329.680       -3.432      859.578
02/04/2014  07:08:00      -10.338       -8.384        3.534       22.629       13.008        9.330      512.054      169.209       87.045        0.048        0.038       13.311        5.300        0.159      329.713       -3.378      859.585
02/04/2014  07:09:00      -11.468       -5.250        2.913       19.446       11.134        7.956      378.138      123.961       63.300        0.037        0.028       12.613        7.235        0.329      329.733       -3.344      859.590
02/04/2014  07:10:00      -19.658       -7.122        2.172       17.405        8.921        9.900      302.930       79.584       98.005        0.046        0.024       20.908        8.876        0.180      329.695       -3.405      859.590
02/04/2014  07:11:00      -49.245      -11.362       -6.526       14.346       14.375       10.718      205.811      206.650      114.875        0.156        0.026       50.539        8.493        0.028      329.600       -3.562      859.594
02/04/2014  07:12:00      -61.249      -11.493       -5.186       24.556       23.482       12.492      603.003      551.388      156.040        0.261        0.066       62.318       10.183        0.027      329.590       -3.578      859.594
02/04/2014  07:13:00     -105.186      -34.877       -5.748       16.912       20.269       13.311      286.011      410.824      177.183        0.659        0.044      110.818        7.295        0.004      329.563       -3.624      859.593
02/04/2014  07:14:00     -107.246       -5.786      -15.162       12.417       13.429       13.264      154.175      180.340      175.937        0.614        0.026      107.402        8.230        0.006      329.582       -3.593      859.609
02/04/2014  07:15:00      -98.760       -4.619      -11.608       20.807       12.646       10.857      432.926      159.920      117.873        0.531        0.036       98.868        8.286        0.007      329.573       -3.606      859.616
02/04/2014  07:16:00     -122.781        0.752      -17.361        8.576        6.788        9.272       73.548       46.076       85.967        0.779        0.010      122.784        3.506        0.001      329.526       -3.683      859.625
02/04/2014  07:17:00     -126.134        0.538      -17.818        6.942        7.236        5.677       48.197       52.364       32.233        0.818        0.007      126.136        1.683        0.000      329.614       -3.539      859.631
02/04/2014  07:18:00     -127.186       -3.059      -17.382       11.354       10.129        7.738      128.923      102.598       59.879        0.839        0.015      127.223        4.905        0.001      329.581       -3.593      859.638
02/04/2014  07:19:00     -119.045       -4.621      -16.701       20.339       17.388       15.442      413.673      302.344      238.445        0.771        0.048      119.135       12.703        0.011      329.558       -3.630      859.648
02/04/2014  07:20:00     -120.759       -8.579      -13.399       18.205       15.691       15.434      331.426      246.222      238.205        0.783        0.041      121.064       12.475        0.011      329.580       -3.594      859.662
02/04/2014  07:21:00     -119.144       -1.403      -18.695       27.938       14.276       15.023      780.515      203.794      225.691        0.788        0.061      119.152        9.244        0.006      329.582       -3.592      859.666
02/04/2014  07:22:00     -114.261       13.985      -22.126       29.104       19.411       16.981      847.063      376.795      288.370        0.763        0.076      115.114       15.418        0.018      329.641       -3.495      859.682
02/04/2014  07:23:00     -104.054       19.712      -16.376       25.306       24.985       18.872      640.388      624.275      356.154        0.655        0.081      105.905       10.206        0.009      329.715       -3.376      859.684
02/04/2014  07:24:00      -91.452       26.112      -13.395       20.761       22.548       16.068      431.038      508.404      258.182        0.521        0.060       95.107       11.354        0.014      329.746       -3.323      859.700
02/04/2014  07:25:00      -71.541       22.861      -12.380       23.726       16.040       14.163      562.900      257.291      200.589        0.341        0.051       75.105        9.110        0.015      329.748       -3.319      859.709
02/04/2014  07:26:00      -87.106        7.607      -13.776       30.304       18.383       16.102      918.340      337.953      259.290        0.468        0.076       87.437       14.907        0.029      329.785       -3.259      859.712
02/04/2014  07:27:00      -95.626        0.439      -11.961       26.972       19.302       17.065      727.467      372.583      291.209        0.534        0.070       95.627        9.097        0.009      329.708       -3.385      859.723
02/04/2014  07:28:00      -93.760       -1.017      -15.844       33.519       20.242       18.078     1123.494      409.757      326.824        0.545        0.093       93.766       13.036        0.019      329.567       -3.616      859.727
02/04/2014  07:29:00     -100.224      -13.050       -5.489       37.003       30.204       16.792     1369.225      912.255      281.972        0.640        0.128      101.070       15.806        0.024      329.459       -3.793      859.737
02/04/2014  07:30:00     -102.784      -18.393       -0.784       37.088       23.383       23.670     1375.510      546.752      560.282        0.669        0.124      104.416       22.598        0.047      329.440       -3.823      859.741
02/04/2014  07:31:00      -90.352      -16.238        0.469       41.864       33.780       20.689     1752.612     1141.091      428.050        0.587        0.166       91.799       21.047        0.053      329.471       -3.773      859.757
02/04/2014  07:32:00     -118.832       -5.483       -3.558       41.251       25.290       20.670     1701.634      639.582      427.251        0.847        0.138      118.958       20.733        0.030      329.455       -3.800      859.772
02/04/2014  07:33:00     -125.445       -4.425       -5.359       42.627       22.480       18.065     1817.037      505.350      326.334        0.922        0.132      125.523       15.228        0.015      329.509       -3.711      859.783
02/04/2014  07:34:00     -136.522        0.829       -5.703       45.596       24.963       25.022     2079.026      623.158      626.117        1.100        0.166      136.525       27.143        0.040      329.485       -3.751      859.786
02/04/2014  07:35:00     -110.968       -0.001       -2.553       45.097       39.777       27.906     2033.728     1582.241      778.770        0.836        0.220      110.968       29.185        0.069      329.469       -3.775      859.786
02/04/2014  07:36:00      -97.526       -3.107       -2.479       39.585       26.355       23.502     1566.940      694.575      552.332        0.617        0.141       97.576       24.896        0.065      329.424       -3.850      859.791
02/04/2014  07:37:00      -70.106      -12.631        0.325       33.968       27.887       21.792     1153.835      777.674      474.909        0.374        0.120       71.235       19.741        0.077      329.443       -3.820      859.801
02/04/2014  07:38:00     -103.637       -6.406       -6.772       24.726       24.510       17.866      611.395      600.747      319.192        0.618        0.077      103.835       14.433        0.019      329.459       -3.792      859.817
02/04/2014  07:39:00     -100.166       -0.628       -2.485       34.779       22.165       23.338     1209.566      491.300      544.676        0.614        0.112      100.168       22.916        0.052      329.437       -3.829      859.835
02/04/2014  07:40:00      -58.595      -10.867        2.570       25.095       19.125       15.326      629.769      365.776      234.892        0.239        0.062       59.594       15.920        0.071      329.464       -3.785      859.843
02/04/2014  07:41:00     -100.752       -1.088       -6.554       24.874       24.186       19.747      618.695      584.973      389.956        0.589        0.080      100.758       17.831        0.031      329.498       -3.728      859.862
02/04/2014  07:42:00      -91.765      -13.616       -5.926       26.421       21.219       13.184      698.071      450.263      173.809        0.498        0.066       92.770       12.475        0.018      329.528       -3.678      859.885
02/04/2014  07:43:00      -88.703      -11.906       -8.467       25.456       22.271       14.476      648.019      495.984      209.554        0.472        0.068       89.498       11.564        0.017      329.600       -3.563      859.905
02/04/2014  07:44:00     -107.492      -27.100       -9.781       27.209       22.722       21.752      740.317      516.276      473.137        0.706        0.086      110.855       17.588        0.025      329.596       -3.568      859.910
02/04/2014  07:45:00     -109.420      -24.131      -13.649       34.281       23.220       20.208     1175.171      539.182      408.364        0.743        0.106      112.049       18.105        0.026      329.577       -3.600      859.908
02/04/2014  07:46:00      -99.446      -42.771      -10.003       20.234       21.816       17.169      409.433      475.959      294.791        0.650        0.059      108.253        7.390        0.005      329.672       -3.443      859.896
02/04/2014  07:47:00      -95.593        1.460      -11.692       15.085       22.108       13.281      227.550      488.742      176.385        0.508        0.045       95.604        6.435        0.005      329.654       -3.474      859.900
02/04/2014  07:48:00      -99.709      -14.657      -10.701       22.035       24.542       14.442      485.534      602.302      208.574        0.578        0.065      100.781       10.372        0.011      329.714       -3.375      859.908
02/04/2014  07:49:00      -79.667       -9.231       -9.810       32.535       35.617       17.934     1058.554     1268.558      321.639        0.459        0.132       80.200        5.840        0.005      329.688       -3.419      859.916
02/04/2014  07:50:00     -135.281       15.715      -12.594       38.119       33.509       20.532     1453.096     1122.873      421.551        1.085        0.150      136.190       11.388        0.007      329.660       -3.463      859.921
02/04/2014  07:51:00     -128.343        4.731       -8.397       43.493       29.587       24.105     1891.608      875.395      581.027        0.996        0.167      128.430       22.264        0.030      329.672       -3.445      859.940
02/04/2014  07:52:00     -133.488       14.581      -13.982       32.174       22.374       13.187     1035.143      500.602      173.895        0.997        0.085      134.282        9.354        0.005      329.687       -3.419      859.954
02/04/2014  07:53:00     -104.091        4.137       -8.363       39.542       27.387       17.398     1563.583      750.020      302.684        0.677        0.131      104.174       17.968        0.030      329.763       -3.296      859.970
02/04/2014  07:54:00     -125.421       12.903       -4.353       31.664       23.850       16.642     1002.579      568.845      276.950        0.888        0.092      126.083       17.198        0.019      329.794       -3.246      859.989
02/04/2014  07:55:00     -124.530        2.313      -14.899       23.594       26.410       18.272      556.661      697.475      333.848        0.866        0.079      124.552       16.192        0.017      329.837       -3.174      859.993
02/04/2014  07:56:00     -106.382       -6.315       -8.283       29.387       28.967       20.143      863.608      839.093      405.737        0.677        0.105      106.570       15.705        0.022      329.888       -3.092      860.006
02/04/2014  07:57:00     -125.970      -22.511      -14.657       25.653       28.939       15.209      658.062      837.478      231.317        0.916        0.086      127.966       12.393        0.009      329.878       -3.108      860.020
02/04/2014  07:58:00     -118.653        6.781      -13.532       51.872       21.035       15.683     2690.718      442.481      245.945        0.884        0.169      118.847       15.693        0.017      329.873       -3.115      860.041
02/04/2014  07:59:00     -128.866       20.092      -16.393       44.703       25.060       19.030     1998.336      628.025      362.152        1.013        0.149      130.423       16.508        0.016      329.876       -3.110      860.054
02/04/2014  08:00:00     -101.804       27.197       -7.904       43.977       27.365       20.333     1933.942      748.854      413.448        0.713        0.155      105.374       19.419        0.034      329.898       -3.075      860.065
02/04/2014  08:01:00     -101.941       41.358      -12.138       40.845       29.144       21.230     1668.295      849.394      450.731        0.761        0.148      110.012       17.378        0.025      329.934       -3.016      860.070
02/04/2014  08:02:00     -124.885       23.122      -13.462       31.267       22.981       18.370      977.655      528.124      337.463        0.908        0.092      127.007       14.017        0.012      329.943       -3.001      860.081
02/04/2014  08:03:00     -109.619       11.537       -9.428       33.564       26.770       16.505     1126.561      716.609      272.424        0.718        0.106      110.225       13.115        0.014      329.975       -2.947      860.085
02/04/2014  08:04:00     -106.334       -6.581      -11.859       30.622       24.090       13.446      937.695      580.328      180.792        0.659        0.085      106.538       10.615        0.010      329.998       -2.911      860.096
02/04/2014  08:05:00     -119.470        4.004      -10.094       27.355       25.437       19.211      748.308      647.062      369.081        0.808        0.088      119.537       15.981        0.018      330.031       -2.856      860.112
02/04/2014  08:06:00     -109.714        8.690      -15.348       29.246       22.437       14.418      855.305      503.397      207.872        0.696        0.078      110.057        9.975        0.008      330.044       -2.834      860.121
02/04/2014  08:07:00     -123.225       18.236       -6.808       24.085       18.999       10.100      580.073      360.952      102.012        0.830        0.052      124.567        6.653        0.003      330.099       -2.745      860.130
02/04/2014  08:08:00      -81.150       -5.900      -14.353       15.638       15.478       12.063      244.541      239.569      145.507        0.373        0.031       81.364        6.439        0.006      330.170       -2.630      860.129
02/04/2014  08:09:00      -81.256        6.809      -10.596       18.792       17.128       14.455      353.123      293.359      208.960        0.381        0.043       81.540       12.362        0.023      330.182       -2.610      860.131
02/04/2014  08:10:00      -63.419       13.703       -9.572       23.882       17.006       13.904      570.373      289.221      193.310        0.268        0.053       64.883       10.651        0.027      330.237       -2.518      860.138
02/04/2014  08:11:00      -78.966       -4.990        0.761       26.018       22.348       16.579      676.919      499.443      274.859        0.386        0.073       79.123       12.945        0.027      330.294       -2.425      860.145
02/04/2014  08:12:00      -60.124       10.792       -5.466       19.560       21.499       15.494      382.578      462.219      240.062        0.242        0.054       61.085       13.339        0.048      330.351       -2.331      860.154
02/04/2014  08:13:00      -52.505       -2.680       -8.801       19.809       12.130       10.091      392.381      147.141      101.819        0.174        0.032       52.573       10.061        0.037      330.449       -2.171      860.170
02/04/2014  08:14:00      -63.545       -5.883       -8.329       21.513       21.561       12.746      462.813      464.867      162.458        0.262        0.055       63.817        9.415        0.022      330.469       -2.137      860.187
02/04/2014  08:15:00      -53.586      -17.566       -4.933       18.345       15.795       11.405      336.526      249.495      130.080        0.196        0.036       56.391        7.937        0.020      330.508       -2.076      860.202
02/04/2014  08:16:00      -42.654      -43.046       -4.537       22.211       22.255       12.370      493.343      495.284      153.019        0.242        0.057       60.600        7.925        0.017      330.577       -1.961      860.225
02/04/2014  08:17:00      -47.814      -49.513       -1.332       36.410       28.805       21.277     1325.700      829.725      452.698        0.367        0.130       68.831       26.660        0.150      330.624       -1.885      860.236
02/04/2014  08:18:00      -61.168      -30.722       -2.659       21.440       14.421        7.621      459.652      207.977       58.084        0.271        0.036       68.450        4.846        0.005      330.595       -1.932      860.247
02/04/2014  08:19:00      -29.320      -39.714        4.918       27.914       28.913       16.484      779.192      835.948      271.708        0.217        0.094       49.364       17.833        0.131      330.785       -1.620      860.252
02/04/2014  08:20:00      -18.515      -62.301       -4.621       19.749       13.901       12.982      390.018      193.229      168.524        0.250        0.038       64.994        5.134        0.006      330.730       -1.710      860.262
02/04/2014  08:21:00      -48.549      -49.995       -3.813       27.932       25.191       15.100      780.195      634.596      228.014        0.326        0.082       69.688        4.388        0.004      330.741       -1.692      860.260
02/04/2014  08:22:00      -56.016      -25.327       -8.641        9.993       20.706       12.484       99.852      428.734      155.854        0.227        0.034       61.475        8.568        0.019      330.642       -1.855      860.258
02/04/2014  08:23:00      -69.644      -36.601      -10.689       10.480       30.133       10.456      109.825      907.983      109.327        0.372        0.056       78.676       12.677        0.026      330.657       -1.830      860.267
02/04/2014  08:24:00      -38.924      -21.396       -1.215       21.166       19.112       10.426      447.982      365.264      108.711        0.145        0.046       44.417       10.546        0.056      330.747       -1.682      860.264
02/04/2014  08:25:00      -20.316       -8.483        6.570       20.685       14.912       12.731      427.882      222.372      162.083        0.067        0.041       22.016       11.014        0.250      331.094       -1.113      860.259
02/04/2014  08:26:00      -23.647      -63.153        1.532       13.704       19.195       10.980      187.792      368.440      120.550        0.261        0.034       67.435       10.036        0.022      330.737       -1.699      860.267
02/04/2014  08:27:00      -18.991      -36.875       -5.544       11.269        8.344       10.872      126.983       69.616      118.206        0.103        0.016       41.478        5.630        0.018      330.764       -1.655      860.274
02/04/2014  08:28:00      -33.008      -17.911      -12.884       13.246       16.230       10.696      175.452      263.418      114.412        0.106        0.028       37.554        7.501        0.040      330.863       -1.492      860.279
02/04/2014  08:29:00      -21.246      -39.877       -3.735       19.736       27.186       12.155      389.527      739.091      147.741        0.167        0.064       45.184        9.274        0.042      331.002       -1.263      860.273
02/04/2014  08:30:00       -4.476      -55.361       -5.916       27.856       33.291       20.182      775.970     1108.307      407.296        0.271        0.115       55.542       20.070        0.131      331.086       -1.126      860.269
02/04/2014  08:31:00      -42.492      -21.486        6.061       32.098       28.049       21.682     1030.285      786.724      470.110        0.230        0.114       47.615       20.533        0.186      331.162       -1.000      860.276
02/04/2014  08:32:00      -70.711      -25.368       -1.662       37.286       33.817       17.700     1390.272     1143.559      313.292        0.425        0.142       75.124       14.016        0.035      330.905       -1.421      860.290
02/04/2014  08:33:00      -46.509      -39.348        3.563       24.378       28.749       16.477      594.265      826.491      271.491        0.271        0.085       60.921       15.384        0.064      330.934       -1.374      860.302
02/04/2014  08:34:00      -33.916      -15.920       -1.372       21.703       23.681       14.246      471.010      560.772      202.961        0.132        0.062       37.466        8.505        0.052      331.072       -1.148      860.320
02/04/2014  08:35:00       -8.837      -91.949        2.432       14.217       24.196       18.401      202.113      585.440      338.591        0.483        0.056       92.373        4.886        0.003      330.973       -1.311      860.341
02/04/2014  08:36:00      -32.371      -89.462       -2.329       18.499       29.608       19.331      342.197      876.641      373.701        0.532        0.080       95.139       13.559        0.020      331.044       -1.194      860.363
02/04/2014  08:37:00      -34.040      -71.897       -2.781       29.852       23.303       28.229      891.146      543.007      796.897        0.428        0.112       79.548       22.304        0.079      331.222       -0.901      860.372
02/04/2014  08:38:00      -66.569      -43.318       -1.170       14.221       16.269       12.434      202.230      264.679      154.608        0.347        0.031       79.422        8.106        0.010      330.970       -1.316      860.378
02/04/2014  08:39:00      -30.935       -2.107       -0.826       22.101       17.938       15.369      488.452      321.757      236.210        0.100        0.052       31.006       15.240        0.242      331.199       -0.940      860.387
02/04/2014  08:40:00      -17.794        1.477       12.092       17.186        8.794       14.530      295.346       77.333      211.109        0.052        0.029       17.855       13.058        0.535      331.793        0.039      860.394
02/04/2014  08:41:00      -49.026      -12.053       -6.107       20.017       20.591       12.136      400.698      423.998      147.272        0.178        0.049       50.486       10.398        0.042      331.136       -1.043      860.401
02/04/2014  08:42:00      -22.353       -6.247        3.433       20.537       14.061       14.466      421.770      197.699      209.279        0.069        0.041       23.210        9.207        0.157      331.461       -0.508      860.419
02/04/2014  08:43:00       -2.464      -21.089       -0.941       27.727       26.424       19.313      768.791      698.202      373.008        0.115        0.092       21.232       10.659        0.252      331.447       -0.533      860.430
02/04/2014  08:44:00      -18.833      -29.190        8.595       23.465       25.694       17.053      550.584      660.197      290.808        0.139        0.075       34.738       16.832        0.235      331.462       -0.508      860.430
02/04/2014  08:45:00      -28.902      -48.961        2.011       38.205       29.573       16.154     1459.604      874.564      260.960        0.292        0.130       56.855       12.882        0.051      331.198       -0.942      860.429
02/04/2014  08:46:00      -29.446      -39.175       -8.185       24.155       17.597       17.024      583.477      309.653      289.815        0.183        0.059       49.008        7.953        0.026      331.236       -0.879      860.429
02/04/2014  08:47:00      -18.499       -4.536       10.136       29.505       29.449       17.970      870.564      867.232      322.933        0.126        0.103       19.047       19.974        1.100      331.605       -0.272      860.433
02/04/2014  08:48:00      -32.268      -10.358       10.683       18.636       23.659       16.540      347.304      559.754      273.564        0.122        0.059       33.890       12.379        0.133      331.402       -0.606      860.436
02/04/2014  08:49:00       -5.832        4.466        8.530       19.353       20.193       14.918      374.554      407.772      222.559        0.057        0.050        7.345       11.280        2.358      331.604       -0.272      860.441
02/04/2014  08:50:00      -30.527      -22.597       -0.637       24.738       16.317       17.069      611.985      266.229      291.368        0.131        0.058       37.981       13.136        0.120      331.300       -0.773      860.435
02/04/2014  08:51:00      -36.893      -29.956        1.923       23.011       25.434       13.955      529.528      646.894      194.730        0.182        0.069       47.523       11.749        0.061      331.197       -0.944      860.437
02/04/2014  08:52:00      -43.170      -18.954       -0.188       21.952       26.442       14.018      481.878      699.157      196.515        0.180        0.069       47.148       10.828        0.053      331.198       -0.942      860.435
02/04/2014  08:53:00      -30.049       -6.139        7.925       29.317       18.739       20.678      859.501      351.132      427.581        0.132        0.082       30.669       20.438        0.444      331.549       -0.364      860.446
02/04/2014  08:54:00      -30.735       -5.308        6.820       26.308       13.523       13.194      692.098      182.860      174.077        0.103        0.052       31.190       12.701        0.166      331.503       -0.439      860.459
02/04/2014  08:55:00       -8.270       22.277       51.063       15.684       24.696       24.746      245.974      609.908      612.355        0.232        0.073       23.762       14.928        0.395      332.235        0.768      860.469
02/04/2014  08:56:00        8.156       28.712       54.391       28.541       28.995       29.037      814.610      840.685      843.134        0.317        0.125       29.848       20.638        0.478      331.731       -0.065      860.471
02/04/2014  08:57:00        6.516       25.414       36.539       17.489       21.254       17.741      305.876      451.753      314.754        0.155        0.054       26.236       11.523        0.193      331.733       -0.060      860.473
02/04/2014  08:58:00       -7.502       22.635       47.531       13.560       21.644       24.020      183.874      468.480      576.960        0.203        0.061       23.846       14.126        0.351      332.026        0.421      860.480
02/04/2014  08:59:00        9.402       -2.463       35.407       20.332       26.745       18.848      413.387      715.318      355.232        0.142        0.074        9.719       19.735        4.123      332.056        0.470      860.491
02/04/2014  09:00:00       29.048       27.754        0.800       23.061       18.060       22.981      531.819      326.159      528.147        0.150        0.069       40.176       10.942        0.074      331.672       -0.161      860.496
02/04/2014  09:01:00       37.582       37.479       27.658       32.728       31.290       34.417     1071.113      979.049     1184.516        0.341        0.162       53.076       13.841        0.068      331.718       -0.085      860.495
02/04/2014  09:02:00       18.192       50.618       59.592       39.004       41.867       41.559     1521.306     1752.832     1727.142        0.572        0.250       53.788       32.080        0.356      331.640       -0.214      860.496
02/04/2014  09:03:00       -5.967       61.519       87.264       22.903       43.874       25.576      524.550     1924.930      654.122        0.727        0.155       61.808       20.872        0.114      331.766       -0.007      860.503
02/04/2014  09:04:00       59.242       87.008       68.766       31.650       19.477       18.733     1001.750      379.356      350.934        0.877        0.087      105.261       13.189        0.016      331.381       -0.640      860.520
02/04/2014  09:05:00       69.399       79.396       49.772       29.226       25.970       32.738      854.176      674.453     1071.808        0.810        0.130      105.451        8.832        0.007      331.439       -0.545      860.525
02/04/2014  09:06:00       25.165       20.544        1.323       20.238       30.129       21.368      409.589      907.779      456.591        0.142        0.089       32.486        9.319        0.082      331.588       -0.299      860.532
02/04/2014  09:07:00       25.568       45.955       59.314       30.952       35.176       24.314      958.001     1237.366      591.193        0.453        0.139       52.589       16.110        0.094      331.899        0.213      860.534
02/04/2014  09:08:00       30.981       54.235       71.431       41.195       38.156       24.472     1697.003     1455.897      598.872        0.638        0.188       62.460       24.593        0.155      331.776        0.010      860.533
02/04/2014  09:09:00       33.670       18.931       55.562       43.724       48.727       40.337     1911.799     2374.313     1627.070        0.525        0.296       38.627       26.961        0.487      332.002        0.382      860.535
02/04/2014  09:10:00       94.822      -18.312       31.167       54.221       42.978       40.664     2939.933     1847.111     1653.524        0.837        0.322       96.574       38.025        0.155      331.757       -0.022      860.548
02/04/2014  09:11:00       26.884       95.805      115.049       41.273       44.843       25.546     1703.478     2010.887      652.621        1.375        0.218       99.505       28.076        0.080      331.599       -0.281      860.550
02/04/2014  09:12:00       75.321       93.152       91.353       24.763       38.757       27.286      613.208     1502.125      744.532        1.278        0.143      119.794       26.593        0.049      331.568       -0.334      860.561
02/04/2014  09:13:00       64.838       30.330       18.646       35.006       35.299       33.129     1225.418     1246.001     1097.518        0.452        0.178       71.581       25.042        0.122      331.712       -0.095      860.563
02/04/2014  09:14:00       79.140       41.511        2.824       29.424       30.194       25.008      865.748      911.656      625.383        0.520        0.120       89.366       13.849        0.024      331.554       -0.356      860.568
02/04/2014  09:15:00       30.917       33.097       -5.193       31.433       24.373       18.688      988.060      594.063      349.226        0.200        0.097       45.291       19.333        0.182      331.571       -0.327      860.573
02/04/2014  09:16:00       73.638       31.485        6.072       32.910       27.192       24.687     1083.046      739.425      609.461        0.444        0.122       80.087       11.277        0.020      331.695       -0.122      860.577
02/04/2014  09:17:00       12.868       51.372       76.642       30.333       54.561       37.351      920.103     2976.905     1395.091        0.698        0.265       52.959       35.992        0.462      332.230        0.756      860.582
02/04/2014  09:18:00       86.761       73.841       49.135       58.942       39.742       43.572     3474.175     1579.462     1898.488        1.117        0.348      113.929       37.160        0.106      331.795        0.041      860.586
02/04/2014  09:19:00       12.559      -15.878       42.595       30.743       57.580       44.529      945.138     3315.502     1982.803        0.423        0.312       20.245       22.985        1.289      332.112        0.563      860.597
02/04/2014  09:20:00       11.466       31.961       71.110       35.480       58.097       32.148     1258.821     3375.240     1033.515        0.594        0.283       33.955       25.696        0.573      332.024        0.419      860.605
02/04/2014  09:21:00       53.475       35.412       36.366       58.469       35.729       36.328     3418.616     1276.594     1319.750        0.572        0.301       64.137       34.723        0.293      332.077        0.505      860.621
02/04/2014  09:22:00       70.980       66.706       18.197       58.601       34.161       35.530     3434.022     1166.972     1262.392        0.784        0.293       97.406       22.648        0.054      331.920        0.246      860.628
02/04/2014  09:23:00       44.919       57.709       11.702       46.905       35.714       34.071     2200.049     1275.483     1160.866        0.506        0.232       73.130       24.138        0.109      331.832        0.101      860.633
02/04/2014  09:24:00       59.209       83.468        0.905       43.581       57.446       37.916     1899.345     3299.989     1437.639        0.855        0.332      102.335       30.373        0.088      331.825        0.091      860.641
02/04/2014  09:25:00       62.838       84.866       72.764       61.082       48.352       50.876     3730.988     2337.937     2588.373        1.255        0.433      105.597       36.788        0.121      332.006        0.388      860.649
02/04/2014  09:26:00      103.483       91.907       77.348       68.524       55.757       57.594     4695.570     3108.813     3317.061        1.813        0.556      138.404       46.055        0.111      331.778        0.013      860.664
02/04/2014  09:27:00      117.183       85.249       10.808       36.891       28.287       40.301     1360.914      800.144     1624.159        1.245        0.189      144.911       19.198        0.018      331.742       -0.046      860.679
02/04/2014  09:28:00       66.266       55.482       29.746       30.051       24.354       27.007      903.044      593.139      729.377        0.529        0.111       86.426       15.552        0.032      331.920        0.246      860.692
02/04/2014  09:29:00       21.129       25.705        6.119       20.790       21.025       19.625      432.219      442.031      385.144        0.120        0.063       33.274       14.631        0.193      332.139        0.607      860.684
02/04/2014  09:30:00       13.105       54.231        7.787       27.495       31.057       27.783      755.957      964.545      771.920        0.283        0.125       55.792       18.793        0.113      332.456        1.130      860.682
02/04/2014  09:31:00       37.772       58.084        2.626       48.414       36.204       23.770     2343.960     1310.734      565.018        0.451        0.211       69.285       16.288        0.055      332.386        1.014      860.685
02/04/2014  09:32:00       80.407       38.765       20.527       67.969       47.649       36.728     4619.773     2270.468     1348.963        0.831        0.412       89.264       33.188        0.138      332.234        0.764      860.684
02/04/2014  09:33:00        3.600       34.529       60.335       32.301       37.135       39.164     1043.338     1378.974     1533.845        0.440        0.198       34.717       27.393        0.623      332.560        1.303      860.682
02/04/2014  09:34:00       17.053       55.560       11.296       32.605       50.106       34.090     1063.105     2510.619     1162.103        0.412        0.237       58.118       26.600        0.209      332.364        0.978      860.676
02/04/2014  09:35:00       36.420       80.287       64.163       35.294       38.617       41.029     1245.672     1491.267     1683.366        0.815        0.221       88.161       18.880        0.046      332.041        0.445      860.675
02/04/2014  09:36:00       66.177      102.366       77.196       56.521       36.397       37.343     3194.659     1324.735     1394.521        1.336        0.296      121.894       29.898        0.060      331.777        0.012      860.685
02/04/2014  09:37:00      126.422       99.138       47.101       35.609       32.714       45.257     1268.002     1070.194     2048.226        1.621        0.219      160.657       30.373        0.036      331.617       -0.252      860.694
02/04/2014  09:38:00      141.141       99.001       58.344       38.030       37.886       46.577     1446.244     1435.367     2169.393        1.909        0.253      172.400       23.891        0.019      331.750       -0.034      860.694
02/04/2014  09:39:00       73.081       83.828       62.499       57.430       42.007       54.629     3298.164     1764.604     2984.320        1.216        0.402      111.211       48.439        0.190      332.015        0.403      860.706
02/04/2014  09:40:00       54.367       32.543       30.979       31.023       28.751       19.260      962.433      826.608      370.931        0.357        0.108       63.362       12.374        0.038      331.797        0.043      860.711
02/04/2014  09:41:00      133.623      104.900       43.046       38.085       32.217       41.065     1450.437     1037.941     1686.312        1.744        0.209      169.880        8.529        0.003      331.674       -0.159      860.706
02/04/2014  09:42:00       86.000      108.281       95.579       52.645       50.634       44.091     2771.459     2563.851     1943.985        1.777        0.364      138.278       32.417        0.055      331.891        0.199      860.691
02/04/2014  09:43:00       42.724       86.419       85.064       51.052       37.569       37.497     2606.264     1411.394     1406.038        1.098        0.271       96.404       29.565        0.094      331.912        0.234      860.698
02/04/2014  09:44:00       66.367       94.328       73.383       80.577       49.339       62.128     6492.700     2434.367     3859.925        1.574        0.639      115.336       60.282        0.273      332.090        0.526      860.699
02/04/2014  09:45:00       10.235       91.902       97.861       33.732       50.844       34.535     1137.817     2585.084     1192.654        1.152        0.246       92.470       28.384        0.094      332.449        1.119      860.697
02/04/2014  09:46:00       63.159      111.148      103.361      103.900       47.716       67.605    10795.232     2276.778     4570.445        2.233        0.882      127.840       70.573        0.305      332.091        0.528      860.705
02/04/2014  09:47:00       79.629       88.234       64.908       56.781       29.918       41.126     3224.095      895.099     1691.337        1.207        0.291      118.853       31.428        0.070      331.797        0.043      860.725
02/04/2014  09:48:00      105.894       76.945       39.897       47.543       45.315       42.889     2260.376     2053.465     1839.482        1.244        0.308      130.897       32.406        0.061      331.841        0.115      860.725
02/04/2014  09:49:00       73.634       56.994       15.951       53.342       37.440       28.188     2845.376     1401.721      794.548        0.698        0.252       93.114       29.028        0.097      331.811        0.066      860.730
02/04/2014  09:50:00       71.749       76.120        2.241       38.659       32.496       30.934     1494.556     1055.995      956.932        0.723        0.175      104.605       20.884        0.040      331.963        0.317      860.717
02/04/2014  09:51:00      129.314       98.503       22.077       36.424       18.940       27.478     1326.673      358.738      755.014        1.468        0.122      162.557       12.579        0.006      331.904        0.220      860.705
02/04/2014  09:52:00       19.899       39.764        7.324       41.776       31.487       29.705     1745.239      991.422      882.375        0.282        0.181       44.465       23.536        0.280      332.474        1.160      860.706
02/04/2014  09:53:00       36.261       65.498       10.830       49.146       38.728       33.147     2415.322     1499.877     1098.726        0.537        0.251       74.865       27.864        0.139      332.573        1.323      860.721
02/04/2014  09:54:00       15.542       32.600       64.999       43.833       49.839       26.982     1921.312     2483.936      728.029        0.533        0.257       36.115       22.309        0.382      332.848        1.778      860.730
02/04/2014  09:55:00       29.071      -12.533       37.400       36.339       86.027       45.893     1320.555     7400.665     2106.174        0.661        0.541       31.657       54.110        2.921      332.718        1.562      860.723
02/04/2014  09:56:00       48.679       96.075       90.890       58.578       45.802       37.316     3431.429     2097.840     1392.460        1.339        0.346      107.704       29.109        0.073      332.656        1.461      860.730
02/04/2014  09:57:00       21.264      -17.547       42.146       45.197       94.293       46.117     2042.764     8891.110     2126.758        0.780        0.653       27.569       56.625        4.219      332.687        1.511      860.725
02/04/2014  09:58:00       61.312      -14.357       26.494       62.562       82.572       62.230     3914.055     6818.143     3872.596        0.963        0.730       62.971       69.023        1.201      332.574        1.326      860.734
02/04/2014  09:59:00       63.575       28.840       54.361       52.244       37.072       35.704     2729.485     1374.300     1274.757        0.660        0.269       69.810       33.283        0.227      332.264        0.813      860.737
02/04/2014  10:00:00        6.264       39.509       54.278       45.026       45.183       22.801     2027.338     2041.467      519.879        0.457        0.229       40.003       11.438        0.082      332.567        1.314      860.739
02/04/2014  10:01:00      -29.581      -50.341       36.028       27.846       51.768       36.156      775.376     2679.951     1307.263        0.473        0.238       58.389       27.047        0.215      332.578        1.332      860.731
02/04/2014  10:02:00      -16.532      -51.266        5.644       48.194       42.043       36.565     2322.689     1767.619     1337.024        0.418        0.271       53.865       24.435        0.206      332.495        1.194      860.730
02/04/2014  10:03:00       22.197       64.521      102.512       44.607       66.969       52.776     1989.771     4484.845     2785.286        1.221        0.463       68.232       47.336        0.481      332.428        1.085      860.715
02/04/2014  10:04:00       64.394      -86.245       -9.534       65.849       63.432       56.372     4336.083     4023.591     3177.757        1.160        0.577      107.633       39.523        0.135      332.319        0.904      860.718
02/04/2014  10:05:00       20.439      -43.455       20.302       48.171       67.790       37.696     2320.476     4595.423     1421.017        0.553        0.417       48.021       41.085        0.732      332.584        1.341      860.721
02/04/2014  10:06:00        9.076       11.647       58.784       33.253       45.885       30.926     1105.740     2105.405      956.438        0.392        0.208       14.766       21.929        2.206      332.627        1.413      860.709
02/04/2014  10:07:00       -3.528       14.030       60.992       32.921       73.330       60.297     1083.817     5377.331     3635.683        0.701        0.505       14.467       60.407       17.434      332.566        1.312      860.710
02/04/2014  10:08:00       60.473      -74.937        0.041       59.898       51.573       48.094     3587.742     2659.734     2313.062        0.892        0.428       96.294       44.735        0.216      332.422        1.073      860.713
02/04/2014  10:09:00        0.802      -41.444       12.435       60.941       55.211       39.912     3713.799     3048.208     1592.991        0.511        0.418       41.451       31.574        0.580      332.467        1.148      860.723
02/04/2014  10:10:00      -27.291      -14.990       17.661       44.229       34.601       29.300     1956.241     1197.213      858.464        0.265        0.201       31.137       33.505        1.158      332.613        1.390      860.736
02/04/2014  10:11:00       14.344       16.108       17.696       17.017       30.136       24.122      289.564      908.195      581.892        0.128        0.089       21.569       15.537        0.519      332.852        1.784      860.736
02/04/2014  10:12:00       38.936       35.413       29.059       53.420       39.513       35.381     2853.738     1561.315     1251.832        0.464        0.283       52.631       22.873        0.189      332.977        1.991      860.753
02/04/2014  10:13:00       65.868       43.819       29.934       62.053       33.813       39.303     3850.579     1143.327     1544.746        0.685        0.327       79.112       34.347        0.188      332.575        1.326      860.743
02/04/2014  10:14:00       71.480       87.982       88.676       73.402       50.196       62.385     5387.800     2519.647     3891.851        1.625        0.590      113.359       51.422        0.206      332.452        1.124      860.744
02/04/2014  10:15:00      124.138      145.529      107.124       63.392       44.639       46.233     4018.546     1992.650     2137.497        2.811        0.407      191.282       25.971        0.018      332.082        0.511      860.735
02/04/2014  10:16:00       64.406       51.493       52.445       56.935       46.445       43.918     3241.616     2157.105     1928.812        0.844        0.366       82.460       36.952        0.201      332.637        1.429      860.745
02/04/2014  10:17:00      129.857      104.895       46.841       62.321       61.441       73.190     3883.904     3774.965     5356.806        2.154        0.651      166.931       48.450        0.084      332.516        1.228      860.746
02/04/2014  10:18:00      140.087       96.342       36.646       72.960       50.845       54.874     5323.214     2585.264     3011.117        2.058        0.546      170.018       39.043        0.053      332.267        0.817      860.769
02/04/2014  10:19:00       56.340       54.740       58.297       57.843       58.588       60.952     3345.821     3432.510     3715.108        1.003        0.525       78.554       42.452        0.292      332.721        1.567      860.762
02/04/2014  10:20:00      149.553      120.863       78.543       56.206       51.950       51.421     3159.058     2698.822     2644.073        2.582        0.425      192.285       40.549        0.044      332.175        0.664      860.763
02/04/2014  10:21:00      102.495      119.119       82.482       96.313       49.754       63.908     9276.287     2475.494     4084.192        2.366        0.792      157.145       67.637        0.185      332.165        0.649      860.760
02/04/2014  10:22:00       38.716       21.333       61.733       34.792       40.274       37.750     1210.509     1621.971     1425.051        0.501        0.213       44.205       30.407        0.473      332.318        0.902      860.785
02/04/2014  10:23:00       44.111      -59.412       15.834       33.014       67.950       31.297     1089.921     4617.201      979.473        0.621        0.334       73.997       28.539        0.149      332.453        1.126      860.791
02/04/2014  10:24:00      110.051      -42.479       25.849       68.924       67.545       56.674     4750.525     4562.278     3211.887        1.355        0.626      117.965       47.290        0.161      332.706        1.542      860.790
02/04/2014  10:25:00       29.754      -73.470       49.683       45.654      113.552       64.092     2084.264    12894.041     4107.772        1.392        0.954       79.266       76.915        0.942      332.380        1.003      860.800
02/04/2014  10:26:00       43.616      -66.838       26.092       66.865       94.820       56.527     4470.932     8990.772     3195.302        1.185        0.833       79.810       49.084        0.378      332.809        1.712      860.816
02/04/2014  10:27:00       96.602      -38.355       73.372       94.072      104.478       84.496     8849.605    10915.727     7139.506        2.154        1.345      103.938       86.486        0.692      332.735        1.590      860.824
02/04/2014  10:28:00       41.363       21.011       42.604       28.559       51.448       50.199      815.637     2646.884     2519.892        0.497        0.299       46.393       32.121        0.479      332.162        0.646      860.847
02/04/2014  10:29:00       36.667        2.741       61.651       49.475       79.355       53.484     2447.770     6297.137     2860.566        0.838        0.580       36.770       56.033        2.322      332.539        1.267      860.817
02/04/2014  10:30:00       27.147       24.455       67.241       28.419       91.894       39.013      807.613     8444.579     1521.987        0.831        0.539       36.538       50.447        1.906      332.665        1.476      860.816
02/04/2014  10:31:00       48.228      -20.224       49.143       66.017       99.724       57.577     4358.299     9944.821     3315.139        1.138        0.881       52.296       59.510        1.295      332.938        1.926      860.804
02/04/2014  10:32:00      140.936      109.993       54.607       50.750       40.544       47.257     2575.559     1643.780     2233.224        2.070        0.323      178.778       30.984        0.030      332.068        0.488      860.818
02/04/2014  10:33:00       30.408       42.615       13.745       33.517       40.912       26.021     1123.361     1673.782      677.083        0.320        0.174       52.352       18.569        0.126      332.533        1.257      860.842
02/04/2014  10:34:00       51.845       -6.001       24.230       58.280       51.218       29.700     3396.553     2623.305      882.109        0.511        0.345       52.191       23.336        0.200      332.812        1.719      860.829
02/04/2014  10:35:00       -6.824       46.160       58.172       25.229       38.791       34.171      636.494     1504.776     1167.643        0.443        0.165       46.662       27.193        0.340      333.060        2.130      860.812
02/04/2014  10:36:00       25.189       35.468       -4.437       30.925       33.106       23.520      956.368     1096.018      553.183        0.226        0.130       43.502       15.555        0.128      332.860        1.798      860.810
02/04/2014  10:37:00       18.147       38.753        4.792       30.725       37.823       24.417      943.999     1430.611      596.177        0.241        0.149       42.792       19.178        0.201      332.673        1.488      860.811
02/04/2014  10:38:00      -25.330        4.061       18.393       43.849       27.315       21.610     1922.709      746.116      467.004        0.207        0.157       25.654       15.618        0.371      332.999        2.026      860.814
02/04/2014  10:39:00       34.256       13.281       58.331       63.589       95.872       72.894     4043.574     9191.470     5313.512        1.165        0.927       36.740       73.059        3.954      332.740        1.599      860.834
02/04/2014  10:40:00       20.978       27.990       78.183       48.168       79.963       51.769     2320.189     6394.088     2680.050        0.936        0.570       34.979       52.874        2.285      332.773        1.653      860.827
02/04/2014  10:41:00       63.453      -13.819       74.909       74.720       96.659       62.860     5583.043     9342.987     3951.373        1.435        0.944       64.940       57.456        0.783      332.824        1.737      860.836
02/04/2014  10:42:00       58.214       33.126       55.489       51.142       87.456       43.432     2615.478     7648.482     1886.295        0.986        0.608       66.979       30.169        0.203      333.027        2.072      860.839
02/04/2014  10:43:00       67.083       62.848       43.689       74.283       50.265       58.984     5518.022     2526.554     3479.151        1.094        0.576       91.924       45.662        0.247      333.160        2.294      860.840
02/04/2014  10:44:00      221.613      125.249       31.847       77.611       74.730       59.571     6023.476     5584.637     3548.664        4.048        0.758      254.558       37.831        0.022      332.375        0.995      860.829
02/04/2014  10:45:00      213.143      130.128       25.820      100.623       64.117       53.204    10124.995     4110.961     2830.716        4.005        0.853      249.726       24.540        0.010      332.163        0.643      860.836
02/04/2014  10:46:00      142.089      128.387       99.809       83.522       73.348       69.747     6975.920     5379.981     4864.605        3.192        0.861      191.500       36.416        0.036      332.632        1.417      860.826
02/04/2014  10:47:00      170.224      108.089       43.904       68.290       64.452       53.561     4663.574     4154.010     2868.755        2.713        0.584      201.642       30.284        0.023      332.079        0.506      860.841
02/04/2014  10:48:00      128.952       85.941       23.617       61.116       40.171       46.307     3735.119     1613.705     2144.367        1.603        0.375      154.966       27.134        0.031      332.386        1.014      860.841
02/04/2014  10:49:00       66.757       13.667       67.749       78.184      105.948       48.561     6112.788    11225.011     2358.149        1.446        0.985       68.141       55.846        0.672      332.876        1.824      860.812
02/04/2014  10:50:00      134.659      125.184       76.367       53.433       51.634       56.104     2855.126     2666.116     3147.656        2.415        0.433      183.859       47.134        0.066      332.330        0.919      860.801
02/04/2014  10:51:00       27.341       21.201       31.640       61.305       63.232       42.178     3758.326     3998.260     1778.958        0.587        0.477       34.598       22.508        0.423      333.105        2.203      860.789
02/04/2014  10:52:00       90.665       97.356      111.391      114.797       86.550       70.007    13178.315     7490.878     4901.000        2.783        1.279      133.035       72.004        0.293      332.975        1.985      860.760
02/04/2014  10:53:00       83.229       39.232       98.519       90.110      107.500       65.137     8119.900    11556.336     4242.893        2.104        1.196       92.012       80.406        0.764      332.912        1.882      860.772
02/04/2014  10:54:00       82.393     -104.189       -5.212       60.256       95.958       38.179     3630.824     9207.984     1457.644        1.598        0.715      132.831       42.857        0.104      332.733        1.587      860.787
02/04/2014  10:55:00       24.393      -13.822       -9.222       27.077       32.119       27.798      733.138     1031.618      772.718        0.170        0.127       28.037       22.454        0.641      332.368        0.985      860.778
02/04/2014  10:56:00      -20.432      -10.958        9.028       44.714       42.196       31.245     1999.339     1780.483      976.250        0.269        0.238       23.185       11.992        0.268      332.496        1.197      860.738
02/04/2014  10:57:00       78.468       52.772       30.566       28.338       25.338       36.964      803.049      642.023     1366.355        0.634        0.141       94.563       17.468        0.034      332.630        1.418      860.717
02/04/2014  10:58:00       62.312       69.326       23.119       29.092       31.863       37.680      846.361     1015.265     1419.818        0.625        0.164       93.214       23.304        0.063      332.565        1.311      860.720
02/04/2014  10:59:00       32.634       74.261       77.334       61.441       43.016       42.116     3774.948     1850.345     1773.798        0.998        0.370       81.115       39.963        0.243      333.261        2.459      860.700
02/04/2014  11:00:00       52.658       74.159       72.222       78.055       61.948       70.337     6092.599     3837.560     4947.238        1.418        0.744       90.953       46.666        0.263      333.181        2.327      860.689
02/04/2014  11:01:00       92.348      107.310       89.202       97.541       80.781       75.339     9514.281     6525.600     5676.017        2.485        1.086      141.576       76.911        0.295      332.918        1.892      860.684
02/04/2014  11:02:00      116.889       15.916       89.244      134.132      130.367       84.539    17991.426    16995.663     7146.879        3.200        2.107      117.968      108.095        0.840      332.880        1.828      860.677
02/04/2014  11:03:00      105.354      -54.043       34.868       78.828       72.448       62.952     6213.899     5248.660     3962.941        1.533        0.771      118.407       54.149        0.209      332.861        1.798      860.664
02/04/2014  11:04:00      129.191       -7.906       47.847       80.469      102.187       57.291     6475.272    10442.178     3282.265        1.962        1.010      129.433       46.448        0.129      332.699        1.531      860.661
02/04/2014  11:05:00      155.142       94.481       29.687       59.105       39.543       55.769     3493.451     1563.652     3110.199        2.102        0.408      181.647       22.780        0.016      332.485        1.176      860.643
02/04/2014  11:06:00       55.252       91.710       96.960       60.274       62.025       53.005     3632.910     3847.142     2809.479        1.558        0.514      107.068       36.229        0.114      333.162        2.294      860.622
02/04/2014  11:07:00      106.457       99.504       55.195       72.821       60.448       53.340     5302.844     3654.005     2845.143        1.804        0.590      145.719       42.901        0.087      332.938        1.924      860.611
02/04/2014  11:08:00      131.641      103.031       82.310      104.945       79.037       69.279    11013.365     6246.841     4799.542        2.839        1.103      167.167       67.649        0.164      332.956        1.954      860.592
02/04/2014  11:09:00      210.581      125.536       54.117       83.292       62.180       77.133     6937.549     3866.310     5949.457        3.989        0.838      245.160       41.448        0.029      332.831        1.746      860.576
02/04/2014  11:10:00      138.206       76.566      122.364      122.036      147.781       81.809    14892.736    21839.108     6692.692        4.167        2.171      157.997       89.543        0.321      332.544        1.274      860.589
02/04/2014  11:11:00      128.315      114.471      100.693       98.909      106.560       83.136     9782.961    11355.060     6911.614        3.387        1.402      171.954       71.251        0.172      332.745        1.606      860.566
02/04/2014  11:12:00      121.637       99.252       78.957       88.998       84.071       63.261     7920.620     7067.916     4001.910        2.493        0.950      156.992       53.034        0.114      332.707        1.543      860.586
02/04/2014  11:13:00       73.056       56.819       71.513       76.011       78.557       53.295     5777.685     6171.128     2840.358        1.423        0.739       92.551       55.739        0.363      333.118        2.223      860.591
02/04/2014  11:14:00       81.514       97.773      102.516       91.176       67.143       67.106     8312.972     4508.182     4503.278        2.202        0.866      127.295       57.350        0.203      332.989        2.009      860.595
02/04/2014  11:15:00      122.641       35.613       -4.435       70.713       65.671       47.130     5000.282     4312.746     2221.199        1.393        0.577      127.707       25.631        0.040      332.914        1.885      860.592
02/04/2014  11:16:00      136.788      100.218       54.605       76.506       72.450       42.584     5853.216     5248.965     1813.423        2.232        0.646      169.572       28.341        0.028      333.017        2.053      860.590
02/04/2014  11:17:00       80.093       61.577        0.635       78.202       52.467       36.250     6115.480     2752.734     1314.064        1.019        0.509      101.028       21.863        0.047      332.789        1.680      860.594
02/04/2014  11:18:00       54.080      -87.317       -3.791       78.621      118.029       48.775     6181.289    13930.765     2379.036        1.652        1.125      102.708       49.625        0.233      333.172        2.312      860.581
02/04/2014  11:19:00      114.456     -233.980      -29.622       81.868       87.274       48.246     6702.412     7616.834     2327.679        4.268        0.832      260.475       41.987        0.026      332.703        1.535      860.576
02/04/2014  11:20:00       17.044      -99.609       -7.000       75.853       99.960       31.619     5753.712     9992.015      999.766        1.350        0.837      101.057       28.334        0.079      332.658        1.464      860.582
02/04/2014  11:21:00       -8.713       48.891       69.046       37.809       50.961       53.447     1429.529     2596.988     2856.541        0.706        0.344       49.661       37.970        0.585      333.341        2.591      860.574
02/04/2014  11:22:00       59.032     -118.330        5.431       82.087      108.574       56.333     6738.328    11788.330     3173.416        1.960        1.085      132.238       72.454        0.300      332.971        1.979      860.563
02/04/2014  11:23:00       52.788     -142.917      -14.029       85.028       83.453       41.471     7229.821     6964.355     1719.818        1.966        0.796      152.354       29.533        0.038      332.820        1.729      860.548
02/04/2014  11:24:00        7.784       52.667       78.538       40.595       93.418       66.111     1647.992     8726.904     4370.615        1.187        0.737       53.239       75.315        2.001      333.538        2.917      860.518
02/04/2014  11:25:00       -4.174       18.721       73.246       60.678      104.427       59.499     3681.864    10905.047     3540.129        1.193        0.906       19.181       69.154       12.999      333.222        2.396      860.504
02/04/2014  11:26:00       60.936      -80.779      -13.380       51.484       59.687       37.921     2650.557     3562.581     1437.981        0.903        0.383      101.186       34.997        0.120      332.960        1.963      860.488
02/04/2014  11:27:00       28.491      -52.787       17.255       37.122       60.222       33.619     1378.052     3626.681     1130.209        0.501        0.307       59.985       35.288        0.346      333.478        2.820      860.450
02/04/2014  11:28:00       64.601        2.375       75.902       70.291       96.555       50.554     4940.773     9322.909     2555.689        1.338        0.841       64.645       63.492        0.965      333.524        2.895      860.420
02/04/2014  11:29:00       49.394       68.070      108.561       73.653       87.209       44.033     5424.834     7605.468     1938.940        1.691        0.748       84.103       55.040        0.428      333.427        2.734      860.406
02/04/2014  11:30:00      133.376       30.744       60.212       81.347       65.753       61.286     6617.278     4323.448     3755.933        1.853        0.735      136.874       44.925        0.108      333.359        2.621      860.414
02/04/2014  11:31:00      161.047      148.543      126.267       92.832       78.032       80.211     8617.863     6089.065     6433.868        4.254        1.057      219.092       50.335        0.053      333.029        2.073      860.388
02/04/2014  11:32:00      162.549       83.305       40.191      103.143       79.347       80.989    10638.382     6295.934     6559.286        2.923        1.175      182.652       62.284        0.116      332.945        1.935      860.382
02/04/2014  11:33:00      113.324      200.495      174.915       89.424      120.275       84.460     7996.736    14466.059     7133.485        5.661        1.480      230.305       84.768        0.135      332.934        1.917      860.359
02/04/2014  11:34:00      131.061      125.768       92.508       91.925       65.009       73.649     8450.188     4226.116     5424.246        2.982        0.905      181.644       73.395        0.163      332.741        1.598      860.357
02/04/2014  11:35:00       60.459       99.185       48.316       70.606       64.690       71.479     4985.212     4184.841     5109.315        1.505        0.714      116.159       57.256        0.243      332.972        1.982      860.341
02/04/2014  11:36:00      110.149       86.122       17.875       60.152       80.961       46.649     3618.323     6554.725     2176.111        1.611        0.617      139.821       13.041        0.009      333.191        2.342      860.319
02/04/2014  11:37:00      135.043       93.306       51.392       95.913       59.856       57.802     9199.399     3582.724     3341.019        2.285        0.806      164.142       55.806        0.116      333.045        2.103      860.317
02/04/2014  11:38:00       51.439       34.727       71.934       66.059       91.953       54.659     4363.758     8455.416     2987.653        1.241        0.790       62.063       66.109        1.135      333.179        2.324      860.312
02/04/2014  11:39:00       75.385      -42.465       30.049       79.384       93.746       47.875     6301.855     8788.349     2292.002        1.288        0.869       86.522       38.732        0.200      333.279        2.490      860.305
02/04/2014  11:40:00       69.117      -46.388       44.799       53.076       89.047       55.048     2817.085     7929.386     3030.270        1.135        0.689       83.240       60.273        0.524      333.200        2.359      860.295
02/04/2014  11:41:00       69.872      -91.274       17.735       57.278      115.312       44.466     3280.783    13296.869     1977.254        1.604        0.928      114.948       53.554        0.217      333.323        2.562      860.281
02/04/2014  11:42:00      107.929      -58.049       34.695       81.946      127.672       80.456     6715.091    16300.176     6473.117        2.285        1.474      122.550       81.825        0.446      333.307        2.535      860.263
02/04/2014  11:43:00       29.009       78.258      124.894       57.111       87.547       65.487     3261.681     7664.459     4288.489        1.889        0.761       83.461       67.183        0.648      333.212        2.379      860.267
02/04/2014  11:44:00       92.118      -86.754       30.051       91.047      132.610       56.100     8289.617    17585.372     3147.176        2.296        1.451      126.538       79.952        0.399      333.247        2.435      860.262
02/04/2014  11:45:00       99.501      -75.233       32.340       75.456      119.889       58.260     5693.668    14373.403     3394.196        2.003        1.173      124.742       72.951        0.342      333.311        2.542      860.233
02/04/2014  11:46:00       95.640      -69.944       13.848       53.894      110.283       47.562     2904.577    12162.413     2262.101        1.578        0.866      118.487       58.956        0.248      333.288        2.503      860.203
02/04/2014  11:47:00      113.318      113.071       87.601       83.675       70.202       55.504     7001.581     4928.386     3080.737        2.415        0.751      160.081       40.356        0.064      333.291        2.509      860.191
02/04/2014  11:48:00      128.516      114.417      125.570      131.502      103.164       84.951    17292.890    10642.774     7216.719        4.026        1.758      172.069       84.806        0.243      333.150        2.273      860.172
02/04/2014  11:49:00      149.339       52.156       61.540       99.308       75.018       68.927     9862.177     5627.712     4750.882        2.452        1.012      158.185       72.994        0.213      333.047        2.106      860.176
02/04/2014  11:50:00       90.667      107.228      132.564       98.486       80.727       86.815     9699.524     6516.778     7536.840        3.052        1.188      140.422       66.978        0.228      333.376        2.649      860.148
02/04/2014  11:51:00      120.531      120.214      111.669      107.155       69.306       71.036    11482.173     4803.369     5046.103        3.139        1.067      170.233       67.610        0.158      332.945        1.935      860.138
02/04/2014  11:52:00      116.615      118.379       72.659       92.827       63.262       58.555     8616.844     4002.107     3428.634        2.447        0.802      166.170       48.385        0.085      332.949        1.944      860.114
02/04/2014  11:53:00      123.064      100.242       16.923       53.164       45.880       44.808     2826.422     2105.000     2007.764        1.621        0.347      158.724       29.191        0.034      332.882        1.832      860.110
02/04/2014  11:54:00       70.112       64.713        8.879       52.746       34.061       37.508     2782.142     1160.161     1406.882        0.726        0.267       95.412       24.730        0.067      333.579        2.986      860.090
02/04/2014  11:55:00      175.373      113.695       12.402       66.410       48.717       50.434     4410.305     2373.299     2543.602        2.658        0.466      209.003       30.340        0.021      332.959        1.959      860.062
02/04/2014  11:56:00      188.821      140.744       35.337       44.178       43.366       45.862     1951.685     1880.620     2103.326        3.132        0.297      235.504       18.924        0.006      332.788        1.674      860.037
02/04/2014  11:57:00      144.054      103.969       65.466       97.907       86.765       63.383     9585.876     7528.153     4017.403        2.849        1.057      177.655       60.585        0.116      333.135        2.249      859.991
02/04/2014  11:58:00      127.829      122.657      100.032      106.747       65.769       74.686    11394.869     4325.608     5578.007        3.134        1.065      177.158       73.819        0.174      333.094        2.182      859.973
02/04/2014  11:59:00       49.812       58.850       13.634       47.315       53.397       33.525     2238.726     2851.221     1123.921        0.617        0.311       77.101       22.595        0.086      333.078        2.158      859.974
02/04/2014  12:00:00       62.134       21.836        6.075       43.394       54.437       31.448     1883.002     2963.425      988.968        0.510        0.292       65.859       22.948        0.121      333.416        2.717      859.966
02/04/2014  12:01:00       51.088      -89.214       28.788       85.234      107.302       57.005     7264.782    11513.815     3249.557        1.671        1.101      102.806       65.845        0.410      333.527        2.899      859.926
02/04/2014  12:02:00       39.830       -7.925       82.609       61.736       69.527       41.080     3811.383     4833.952     1687.565        0.940        0.517       40.611       40.365        0.988      333.764        3.293      859.886
02/04/2014  12:03:00      116.846      -95.857       -3.202       76.975       68.063       54.623     5925.173     4632.513     2983.683        1.819        0.677      151.134       51.481        0.116      333.229        2.406      859.864
02/04/2014  12:04:00      104.657      -48.225       40.912       83.022      110.649       62.336     6892.669    12243.243     3885.728        1.898        1.151      115.233       70.872        0.378      333.421        2.722      859.843
02/04/2014  12:05:00      130.050       24.276       65.212      105.917      137.863       75.022    11218.443    19006.105     5628.329        2.880        1.793      132.296       84.091        0.404      333.344        2.594      859.828
02/04/2014  12:06:00      126.148      117.880      100.284       78.610       76.217       62.675     6179.533     5809.038     3928.147        2.789        0.796      172.653       53.483        0.096      333.123        2.230      859.818
02/04/2014  12:07:00      152.239      134.945       90.494       88.856       56.886       68.809     7895.334     3236.042     4734.650        3.272        0.793      203.437       59.194        0.085      333.185        2.331      859.781
02/04/2014  12:08:00      144.530       83.916       62.984      105.388       63.948       63.826    11106.657     4089.295     4073.720        2.558        0.963      167.126       36.381        0.047      333.338        2.585      859.756
02/04/2014  12:09:00      145.452       99.118       23.247       86.392       41.081       45.563     7463.617     1687.666     2075.993        2.137        0.561      176.014       35.652        0.041      333.263        2.461      859.728
02/04/2014  12:10:00      139.333      103.483       54.935       65.638       42.178       46.404     4308.329     1778.988     2153.329        2.069        0.412      173.558       15.928        0.008      332.967        1.974      859.691
02/04/2014  12:11:00       41.817      -17.704       26.938       59.660       52.147       32.338     3559.338     2719.314     1045.729        0.505        0.366       45.410       32.938        0.526      333.622        3.058      859.664
02/04/2014  12:12:00        0.810       -6.681       41.582       44.596       78.756       43.738     1988.828     6202.562     1913.041        0.594        0.505        6.730       39.265       34.035      333.871        3.470      859.646
02/04/2014  12:13:00      -67.080      -40.303        2.190       46.991       42.838       23.496     2208.149     1835.058      552.059        0.536        0.230       78.257       21.561        0.076      333.924        3.558      859.638
02/04/2014  12:14:00      -21.030       19.734       32.685       26.680       17.358       17.135      711.796      301.288      293.614        0.160        0.065       28.839       13.337        0.214      334.069        3.798      859.623
02/04/2014  12:15:00       36.477       38.918       40.237       31.924       26.860       25.776     1019.145      721.466      664.381        0.343        0.120       53.341       15.763        0.087      333.797        3.348      859.607
02/04/2014  12:16:00       19.061      119.142      119.965       49.447       78.954       72.884     2445.012     6233.684     5312.013        2.147        0.700      120.657       63.459        0.277      333.641        3.087      859.593
02/04/2014  12:17:00       95.827      164.645      144.609       85.725       47.642       51.702     7348.787     2269.729     2673.077        3.474        0.615      190.501       54.785        0.083      333.033        2.080      859.594
02/04/2014  12:18:00      100.156       93.055       67.645       36.631       27.931       42.873     1341.803      780.141     1838.114        1.361        0.198      136.713       32.141        0.055      333.030        2.079      859.601
02/04/2014  12:19:00       48.892        9.756        4.429       41.506       23.796       19.905     1722.741      566.256      396.214        0.259        0.134       49.856       13.200        0.070      332.993        2.017      859.593
02/04/2014  12:20:00       54.950       34.531       29.409       57.395       35.370       45.541     3294.235     1251.035     2073.994        0.585        0.331       64.899       32.333        0.248      333.332        2.577      859.575
02/04/2014  12:21:00       56.629       21.020       17.232       43.129       33.280       20.899     1860.097     1107.567      436.785        0.367        0.170       60.405       14.258        0.056      333.248        2.438      859.566
02/04/2014  12:22:00       19.000       30.113       21.857       34.285       20.025       25.780     1175.486      400.989      664.631        0.199        0.112       35.606       16.689        0.220      333.462        2.794      859.536
02/04/2014  12:23:00       55.100       54.226        5.977       51.884       64.007       33.040     2691.955     4096.888     1091.638        0.694        0.394       77.307       28.531        0.136      333.743        3.259      859.501
02/04/2014  12:24:00      139.814       89.878       35.655       61.631       55.269       51.248     3798.380     3054.703     2626.325        1.919        0.474      166.211       29.495        0.031      333.599        3.017      859.473
02/04/2014  12:25:00      124.053       67.209        5.854       78.336       54.952       48.976     6136.507     3019.730     2398.634        1.575        0.578      141.090       39.675        0.079      333.799        3.351      859.470
02/04/2014  12:26:00       94.546       38.381      -26.476       60.008       41.395       20.757     3600.993     1713.529      430.869        0.843        0.287      102.039       22.721        0.050      332.993        2.017      859.466
02/04/2014  12:27:00      115.677       72.487       11.672       75.373       63.249       44.002     5681.105     4000.499     1936.211        1.519        0.581      136.512       26.634        0.038      333.238        2.421      859.449
02/04/2014  12:28:00      119.812       78.572       18.972       42.015       33.386       33.239     1765.261     1114.600     1104.837        1.244        0.199      143.278       15.115        0.011      333.181        2.328      859.447
02/04/2014  12:29:00       44.377       80.385        5.794       26.241       28.983       30.892      688.564      840.042      954.328        0.547        0.124       91.821       16.741        0.033      333.244        2.432      859.428
02/04/2014  12:30:00       56.543      -21.911       18.450       29.214       42.217       36.709      853.447     1782.269     1347.531        0.400        0.199       60.640       13.999        0.053      333.521        2.891      859.419
02/04/2014  12:31:00       63.327      -64.546       -3.040       47.361       72.501       34.937     2243.034     5256.437     1220.615        0.845        0.436       90.424       39.051        0.187      333.628        3.067      859.400
02/04/2014  12:32:00       37.525     -133.384        8.160       61.495       76.947       51.185     3781.679     5920.910     2619.874        1.579        0.616      138.562       42.070        0.092      333.696        3.179      859.374
02/04/2014  12:33:00       57.283       64.708      125.648      112.465      103.033       74.533    12648.288    10615.713     5555.157        2.603        1.441       86.421       90.933        1.107      333.942        3.586      859.364
02/04/2014  12:34:00       60.469      -50.582       36.520       48.699      106.173       69.461     2371.585    11272.726     4824.879        1.301        0.923       78.836       79.385        1.014      333.659        3.121      859.385
02/04/2014  12:35:00       41.885        1.201       39.540       52.238       97.136       72.432     2728.828     9435.417     5246.378        1.036        0.871       41.902       77.943        3.460      333.806        3.362      859.377
02/04/2014  12:36:00       80.139      -67.807       33.429       70.998      115.550       77.304     5040.681    13351.860     5975.889        1.825        1.218      104.976       86.899        0.685      333.946        3.593      859.354
02/04/2014  12:37:00       36.912       90.684       88.362       39.139       54.987       52.339     1531.900     3023.578     2739.411        1.234        0.365       97.908       45.901        0.220      333.390        2.672      859.342
02/04/2014  12:38:00       38.262       80.401      109.649       68.710       55.464       52.780     4721.065     3076.278     2785.726        1.527        0.529       89.041       51.943        0.340      333.673        3.142      859.300
02/04/2014  12:39:00       34.901       95.005      121.992       71.522       59.722       50.031     5115.355     3566.715     2503.089        1.815        0.559      101.213       40.823        0.163      333.688        3.166      859.279
02/04/2014  12:40:00        9.606      -40.752       33.902       47.163       93.474       57.050     2224.385     8737.336     3254.743        0.856        0.711       41.868       49.358        1.390      334.014        3.708      859.250
02/04/2014  12:41:00       77.358      -98.077        9.327       52.258       84.999       51.258     2730.926     7224.772     2627.382        1.413        0.629      124.914       57.392        0.211      333.804        3.359      859.257
02/04/2014  12:42:00       22.725      -59.875      -14.408       62.409       65.099       25.540     3894.880     4237.849      652.305        0.655        0.439       64.042       15.533        0.059      333.447        2.767      859.250
02/04/2014  12:43:00       16.690       31.759       28.686       37.527       46.059       38.570     1408.267     2121.462     1487.641        0.356        0.251       35.877       19.074        0.283      334.020        3.718      859.218
02/04/2014  12:44:00       55.353       17.708       54.334       44.002       44.241       42.084     1936.159     1957.280     1771.103        0.600        0.283       58.117       33.306        0.328      333.828        3.398      859.225
02/04/2014  12:45:00      -73.551        1.090      -20.496       40.583       30.195       22.451     1646.995      911.739      504.059        0.445        0.153       73.559       10.614        0.021      333.302        2.529      859.192
02/04/2014  12:46:00      -86.001       13.686      -10.794       52.007       31.454       23.525     2704.767      989.375      553.405        0.597        0.212       87.083       28.259        0.105      333.561        2.957      859.173
02/04/2014  12:47:00      -21.322       83.283       -7.299       40.537       37.554       28.101     1643.235     1410.286      789.663        0.564        0.192       85.969       13.981        0.026      333.786        3.330      859.162
02/04/2014  12:48:00       24.306      -24.112       28.578       52.498       46.733       32.739     2756.055     2183.988     1071.861        0.400        0.301       34.237       31.368        0.839      334.165        3.959      859.160
02/04/2014  12:49:00       58.229      -51.526        3.961       24.629       28.726       24.969      606.584      825.173      623.473        0.406        0.103       77.753       22.974        0.087      333.577        2.983      859.150
02/04/2014  12:50:00       37.566       31.470       19.248       29.730       23.162       39.255      883.866      536.457     1540.921        0.287        0.148       49.006       17.723        0.131      333.686        3.165      859.121
02/04/2014  12:51:00       42.189       -2.630        0.618       40.094       66.819       36.763     1607.528     4464.746     1351.536        0.460        0.371       42.271       25.356        0.360      333.969        3.634      859.087
02/04/2014  12:52:00      139.596       68.023       71.466       91.747       64.870       62.532     8417.494     4208.153     3910.244        2.288        0.827      155.287       40.966        0.070      333.679        3.151      859.056
02/04/2014  12:53:00       33.123       22.372       40.931       58.460       32.680       25.860     3417.527     1067.983      668.738        0.421        0.258       39.971       18.273        0.209      333.966        3.627      859.045
02/04/2014  12:54:00      -53.317      122.313       -4.109       45.302       38.997       31.930     2052.226     1520.786     1019.531        1.121        0.230      133.429       30.551        0.052      333.884        3.491      859.028
02/04/2014  12:55:00       25.314       66.374        4.735       29.252       44.881       41.960      855.657     2014.304     1760.643        0.485        0.232       71.038       33.082        0.217      333.819        3.384      859.030
02/04/2014  12:56:00       65.414      101.284      -25.610       59.363       57.907       25.052     3523.967     3353.236      627.604        1.135        0.375      120.571       24.510        0.041      333.472        2.808      859.029
02/04/2014  12:57:00       17.281      110.982      -13.144       31.525       51.090       33.389      993.826     2610.194     1114.806        0.875        0.236      112.320       33.006        0.086      333.587        3.000      859.022
02/04/2014  12:58:00       24.369       41.134        5.334       23.494       40.737       31.433      551.981     1659.464      988.058        0.276        0.160       47.810       32.105        0.451      333.860        3.451      859.008
02/04/2014  12:59:00       65.620       86.165       -6.269       49.749       56.128       35.932     2474.978     3150.392     1291.144        0.934        0.346      108.307       33.927        0.098      333.558        2.952      858.987
02/04/2014  13:00:00       14.547       89.264        0.189       39.970       79.022       43.858     1597.632     6244.430     1923.556        0.897        0.488       90.442       43.826        0.235      333.932        3.572      858.941
02/04/2014  13:01:00        2.678       86.431       26.760       38.980       65.107       38.882     1519.402     4238.915     1511.847        0.773        0.364       86.473       35.394        0.168      334.080        3.817      858.924
02/04/2014  13:02:00      146.644       95.376       25.942       78.079       57.648       54.784     6096.374     3323.338     3001.284        2.185        0.621      174.931       13.498        0.006      333.760        3.283      858.910
02/04/2014  13:03:00      118.825       70.928        0.622       85.669       38.326       39.705     7339.236     1468.904     1576.463        1.477        0.519      138.384       12.866        0.009      333.848        3.430      858.913
02/04/2014  13:04:00       32.279       76.781        0.250       47.045       41.776       38.428     2213.185     1745.235     1476.740        0.619        0.272       83.290       29.195        0.123      333.646        3.098      858.893
02/04/2014  13:05:00       -9.026       49.322        8.495       22.078       65.334       24.999      487.424     4268.499      624.971        0.398        0.269       50.141       34.750        0.480      333.919        3.549      858.869
02/04/2014  13:06:00      -17.569      101.406       -2.062       48.810       47.046       31.834     2382.420     2213.346     1013.406        0.810        0.280      102.917       30.342        0.087      333.852        3.438      858.848
02/04/2014  13:07:00       17.120       45.940        0.923       38.125       46.809       22.082     1453.505     2191.119      487.633        0.327        0.207       49.026       27.269        0.309      333.861        3.454      858.820
02/04/2014  13:08:00        3.464       24.530       17.754       17.862       40.042       22.198      319.044     1603.368      492.745        0.167        0.121       24.774       20.598        0.691      334.429        4.396      858.808
02/04/2014  13:09:00       37.599      121.950       -1.796       50.078       68.697       36.020     2507.822     4719.344     1297.449        1.241        0.426      127.614       35.368        0.077      334.007        3.695      858.791
02/04/2014  13:10:00      228.249      131.703       28.047       97.177       63.530       54.276     9443.433     4036.062     2945.925        4.332        0.821      263.521       32.124        0.015      333.729        3.232      858.766
02/04/2014  13:11:00      142.784       95.011       81.262      109.944       75.465       70.877    12087.610     5695.026     5023.575        2.941        1.140      171.506       66.510        0.150      334.095        3.839      858.749
02/04/2014  13:12:00       96.665      111.167       31.879       49.007       49.821       59.338     2401.672     2482.149     3520.963        1.556        0.420      147.317       41.347        0.079      333.705        3.194      858.748
02/04/2014  13:13:00       87.117       69.146       14.636       42.809       38.124       37.120     1832.652     1453.472     1377.902        0.862        0.233      111.223       12.504        0.013      333.643        3.092      858.754
02/04/2014  13:14:00       68.508       55.758        9.235       40.850       42.034       32.488     1668.729     1766.873     1055.458        0.619        0.225       88.331       17.807        0.041      333.706        3.198      858.746
02/04/2014  13:15:00       46.447       30.237       37.711       48.993       48.682       33.549     2400.315     2369.890     1125.522        0.519        0.295       55.422       17.465        0.099      334.086        3.827      858.724
02/04/2014  13:16:00      141.897       83.789       47.028       81.347       47.126       59.361     6617.407     2220.819     3523.758        2.086        0.618      164.789       45.412        0.076      333.975        3.640      858.724
02/04/2014  13:17:00       88.015       45.517        7.160       38.834       32.025       32.040     1508.068     1025.632     1026.537        0.671        0.178       99.088       15.782        0.025      333.684        3.160      858.725
02/04/2014  13:18:00       34.387       73.571       -2.531       46.790       48.456       31.198     2189.274     2348.008      973.314        0.606        0.276       81.211       28.728        0.125      333.786        3.329      858.701
02/04/2014  13:19:00       52.897       45.420       20.182       55.242       34.854       31.596     3051.660     1214.783      998.290        0.527        0.263       69.721       23.255        0.111      333.975        3.643      858.676
02/04/2014  13:20:00       90.937       46.695       21.993       96.528       54.101       40.746     9317.581     2926.934     1660.198        1.242        0.695      102.225       26.947        0.069      334.240        4.082      858.635
02/04/2014  13:21:00       78.501       84.012       41.424       71.334       55.717       48.023     5088.537     3104.403     2306.193        1.272        0.525      114.981       19.851        0.030      334.180        3.982      858.598
02/04/2014  13:22:00       58.121       69.614      118.138      109.141       94.531       62.162    11911.792     8936.106     3864.141        2.344        1.236       90.687       67.390        0.552      334.508        4.526      858.560
02/04/2014  13:23:00       66.604      145.819      167.649       90.433       99.095       74.377     8178.191     9819.836     5531.867        3.866        1.176      160.309       73.929        0.213      334.230        4.063      858.525
02/04/2014  13:24:00      180.165      168.992      111.075       90.010       66.415       79.305     8101.809     4410.942     6289.225        4.608        0.940      247.017       49.786        0.041      333.948        3.594      858.511
02/04/2014  13:25:00       26.749       47.219       64.865       42.710       40.989       45.923     1824.151     1680.073     2108.927        0.638        0.281       54.269       31.036        0.327      334.406        4.358      858.520
02/04/2014  13:26:00       61.678       70.337       53.991       44.046       39.690       28.583     1940.037     1575.257      816.967        0.800        0.217       93.550       14.089        0.023      333.961        3.620      858.501
02/04/2014  13:27:00       59.538       78.456       96.031       83.689       74.982       62.322     7003.802     5622.373     3884.067        1.771        0.826       98.490       60.368        0.376      334.057        3.777      858.465
02/04/2014  13:28:00       26.956      125.111      142.120       63.619       69.820       44.872     4047.339     4874.840     2013.471        2.375        0.547      127.982       47.825        0.140      333.897        3.511      858.439
02/04/2014  13:29:00       46.535       43.063       65.082       47.957       55.398       40.955     2299.913     3068.911     1677.292        0.765        0.352       63.403       41.975        0.438      333.912        3.538      858.449
02/04/2014  13:30:00        6.090       17.727       42.172       23.633       28.942       25.518      558.506      837.642      651.143        0.209        0.102       18.744       21.281        1.289      334.292        4.169      858.443
02/04/2014  13:31:00       37.019       38.127       20.263       28.617       26.663       27.654      818.939      710.910      764.763        0.276        0.115       53.142       10.774        0.041      334.060        3.783      858.425
02/04/2014  13:32:00       46.099       54.361       53.543       48.202       23.269       23.668     2323.450      541.448      560.166        0.569        0.171       71.276       13.878        0.038      333.931        3.570      858.404
02/04/2014  13:33:00        3.904       49.435       16.932       31.851       28.183       28.033     1014.517      794.255      785.839        0.267        0.130       49.589       21.748        0.192      334.067        3.794      858.397
02/04/2014  13:34:00        9.380      151.121      -17.965       30.976       43.992       28.203      959.526     1935.312      795.423        1.347        0.185      151.411       26.151        0.030      334.002        3.687      858.394
02/04/2014  13:35:00       -1.940      141.182      -12.400       57.314       62.701       37.578     3284.840     3931.442     1412.114        1.436        0.431      141.195       42.858        0.092      333.925        3.559      858.387
02/04/2014  13:36:00       -1.554      166.066      -14.940       42.895       47.987       33.996     1840.004     2302.796     1155.734        1.655        0.265      166.073       30.332        0.033      334.030        3.733      858.376
02/04/2014  13:37:00       58.441       74.042        4.196       58.031       54.519       36.531     3367.627     2972.293     1334.516        0.829        0.384       94.327       34.147        0.131      334.314        4.203      858.361
02/04/2014  13:38:00       75.235       77.223       61.703       75.202       46.724       37.131     5655.294     2183.135     1378.731        1.232        0.461      107.814       36.802        0.117      334.151        3.935      858.355
02/04/2014  13:39:00       79.266      -13.218       24.723       58.460       73.997       46.336     3417.620     5475.602     2146.995        0.905        0.552       80.360       42.852        0.284      334.069        3.798      858.345
02/04/2014  13:40:00       70.605       89.423      -21.947       41.930       26.986       27.194     1758.127      728.270      739.532        0.834        0.161      113.937       11.293        0.010      334.182        3.985      858.327
02/04/2014  13:41:00       84.266       90.640       20.687       68.050       34.330       37.463     4630.752     1178.535     1403.512        1.148        0.361      123.759       35.407        0.082      334.303        4.187      858.316
02/04/2014  13:42:00      179.726      116.847       16.532       53.115       52.919       38.538     2821.208     2800.425     1485.177        2.667        0.355      214.370       23.747        0.012      333.924        3.554      858.309
02/04/2014  13:43:00      165.516      112.859       13.611       54.649       45.282       41.861     2986.468     2050.470     1752.319        2.355        0.339      200.331       30.780        0.024      333.723        3.221      858.312
02/04/2014  13:44:00      175.230      102.345       17.737       45.036       34.155       38.411     2028.282     1166.597     1475.392        2.308        0.234      202.929        9.718        0.002      333.731        3.236      858.304
02/04/2014  13:45:00      101.208       61.739       15.965       56.210       42.539       37.900     3159.570     1809.597     1436.383        1.036        0.320      118.553       22.006        0.034      333.939        3.583      858.303
02/04/2014  13:46:00       38.281       51.984       15.822       44.049       36.414       32.695     1940.334     1326.003     1068.943        0.438        0.217       64.559       19.104        0.088      334.184        3.989      858.294
02/04/2014  13:47:00      178.201      110.498        9.519       62.179       48.382       43.378     3866.196     2340.837     1881.644        2.607        0.404      209.679       24.333        0.013      334.036        3.741      858.278
02/04/2014  13:48:00      103.398       83.704       78.294       96.467       77.447       80.743     9305.788     5997.983     6519.357        2.282        1.091      133.032       77.227        0.337      334.549        4.592      858.261
02/04/2014  13:49:00       66.339       65.293       92.279       72.012       76.184       55.961     5185.770     5804.032     3131.591        1.565        0.706       93.081       58.972        0.401      334.139        3.912      858.253
02/04/2014  13:50:00       17.382       27.042       27.599       45.717       30.488       31.877     2090.069      929.507     1016.164        0.291        0.202       32.147       20.150        0.393      334.379        4.312      858.239
02/04/2014  13:51:00       29.120        1.906        0.248       51.593       34.977       28.555     2661.844     1223.420      815.380        0.278        0.235       29.182       17.527        0.361      334.291        4.167      858.224
02/04/2014  13:52:00      -29.664       -9.053      -11.339       32.385       33.476       21.306     1048.797     1120.663      453.943        0.186        0.131       31.014       15.266        0.242      334.580        4.647      858.229
02/04/2014  13:53:00       38.875      -40.687       13.780       42.344       49.992       34.499     1793.051     2499.196     1190.194        0.442        0.274       56.273       25.766        0.210      334.766        4.954      858.235
02/04/2014  13:54:00       55.906     -115.179       24.290       70.297       86.385       66.052     4941.725     7462.319     4362.888        1.687        0.838      128.030       55.479        0.188      334.711        4.863      858.221
02/04/2014  13:55:00       38.591      -66.158       36.161       60.413      134.910       59.938     3649.691    18200.710     3592.541        1.630        1.272       76.591       83.434        1.187      334.610        4.694      858.225
02/04/2014  13:56:00       26.217      101.323      119.766       63.248       62.586       54.138     4000.319     3917.009     2930.958        1.807        0.542      104.660       53.173        0.258      334.490        4.496      858.229
02/04/2014  13:57:00       44.700       66.811       80.224       55.267       66.254       40.538     3054.483     4389.556     1643.352        1.099        0.454       80.385       33.503        0.174      334.394        4.337      858.233
02/04/2014  13:58:00       99.435       60.304       48.334       43.251       41.521       52.629     1870.666     1723.985     2769.840        1.111        0.318      116.293       31.772        0.075      333.983        3.656      858.228
02/04/2014  13:59:00       75.131       49.619       40.036       57.589       30.447       26.010     3316.520      927.000      676.516        0.731        0.246       90.037       25.873        0.083      334.116        3.876      858.223
02/04/2014  14:00:00       62.403       34.864       65.574       74.726       58.408       41.554     5584.003     3411.458     1726.756        1.006        0.536       71.482       37.428        0.274      334.432        4.401      858.221
02/04/2014  14:01:00       45.968       94.130       85.430       53.267       53.956       47.491     2837.409     2911.232     2255.417        1.314        0.400      104.755       36.978        0.125      334.242        4.086      858.221
02/04/2014  14:02:00      105.341       73.113       69.967       47.301       55.737       45.262     2237.340     3106.591     2048.613        1.436        0.370      128.227       35.903        0.078      334.239        4.079      858.215
02/04/2014  14:03:00      104.478      108.381      110.638       56.421       65.426       58.809     3183.319     4280.624     3458.471        2.291        0.546      150.540       48.259        0.103      334.123        3.885      858.207
02/04/2014  14:04:00       84.667       61.486       50.342       63.654       39.401       34.835     4051.854     1552.446     1213.477        1.015        0.341      104.638       27.342        0.068      334.043        3.755      858.209
02/04/2014  14:05:00       14.361       63.692       56.533       44.559       38.648       47.408     1985.544     1493.681     2247.517        0.659        0.286       65.291       33.335        0.261      334.400        4.347      858.214
02/04/2014  14:06:00       -0.624        2.408       44.818       39.812       84.186       48.532     1585.016     7087.202     2355.355        0.652        0.551        2.488       52.383      443.451      334.802        5.016      858.206
02/04/2014  14:07:00       52.021       -4.311       70.450       77.408       99.709       55.027     5992.069     9941.888     3028.012        1.332        0.948       52.199       58.972        1.276      334.620        4.713      858.196
02/04/2014  14:08:00       89.414      -24.163       81.580       78.355      105.391       70.684     6139.431    11107.362     4996.263        1.873        1.112       92.621       69.272        0.559      334.455        4.437      858.179
02/04/2014  14:09:00       98.522       34.727       49.512       67.812       54.400       43.225     4598.481     2959.328     1868.361        1.139        0.471      104.463       29.917        0.082      334.155        3.941      858.195
02/04/2014  14:10:00       31.169       31.869       33.685       41.226       53.072       40.392     1699.567     2816.677     1631.507        0.463        0.307       44.577       34.909        0.613      334.342        4.253      858.183
02/04/2014  14:11:00      115.316       75.160       45.175       57.051       39.316       42.161     3254.856     1545.741     1777.582        1.378        0.329      137.647       29.541        0.046      334.309        4.196      858.171
02/04/2014  14:12:00       95.846       72.020       23.191       72.185       53.928       47.986     5210.604     2908.205     2302.650        1.266        0.521      119.889       30.617        0.065      334.255        4.108      858.167
02/04/2014  14:13:00       77.577       14.501       24.573       98.966       60.634       34.931     9794.340     3676.430     1220.146        1.076        0.735       78.921       30.415        0.149      334.526        4.556      858.157
02/04/2014  14:14:00       70.372      -52.705       22.569       65.139       96.568       52.242     4243.093     9325.350     2729.266        1.227        0.815       87.920       58.823        0.448      334.655        4.769      858.164
02/04/2014  14:15:00      112.631     -137.411        6.177       98.789      133.958       77.723     9759.298    17944.623     6040.828        3.267        1.687      177.672       83.749        0.222      334.414        4.369      858.145
02/04/2014  14:16:00      139.380     -152.856       -8.416       83.655       86.948       36.846     6998.233     7559.887     1357.612        2.939        0.796      206.862       52.380        0.064      333.979        3.646      858.174
02/04/2014  14:17:00       -9.162      -23.470       12.482       36.486       41.444       31.038     1331.207     1717.599      963.387        0.240        0.201       25.195       32.288        1.642      334.426        4.392      858.160
02/04/2014  14:18:00       43.768       36.941      -13.133       44.525       22.940       12.747     1982.435      526.227      162.494        0.306        0.134       57.274       10.622        0.034      334.017        3.712      858.126
02/04/2014  14:19:00       13.370       34.582       50.013       24.148       30.607       33.188      583.112      936.792     1101.415        0.325        0.131       37.076       18.699        0.254      334.672        4.800      858.113
02/04/2014  14:20:00       30.341      -44.427       57.201       73.074      166.004       86.029     5339.851    27557.222     7400.923        2.323        2.015       53.799       93.491        3.020      334.670        4.795      858.098
02/04/2014  14:21:00       64.681      108.150       95.167       51.676       72.897       76.164     2670.407     5314.024     5800.977        1.936        0.689      126.016       59.022        0.219      334.244        4.087      858.125
02/04/2014  14:22:00       14.271      -19.746      -12.800       28.440       64.805       22.652      808.828     4199.686      513.132        0.314        0.276       24.363        9.365        0.148      334.253        4.104      858.120
02/04/2014  14:23:00        4.230      -12.621        3.986       23.338       29.228       21.168      544.655      854.276      448.073        0.102        0.092       13.311       11.111        0.697      334.926        5.220      858.117
02/04/2014  14:24:00      -58.965        4.731        1.100       40.289       28.662       21.148     1623.224      821.528      447.248        0.320        0.145       59.154       19.578        0.110      334.872        5.131      858.110
02/04/2014  14:25:00     -159.613      -22.444       -9.102       44.619       66.622       26.939     1990.868     4438.530      725.730        1.661        0.358      161.183       20.700        0.016      334.582        4.648      858.090
02/04/2014  14:26:00     -108.270      -38.841        1.319       54.903       49.010       29.392     3014.388     2402.007      863.879        0.976        0.314      115.026       26.685        0.054      334.700        4.845      858.079
02/04/2014  14:27:00      -61.885       -7.355       22.706       54.934       58.461       32.105     3017.756     3417.692     1030.740        0.593        0.373       62.321       35.136        0.318      334.897        5.174      858.082
02/04/2014  14:28:00      -39.744      -33.382       26.337       50.153       53.537       33.549     2515.283     2866.236     1125.542        0.495        0.325       51.904       27.590        0.283      334.856        5.105      858.078
02/04/2014  14:29:00      -14.123       -3.393       32.593       29.484       32.831       28.862      869.326     1077.873      833.036        0.203        0.139       14.525       24.777        2.910      334.897        5.173      858.069
02/04/2014  14:30:00       10.615       35.873       52.986       35.941       30.374       18.267     1291.770      922.602      333.678        0.338        0.127       37.411       18.297        0.239      334.828        5.057      858.065
02/04/2014  14:31:00       32.782      -28.516       44.533       47.997       56.214       41.838     2303.757     3160.067     1750.422        0.554        0.361       43.449       39.037        0.807      334.847        5.091      858.067
02/04/2014  14:32:00       26.958       25.511       29.756       36.319       35.385       28.885     1319.034     1252.118      834.369        0.283        0.170       37.115       23.745        0.409      334.699        4.846      858.060
02/04/2014  14:33:00       33.654       39.757       17.812       23.998       17.805       21.813      575.925      317.004      475.809        0.220        0.068       52.088       11.185        0.046      334.640        4.746      858.043
02/04/2014  14:34:00        0.119       17.723       25.712       13.465       20.146       14.279      181.318      405.868      203.883        0.088        0.040       17.724       11.987        0.457      335.320        5.877      858.031
02/04/2014  14:35:00       11.454       15.222       49.277       37.259       41.256       34.276     1388.247     1702.075     1174.838        0.353        0.213       19.050       29.658        2.424      335.438        6.071      858.029
02/04/2014  14:36:00      177.183     -154.150       -0.426       81.581      139.857       70.622     6655.502    19560.033     4987.440        4.317        1.560      234.853       89.344        0.145      334.428        4.389      858.022
02/04/2014  14:37:00       95.149       -0.699       69.698       84.675       85.973       59.692     7169.795     7391.391     3563.162        1.601        0.906       95.152       60.175        0.400      334.488        4.492      858.020
02/04/2014  14:38:00       82.187      111.987       83.985       48.280       66.678       60.277     2330.939     4445.944     3633.267        1.838        0.521      138.910       53.378        0.148      334.245        4.088      858.004
02/04/2014  14:39:00      109.123       63.710       25.885       33.436       42.770       30.454     1117.956     1829.289      927.448        1.026        0.194      126.360       13.717        0.012      334.236        4.075      857.987
02/04/2014  14:40:00       27.170      -72.074       -1.307       66.444       80.726       35.499     4414.858     6516.645     1260.211        0.906        0.610       77.025       13.566        0.031      334.665        4.787      857.975
02/04/2014  14:41:00       39.080     -126.181      -20.920       80.611       91.839       30.676     6498.163     8434.403      941.011        1.688        0.794      132.094       33.261        0.063      334.687        4.822      857.955
02/04/2014  14:42:00       11.335     -140.566      -20.818       44.758       44.018       37.456     2003.282     1937.585     1402.941        1.283        0.267      141.022        7.693        0.003      334.792        4.999      857.920
02/04/2014  14:43:00       48.961      -35.660       55.668       69.320      125.096       79.267     4805.298    15648.985     6283.181        1.675        1.337       60.571       93.589        2.387      334.625        4.720      857.908
02/04/2014  14:44:00       82.225      -49.905       63.235       65.588      151.804       93.829     4301.727    23044.376     8803.964        2.469        1.808       96.185      110.307        1.315      334.693        4.832      857.890
02/04/2014  14:45:00      100.070       75.336       40.619       65.337       49.241       58.461     4268.962     2424.707     3417.718        1.372        0.506      125.258       51.237        0.167      334.261        4.116      857.897
02/04/2014  14:46:00       50.345       31.252       39.811       32.480       39.668       18.073     1054.927     1573.585      326.623        0.403        0.148       59.256       12.462        0.044      334.390        4.331      857.878
02/04/2014  14:47:00       80.476      -66.126       28.522       84.603       85.650       56.736     7157.585     7335.911     3218.977        1.468        0.886      104.159       63.102        0.367      334.545        4.587      857.877
02/04/2014  14:48:00       67.490     -122.000       -3.479       75.602      116.080       82.979     5715.615    13474.520     6885.543        2.276        1.304      139.424       80.994        0.337      334.643        4.749      857.850
02/04/2014  14:49:00       27.560     -102.829       10.828      104.884      107.769       67.867    11000.582    11614.215     4605.929        1.933        1.361      106.458       74.693        0.492      334.553        4.599      857.834
02/04/2014  14:50:00      134.242     -164.598      -21.948       81.922       98.214       49.212     6711.151     9646.076     2421.807        3.218        0.939      212.399       45.897        0.047      334.412        4.363      857.836
02/04/2014  14:51:00       89.993     -125.685       10.260       78.847       78.789       50.736     6216.919     6207.638     2574.155        1.950        0.750      154.582       50.447        0.107      334.603        4.682      857.846
02/04/2014  14:52:00       24.743       -5.339       78.278       74.667      100.231       68.829     5575.158    10046.250     4737.378        1.356        1.018       25.312       71.031        7.875      334.808        5.025      857.846
02/04/2014  14:53:00       39.914      -26.304       51.836       61.502       67.701       63.152     3782.532     4583.390     3988.166        0.866        0.618       47.802       49.843        1.087      334.766        4.956      857.856
02/04/2014  14:54:00       98.151     -128.654      -17.223       77.790      112.984       39.976     6051.251    12765.387     1598.068        2.345        1.021      161.820       46.055        0.081      334.329        4.228      857.868
02/04/2014  14:55:00       93.639     -125.041       -1.968      112.870      117.337       67.572    12739.648    13767.965     4565.954        2.774        1.554      156.216       81.302        0.271      334.418        4.377      857.846
02/04/2014  14:56:00       17.564     -135.621       14.375       65.879       80.493       75.100     4339.993     6479.090     5640.019        1.768        0.823      136.753       63.313        0.214      334.634        4.734      857.850
02/04/2014  14:57:00       25.729      -74.597       11.141       55.579       78.854       36.951     3089.054     6217.890     1365.412        0.851        0.534       78.909       52.996        0.451      334.684        4.821      857.874
02/04/2014  14:58:00       -6.890       29.493       52.487       14.600       38.299       21.339      213.147     1466.852      455.369        0.290        0.107       30.287       21.443        0.501      334.840        5.076      857.877
02/04/2014  14:59:00        9.172       42.513       56.540       28.793       34.217       23.779      829.057     1170.783      565.426        0.383        0.128       43.491       21.348        0.241      334.799        5.010      857.878
02/04/2014  15:00:00      -11.676       66.713       18.981       34.509       35.108       23.583     1190.897     1232.593      556.150        0.396        0.149       67.727       14.587        0.046      334.705        4.852      857.884
02/04/2014  15:01:00       23.666       20.412        9.511       23.969       23.438       25.816      574.518      549.319      666.477        0.143        0.090       31.253        8.545        0.075      334.688        4.825      857.882
02/04/2014  15:02:00       28.327        2.059       36.998       58.516       78.746       67.438     3424.143     6200.944     4547.875        0.817        0.709       28.402       64.924        5.225      334.830        5.062      857.867
02/04/2014  15:03:00       26.526       22.723       70.484       44.112       94.118       71.117     1945.837     8858.114     5057.667        1.102        0.793       34.928       78.929        5.107      334.509        4.527      857.869
02/04/2014  15:04:00       50.719       22.774       41.223       36.454       51.020       32.461     1328.888     2603.058     1053.732        0.489        0.249       55.597       29.323        0.278      334.610        4.697      857.863
02/04/2014  15:05:00      155.887       61.640       40.617       68.127       56.847       53.401     4641.346     3231.577     2851.615        2.024        0.536      167.631       29.966        0.032      334.455        4.437      857.861
02/04/2014  15:06:00       15.332       35.555       14.403       25.265       49.587       27.131      638.343     2458.831      736.075        0.277        0.192       38.720       12.597        0.106      334.552        4.601      857.885
02/04/2014  15:07:00       13.302       48.876       -7.018       20.002       24.681       19.217      400.074      609.143      369.310        0.200        0.069       50.654       14.228        0.079      334.392        4.335      857.885
02/04/2014  15:08:00        0.520       33.800       -7.694       33.467       22.550       13.868     1120.031      508.490      192.330        0.151        0.091       33.804       12.885        0.145      334.415        4.372      857.887
02/04/2014  15:09:00        6.285       37.310        6.782       45.414       36.840       22.021     2062.420     1357.197      484.926        0.269        0.195       37.836       11.327        0.090      334.668        4.793      857.890
02/04/2014  15:10:00       10.197       28.973       27.349       26.901       24.679       16.668      723.650      609.054      277.807        0.165        0.081       30.715       11.695        0.145      334.834        5.067      857.911
02/04/2014  15:11:00       48.702       31.493        1.505       25.816       21.558       22.489      666.477      464.762      505.740        0.250        0.082       57.998        9.914        0.029      334.435        4.407      857.933
02/04/2014  15:12:00      -26.006       45.647      -13.885       23.639       40.454       17.827      558.794     1636.543      317.809        0.273        0.126       52.535       19.824        0.142      334.473        4.468      857.937
02/04/2014  15:13:00      -37.367       60.076       -6.364       24.855       33.494       22.841      617.772     1121.839      521.707        0.365        0.113       70.749       17.268        0.060      334.665        4.788      857.947
02/04/2014  15:14:00      -34.507       34.577       -6.216       28.241       29.348       17.731      797.532      861.299      314.398        0.220        0.099       48.850       18.283        0.140      334.787        4.989      857.946
02/04/2014  15:15:00      -18.923       43.121       -2.983       16.385       23.663       17.032      268.458      559.937      290.100        0.167        0.056       47.091       14.948        0.101      334.539        4.579      857.954
02/04/2014  15:16:00      -14.587       22.111       -8.765       18.001       14.350       13.291      324.033      205.929      176.650        0.074        0.035       26.489       12.478        0.222      334.562        4.618      857.951
02/04/2014  15:17:00       20.425       20.906       18.889       59.115       46.641       32.799     3494.546     2175.364     1075.801        0.398        0.337       29.228       40.708        1.940      334.799        5.010      857.947
02/04/2014  15:18:00       86.000       65.172       32.819       44.374       37.243       43.065     1969.077     1387.015     1854.612        0.896        0.261      107.904       29.093        0.073      334.588        4.660      857.945
02/04/2014  15:19:00       44.674        4.097       50.725       37.952       41.473       37.652     1440.352     1719.986     1417.651        0.458        0.229       44.861       19.299        0.185      334.731        4.897      857.934
02/04/2014  15:20:00       76.717       12.994       65.982       72.922       99.536       52.419     5317.673     9907.407     2747.771        1.419        0.899       77.810       60.067        0.596      334.691        4.830      857.914
02/04/2014  15:21:00      110.728        9.166       90.950       90.668      211.977       97.785     8220.611    44934.268     9561.913        4.166        3.136      111.106      139.259        1.571      334.551        4.595      857.914
02/04/2014  15:22:00       75.891       92.693      119.395       46.311       63.314       45.006     2144.713     4008.642     2025.497        1.839        0.409      119.798       37.955        0.100      334.521        4.547      857.937
02/04/2014  15:23:00       91.669       31.990       29.956       45.867       50.286       47.038     2103.795     2528.701     2212.543        0.858        0.342       97.091       34.960        0.130      334.427        4.392      857.937
02/04/2014  15:24:00        2.520      -67.859        6.585       32.911       79.696       41.966     1083.105     6351.486     1761.118        0.692        0.460       67.906       45.770        0.454      334.669        4.794      857.931
02/04/2014  15:25:00       42.174      -59.704       10.541       37.534       45.967       43.193     1408.764     2112.921     1865.621        0.542        0.269       73.098       39.177        0.287      334.682        4.816      857.933
02/04/2014  15:26:00        7.007      -56.504       -4.136       31.764       30.394       21.114     1008.940      923.791      445.787        0.282        0.119       56.936       15.427        0.073      334.863        5.118      857.928
02/04/2014  15:27:00      -12.066      -35.145       14.139       34.573       35.393       22.438     1195.296     1252.674      503.466        0.227        0.148       37.158       15.808        0.181      334.943        5.249      857.927
02/04/2014  15:28:00        8.689       14.667       12.619       45.318       34.157       24.364     2053.724     1166.716      593.580        0.213        0.191       17.048       27.008        2.510      334.836        5.071      857.926
02/04/2014  15:29:00       27.224      -14.696        3.239       28.827       85.246       25.668      830.971     7266.846      658.850        0.486        0.438       30.937       34.491        1.243      334.588        4.659      857.938
02/04/2014  15:30:00       12.573        8.266       19.095       34.715       37.972       38.739     1205.158     1441.879     1500.698        0.237        0.207       15.047       14.390        0.915      334.805        5.020      857.931
02/04/2014  15:31:00      -20.600       -0.354       14.997       18.377       24.194       19.973      337.732      585.360      398.916        0.099        0.066       20.603       14.452        0.492      335.108        5.523      857.923
02/04/2014  15:32:00      -14.634      -82.159       23.214       44.882       57.595       37.350     2014.421     3317.185     1395.006        0.711        0.336       83.452       19.811        0.056      335.110        5.527      857.930
02/04/2014  15:33:00       -8.824        3.915       19.344       47.580       44.380       28.842     2263.874     1969.573      831.840        0.277        0.253        9.654       23.231        5.791      335.032        5.397      857.940
02/04/2014  15:34:00      149.330     -206.466      -32.335       72.857       63.259       46.816     5308.083     4001.708     2191.779        3.874        0.575      254.809       41.177        0.026      334.494        4.498      857.939
02/04/2014  15:35:00       88.252      -84.336        1.020       89.087      108.907       54.096     7936.556    11860.783     2926.380        1.881        1.136      122.069       67.496        0.306      334.616        4.703      857.951
02/04/2014  15:36:00       77.785     -124.546      -10.504       75.105      101.020       65.557     5640.726    10205.011     4297.775        2.090        1.007      146.840       65.704        0.200      334.646        4.754      857.962
02/04/2014  15:37:00        2.246       -8.126       31.229       38.040       33.874       35.557     1447.058     1147.419     1264.312        0.245        0.193        8.431       24.633        8.536      334.974        5.301      857.980
02/04/2014  15:38:00       33.730      -83.000      -15.178       32.811       37.215       26.888     1076.576     1384.983      722.968        0.572        0.159       89.592       21.525        0.058      334.740        4.912      857.972
02/04/2014  15:39:00       -0.886        0.416       13.746       20.099       20.100       19.085      403.953      403.997      364.232        0.068        0.059        0.979       10.766      120.922      335.291        5.826      857.963
02/04/2014  15:40:00        2.925       -0.882       19.863       43.611       39.178       23.654     1901.925     1534.886      559.507        0.220        0.200        3.055       24.667       65.191      335.032        5.398      857.958
02/04/2014  15:41:00       -4.709       29.297        8.711       38.660       47.197       24.498     1494.630     2227.551      600.157        0.264        0.216       29.673       17.186        0.335      334.761        4.946      857.959
02/04/2014  15:42:00       31.490       10.937       40.771       22.980       25.001       19.201      528.088      625.058      368.670        0.215        0.076       33.335       15.958        0.229      334.863        5.116      857.950
02/04/2014  15:43:00       14.973       19.700       22.589       15.716       20.637       19.989      246.985      425.873      399.546        0.110        0.054       24.745       13.903        0.316      334.768        4.959      857.955
02/04/2014  15:44:00       23.346       58.616       91.406       50.676       62.765       44.108     2568.049     3939.404     1945.527        1.039        0.423       63.094       44.785        0.504      334.718        4.876      857.968
02/04/2014  15:45:00        4.646       26.033       50.406       26.986       46.930       32.760      728.223     2202.408     1073.194        0.362        0.200       26.444        5.740        0.047      334.898        5.174      857.961
02/04/2014  15:46:00       76.222       42.037       43.798       63.246       56.569       43.965     4000.088     3200.089     1932.923        0.931        0.457       87.045       44.861        0.266      334.619        4.712      857.963
02/04/2014  15:47:00       38.670       33.397       39.520       45.765       43.083       35.578     2094.473     1856.146     1265.808        0.469        0.261       51.095       33.251        0.423      334.647        4.757      857.950
02/04/2014  15:48:00        4.369       60.510       73.796       27.890       36.839       26.373      777.863     1357.112      695.542        0.598        0.142       60.668       25.089        0.171      334.743        4.916      857.950
02/04/2014  15:49:00       54.209       14.365       23.785       29.772       37.285       31.754      886.386     1390.183     1008.304        0.350        0.164       56.080       27.741        0.245      334.548        4.594      857.946
02/04/2014  15:50:00       35.050      -51.904       18.545       50.609       56.314       28.834     2561.230     3171.313      831.400        0.541        0.328       62.630       33.118        0.280      334.829        5.059      857.935
02/04/2014  15:51:00       14.783       -1.378       33.082       33.215       52.602       32.934     1103.242     2766.997     1084.663        0.313        0.248       14.847       25.280        2.899      334.813        5.033      857.929
02/04/2014  15:52:00      -13.123       10.102       71.429       26.587       55.723       27.950      706.848     3105.056      781.187        0.498        0.230       16.561       31.441        3.604      334.827        5.057      857.924
02/04/2014  15:53:00       20.695       15.848       39.340       36.102       35.640       31.744     1303.338     1270.186     1007.706        0.290        0.179       26.067       21.426        0.676      334.716        4.873      857.919
02/04/2014  15:54:00       50.273       50.715       53.752       45.685       57.918       37.452     2087.160     3354.529     1402.689        0.742        0.342       71.410       28.430        0.158      334.545        4.588      857.915
02/04/2014  15:55:00       79.024       76.282       12.830       19.551       15.859       25.632      382.222      251.496      656.980        0.676        0.065      109.835       14.348        0.017      334.367        4.293      857.911
02/04/2014  15:56:00       30.950       33.431       27.175       26.655       22.670       20.697      710.484      513.923      428.384        0.223        0.083       45.558       14.082        0.096      334.493        4.503      857.918
02/04/2014  15:57:00       47.708       50.818       26.247       32.352       26.691       31.775     1046.654      712.395     1009.635        0.416        0.138       69.703       26.673        0.146      334.513        4.534      857.927
02/04/2014  15:58:00       60.076       75.482       94.083       50.011       41.867       29.043     2501.081     1752.834      843.482        1.163        0.255       96.471       21.243        0.048      334.598        4.676      857.933
02/04/2014  15:59:00       29.002       92.810       99.261       52.623       50.500       40.012     2769.196     2550.221     1600.981        1.311        0.346       97.236       34.976        0.129      334.694        4.835      857.925
02/04/2014  16:00:00       47.189       10.745       32.834       31.633       31.184       27.521     1000.650      972.461      757.397        0.307        0.137       48.397       25.020        0.267      334.482        4.485      857.927
02/04/2014  16:01:00       35.190      -15.987        6.702       21.215       22.793       26.403      450.084      519.519      697.137        0.160        0.083       38.651       21.057        0.297      334.572        4.634      857.924
02/04/2014  16:02:00       29.678       21.843       24.609       29.098       22.194       22.024      846.693      492.568      485.067        0.189        0.091       36.849        5.557        0.023      334.631        4.730      857.924
02/04/2014  16:03:00        2.286        2.995       24.686       10.877       18.201       14.723      118.306      331.269      216.758        0.064        0.033        3.767       13.812       13.441      334.850        5.096      857.926
02/04/2014  16:04:00        2.488       14.129       29.071        9.687       15.433        7.535       93.841      238.183       56.783        0.072        0.019       14.346        8.239        0.330      334.858        5.107      857.921
02/04/2014  16:05:00       11.528       36.517       44.198       18.830       27.475       17.206      354.554      754.854      296.044        0.241        0.070       38.293       18.642        0.237      334.703        4.851      857.928
02/04/2014  16:06:00       47.922       44.055       24.498       16.644       13.296       20.995      277.026      176.784      440.774        0.287        0.045       65.096       11.170        0.029      334.606        4.688      857.929
02/04/2014  16:07:00       35.405       20.599       19.226       29.598       39.784       36.773      876.055     1582.806     1352.235        0.293        0.191       40.962       30.627        0.559      334.657        4.773      857.932
02/04/2014  16:08:00       45.564       56.929       27.452       37.028       39.841       32.011     1371.098     1587.306     1024.735        0.503        0.199       72.918       14.431        0.039      334.658        4.775      857.939
02/04/2014  16:09:00       11.032       21.830       38.020       24.750       34.205       18.002      612.574     1169.962      324.087        0.207        0.105       24.459       14.828        0.368      334.762        4.950      857.940
02/04/2014  16:10:00       -8.444       16.044       26.104       15.618       25.293       26.991      243.912      639.744      728.509        0.131        0.081       18.130       18.349        1.024      334.693        4.835      857.948
02/04/2014  16:11:00      -52.788      -16.785        1.797       30.477       21.429       15.090      928.859      459.210      227.714        0.234        0.081       55.392       13.208        0.057      334.820        5.044      857.966
02/04/2014  16:12:00       19.786      -24.364       -1.783       27.042       26.822       23.807      731.276      719.409      566.779        0.150        0.101       31.386       17.602        0.315      334.725        4.886      857.971
02/04/2014  16:13:00       13.044       25.805       33.743       21.265       22.676       22.282      452.191      514.211      496.487        0.172        0.073       28.914       10.408        0.130      334.702        4.849      857.979
02/04/2014  16:14:00       -7.551       -1.959        6.144       20.096       29.711       18.574      403.850      882.716      345.000        0.086        0.082        7.801       16.325        4.379      334.874        5.134      858.000
02/04/2014  16:15:00       24.994       39.025        4.784       21.073       10.920       16.524      444.083      119.246      273.055        0.150        0.042       46.343        7.470        0.026      334.685        4.820      858.019
02/04/2014  16:16:00       26.857       -7.108        3.263       45.341       37.082       10.862     2055.765     1375.101      117.981        0.217        0.177       27.781       12.399        0.199      334.756        4.938      858.030
02/04/2014  16:17:00       67.355      -49.207       19.810       54.635       59.132       39.744     2984.942     3496.553     1579.617        0.770        0.403       83.415       37.469        0.202      334.695        4.836      858.035
02/04/2014  16:18:00       -3.396       29.829       69.795       24.324       69.031       33.478      591.650     4765.227     1120.799        0.612        0.324       30.022       32.087        1.142      334.656        4.772      858.030
02/04/2014  16:19:00       11.098       19.151       60.431       24.119       34.778       20.631      581.719     1209.510      425.633        0.318        0.111       22.134       20.655        0.871      334.705        4.853      858.009
02/04/2014  16:20:00       18.690       -5.089       31.188       28.588       41.366       25.616      817.283     1711.143      656.159        0.227        0.159       19.371       18.715        0.933      334.762        4.948      858.008
02/04/2014  16:21:00       63.605      -60.145        1.714       47.416       35.627       30.606     2248.318     1269.252      936.719        0.606        0.223       87.539       21.455        0.060      334.752        4.932      857.990
02/04/2014  16:22:00       -0.260      -24.282       18.941       17.847       42.065       16.283      318.529     1769.500      265.137        0.165        0.118       24.283       16.296        0.450      334.910        5.195      857.993
02/04/2014  16:23:00      -36.860       12.827       10.913       47.704       25.733       20.438     2275.709      662.187      417.730        0.250        0.168       39.028       19.808        0.258      334.908        5.191      857.988
02/04/2014  16:24:00       34.802       10.623       34.151       22.199       15.791       28.232      492.787      249.357      797.071        0.201        0.077       36.387        9.840        0.073      334.763        4.950      857.977
02/04/2014  16:25:00       -1.437       11.255       43.286       33.589       65.801       37.571     1128.221     4329.754     1411.588        0.443        0.343       11.346       43.401       14.632      334.786        4.989      857.989
02/04/2014  16:26:00       93.589      -87.869       -6.101       49.532       43.414       30.625     2453.403     1884.790      937.867        1.090        0.264      128.374       24.921        0.038      334.654        4.769      857.981
02/04/2014  16:27:00       19.966       15.215       43.479       42.511       40.277       29.807     1807.144     1622.266      888.466        0.342        0.216       25.103       33.591        1.791      334.640        4.746      857.982
02/04/2014  16:28:00      -18.024       28.120       33.239       14.350       17.902       18.201      205.932      320.493      331.278        0.154        0.043       33.401       13.919        0.174      334.686        4.823      857.985
02/04/2014  16:29:00        7.705       24.479       64.164       27.170       45.791       31.613      738.196     2096.786      999.413        0.430        0.192       25.663       29.900        1.357      334.735        4.904      857.982
02/04/2014  16:30:00       19.355       14.896       54.515       29.284       64.327       38.227      857.529     4138.011     1461.329        0.501        0.323       24.424       42.662        3.051      334.742        4.915      857.988
02/04/2014  16:31:00       37.272       -5.232       23.325       39.226       44.014       30.303     1538.677     1937.207      918.284        0.318        0.220       37.638       28.127        0.558      334.710        4.862      857.984
02/04/2014  16:32:00       48.159       -4.702       19.245       31.797       25.545       31.687     1011.033      652.531     1004.042        0.269        0.133       48.388       24.667        0.260      334.662        4.782      857.981
02/04/2014  16:33:00       48.108       33.690       32.705       40.625       25.686       19.534     1650.387      659.780      381.596        0.360        0.135       58.732       13.015        0.049      334.678        4.809      857.970
02/04/2014  16:34:00       48.122       25.868       17.855       49.150       40.222       24.706     2415.744     1617.828      610.403        0.397        0.232       54.634       17.267        0.100      334.637        4.741      857.970
02/04/2014  16:35:00        3.307     -101.670      -16.726       39.389       41.395       24.617     1551.477     1713.544      606.021        0.725        0.194      101.724       23.534        0.054      334.912        5.197      857.968
02/04/2014  16:36:00       99.877     -127.482      -19.204       50.350       50.420       28.318     2535.168     2542.149      801.901        1.624        0.294      161.947       26.671        0.027      334.761        4.945      857.972
02/04/2014  16:37:00       54.543       -3.681       36.744       45.472       37.254       46.964     2067.744     1387.846     2205.616        0.500        0.283       54.667       28.533        0.272      334.734        4.902      857.967
02/04/2014  16:38:00       80.201      -48.335       29.458       70.490       84.841       58.459     4968.890     7198.043     3417.444        1.261        0.779       93.640       64.623        0.476      334.710        4.860      857.974
02/04/2014  16:39:00       59.650      -79.268       34.506       48.956       64.965       47.782     2396.704     4220.472     2283.119        0.996        0.445       99.204       39.444        0.158      334.793        5.001      857.961
02/04/2014  16:40:00       59.825      -72.740       21.958       45.043       64.249       39.414     2028.891     4127.901     1553.478        0.853        0.386       94.182       40.505        0.185      334.802        5.015      857.963
02/04/2014  16:41:00       58.826       22.602       49.199       49.458       51.680       37.851     2446.070     2670.869     1432.695        0.647        0.327       63.019       32.141        0.260      334.728        4.892      857.963
02/04/2014  16:42:00       27.327       42.649       88.408       43.332       63.631       43.426     1877.691     4048.945     1885.848        0.910        0.391       50.652       47.245        0.870      334.734        4.901      857.963
02/04/2014  16:43:00       56.082       45.610       68.198       37.607       50.469       41.737     1414.302     2547.115     1741.971        0.779        0.285       72.287       42.223        0.341      334.594        4.670      857.953
02/04/2014  16:44:00       22.997       28.902       46.066       38.816       41.270       23.437     1506.678     1703.215      549.276        0.362        0.188       36.935       14.320        0.150      334.647        4.758      857.955
02/04/2014  16:45:00       99.572      -75.255        2.069       49.733       58.502       37.743     2473.345     3422.533     1424.544        1.145        0.366      124.812       33.990        0.074      334.623        4.718      857.962
02/04/2014  16:46:00       38.359        4.429       40.840       27.659       32.586       26.058      765.026     1061.828      679.024        0.283        0.125       38.614       19.931        0.266      334.668        4.792      857.970
02/04/2014  16:47:00       15.101       11.317       56.530       28.475       45.705       28.247      810.810     2088.964      797.868        0.362        0.185       18.871       21.252        1.268      334.737        4.908      857.980
02/04/2014  16:48:00       18.241       -5.776       57.290       28.116       57.607       41.180      790.503     3318.613     1695.775        0.473        0.290       19.133       38.417        4.031      334.786        4.988      857.995
02/04/2014  16:49:00       40.931       -5.751       41.997       52.023      109.866       59.614     2706.436    12070.628     3553.843        1.090        0.917       41.333       76.799        3.452      334.669        4.793      858.018
02/04/2014  16:50:00       85.045     -125.066      -18.044       44.233       35.580       30.468     1956.547     1265.908      928.270        1.367        0.208      151.242       24.981        0.027      334.665        4.787      858.043
02/04/2014  16:51:00       54.591      -34.228       22.134       48.406       73.572       38.539     2343.171     5412.790     1485.243        0.694        0.462       64.434       48.517        0.567      334.652        4.766      858.047
02/04/2014  16:52:00       49.410      -54.686       -2.535       44.761       60.483       34.954     2003.561     3658.161     1221.773        0.616        0.344       73.702       35.561        0.233      334.653        4.768      858.049
02/04/2014  16:53:00       69.248      -42.915       -0.043       31.998       38.775       31.488     1023.848     1503.496      991.468        0.508        0.176       81.468       28.609        0.123      334.547        4.590      858.040
02/04/2014  16:54:00       56.623      -43.650       -0.327       35.037       41.036       30.131     1227.557     1683.947      907.871        0.446        0.191       71.495       20.579        0.083      334.625        4.720      858.027
02/04/2014  16:55:00       56.209      -33.569       15.408       39.435       37.511       25.131     1555.124     1407.083      631.570        0.406        0.180       65.470       15.216        0.054      334.615        4.703      858.026
02/04/2014  16:56:00       43.971      -26.878       16.090       37.334       56.735       36.047     1393.822     3218.849     1299.389        0.441        0.296       51.535       30.890        0.359      334.629        4.728      858.020
02/04/2014  16:57:00       14.441      -19.059       16.047       24.846       51.430       30.378      617.309     2644.994      922.849        0.251        0.209       23.912       22.651        0.897      334.718        4.876      858.034
02/04/2014  16:58:00       80.187      -91.522      -29.348       50.492       39.641       25.053     2549.482     1571.371      627.674        1.021        0.237      121.681       23.180        0.036      334.650        4.762      858.045
02/04/2014  16:59:00       32.709       -4.452       28.716       33.807       31.885       35.649     1142.901     1016.639     1270.841        0.267        0.172       33.010       22.466        0.463      334.578        4.643      858.063
02/04/2014  17:00:00        8.584       53.251       71.553       25.883       29.778       15.004      669.921      886.718      225.116        0.491        0.089       53.938       13.557        0.063      334.516        4.540      858.085
02/04/2014  17:01:00       -5.474        2.293       32.423       15.404       25.418       17.119      237.293      646.076      293.065        0.113        0.059        5.934       18.303        9.513      334.638        4.743      858.097
02/04/2014  17:02:00       -2.196      -21.740       11.808       19.169       25.532       20.120      367.455      651.882      404.827        0.102        0.071       21.851       13.628        0.389      334.740        4.912      858.115
02/04/2014  17:03:00       -5.063       20.973       43.157       23.676       40.734       20.617      560.569     1659.250      425.067        0.249        0.132       21.575       14.713        0.465      334.587        4.656      858.120
02/04/2014  17:04:00        3.036      -67.515      -10.211       27.549       27.095       26.492      758.963      734.118      701.812        0.343        0.110       67.583       17.398        0.066      334.756        4.938      858.125
02/04/2014  17:05:00       50.676      -47.390       -7.830       45.425       26.844       20.212     2063.427      720.606      408.541        0.403        0.160       69.382       22.381        0.104      334.613        4.701      858.118
02/04/2014  17:06:00       41.908       29.926       25.558       28.896       22.940       22.185      834.952      526.255      492.164        0.258        0.093       51.496       13.761        0.071      334.528        4.561      858.116
02/04/2014  17:07:00        0.214      -29.256        1.374       20.725       42.654       18.555      429.544     1819.328      344.290        0.173        0.130       29.257       18.737        0.410      334.575        4.638      858.119
02/04/2014  17:08:00       -0.314       23.739       34.270       16.715       18.261       10.095      279.404      333.465      101.908        0.123        0.036       23.741        9.484        0.160      334.493        4.502      858.123
02/04/2014  17:09:00       -4.263        6.899       29.165       11.790       17.161       13.802      138.997      294.508      190.489        0.077        0.031        8.110        9.981        1.515      334.519        4.544      858.138
02/04/2014  17:10:00        5.685       -7.621       17.396       14.329       27.596       16.173      205.310      761.529      261.580        0.081        0.061        9.508       16.618        3.055      334.576        4.639      858.143
02/04/2014  17:11:00       -0.274      -10.015       23.888       24.769       26.618       15.833      613.490      708.540      250.685        0.112        0.079       10.018       11.659        1.354      334.575        4.637      858.149
02/04/2014  17:12:00        8.706        0.991       41.967       18.932       37.636       18.044      358.437     1416.463      325.600        0.197        0.105        8.762       17.396        3.941      334.559        4.612      858.149
02/04/2014  17:13:00       13.370        9.911       51.291       25.039       35.618       18.577      626.927     1268.637      345.116        0.257        0.112       16.643       19.687        1.399      334.515        4.540      858.144
02/04/2014  17:14:00       13.599        9.520       38.605       26.407       36.260       19.344      697.356     1314.819      374.185        0.208        0.119       16.601       17.201        1.074      334.525        4.555      858.142
02/04/2014  17:15:00       51.432      -86.697       -4.363       21.335       24.108       14.394      455.194      581.180      207.174        0.571        0.062      100.805        5.155        0.003      334.581        4.647      858.132
02/04/2014  17:16:00       17.193      -37.953       10.344       32.111       37.567       25.143     1031.096     1411.275      632.165        0.246        0.154       41.666       21.213        0.259      334.543        4.586      858.124
02/04/2014  17:17:00       31.891      -12.259       26.990       20.516       48.050       22.784      420.915     2308.825      519.097        0.257        0.162       34.167       27.770        0.661      334.493        4.502      858.120
02/04/2014  17:18:00       34.968      -15.743       15.071       32.554       45.112       23.250     1059.759     2035.098      540.559        0.267        0.182       38.349       24.182        0.398      334.499        4.511      858.125
02/04/2014  17:19:00        3.873        5.081       12.384       28.074       26.314       20.853      788.175      692.411      434.828        0.105        0.096        6.389       16.931        7.023      334.467        4.460      858.116
02/04/2014  17:20:00        9.594      -27.940       13.376       37.636       41.426       26.474     1416.484     1716.147      700.862        0.244        0.192       29.541       23.474        0.631      334.478        4.477      858.115
02/04/2014  17:21:00       63.421      -62.130      -11.931       42.852       54.388       29.680     1836.302     2958.001      880.899        0.685        0.284       88.782       32.946        0.138      334.477        4.475      858.114
02/04/2014  17:22:00      113.442     -107.590       -9.461       35.352       36.385       25.960     1249.750     1323.889      673.946        1.389        0.162      156.348       17.457        0.012      334.531        4.566      858.102
02/04/2014  17:23:00       90.838      -53.252       12.153       51.485       52.734       34.413     2650.680     2780.905     1184.269        0.892        0.331      105.296       39.885        0.143      334.463        4.452      858.099
02/04/2014  17:24:00       78.391      -77.329      -13.290       39.981       55.796       36.700     1598.503     3113.215     1346.887        0.918        0.303      110.113       34.389        0.098      334.482        4.483      858.093
02/04/2014  17:25:00       56.286      -52.678       12.005       51.399       75.218       45.495     2641.865     5657.778     2069.829        0.823        0.518       77.092       50.034        0.421      334.434        4.405      858.081
02/04/2014  17:26:00       10.805      -42.582       19.492       36.887       40.596       26.285     1360.676     1647.996      690.925        0.300        0.185       43.932       23.649        0.290      334.477        4.476      858.086
02/04/2014  17:27:00       -5.066       13.946       38.176       36.560       33.767       22.512     1336.653     1140.240      506.806        0.233        0.149       14.838       18.827        1.610      334.374        4.306      858.079
02/04/2014  17:28:00      -24.145       -2.620       -0.600       19.657       31.739       22.430      386.408     1007.346      503.114        0.124        0.095       24.287       16.221        0.446      334.456        4.441      858.095
02/04/2014  17:29:00       11.014      -53.205       -6.810       28.306       54.710       27.113      801.245     2993.196      735.132        0.376        0.226       54.333       31.657        0.339      334.468        4.461      858.111
02/04/2014  17:30:00      -16.998      -40.064        6.886       30.648       23.054       23.505      939.281      531.466      552.497        0.198        0.101       43.521       12.686        0.085      334.498        4.509      858.128
02/04/2014  17:31:00      -14.569       -1.720        3.607       20.495       16.298       11.374      420.061      265.638      129.363        0.052        0.041       14.670        9.796        0.446      334.426        4.391      858.137
02/04/2014  17:32:00      -63.873      -20.921       -2.290       40.511       17.605       18.050     1641.132      309.946      325.818        0.340        0.114       67.212       21.577        0.103      334.374        4.304      858.146
02/04/2014  17:33:00       -2.304       -6.562       -1.350       43.540       17.155       16.012     1895.745      294.284      256.399        0.125        0.122        6.955       13.564        3.804      334.300        4.183      858.159
02/04/2014  17:34:00      -10.911      -15.839       -1.965       26.203       17.431       15.724      686.604      303.831      247.253        0.081        0.062       19.233        4.369        0.052      334.419        4.379      858.158
02/04/2014  17:35:00        2.169       19.643       38.228       27.290       24.832       24.709      744.720      616.651      610.535        0.191        0.099       19.762       20.095        1.034      334.350        4.266      858.153
02/04/2014  17:36:00       16.258       -2.052       24.266       26.985       56.337       34.044      728.196     3173.811     1159.004        0.296        0.253       16.387       37.211        5.157      334.438        4.411      858.162
02/04/2014  17:37:00       -0.865       22.325        2.938       29.686       26.170       20.203      881.241      684.844      408.174        0.124        0.099       22.341       19.402        0.754      334.328        4.228      858.165
02/04/2014  17:38:00        7.671       30.333       -5.390       27.054       26.267       13.545      731.940      689.966      183.472        0.131        0.080       31.288       13.006        0.173      334.218        4.045      858.173
02/04/2014  17:39:00       22.569        0.604        3.993       18.435       18.536       14.519      339.842      343.595      210.802        0.071        0.045       22.577        6.839        0.092      334.178        3.980      858.180
02/04/2014  17:40:00      -18.510      -14.051        2.821       15.077       15.226       11.090      227.308      231.841      122.982        0.056        0.029       23.239        6.437        0.077      334.242        4.087      858.188
02/04/2014  17:41:00       -2.901        5.077       11.124       28.562       17.202       10.954      815.760      295.894      119.990        0.069        0.062        5.847        9.922        2.880      334.129        3.897      858.204
02/04/2014  17:42:00        5.873       14.823       -3.330       19.067       13.328       12.158      363.564      177.627      147.814        0.048        0.034       15.944        7.787        0.239      334.063        3.790      858.212
02/04/2014  17:43:00      -17.812       24.764       -6.426        9.271        7.581        5.534       85.954       57.475       30.625        0.057        0.009       30.505        3.201        0.011      334.077        3.813      858.228
02/04/2014  17:44:00      -18.645       17.004        0.072       16.058       17.159       11.780      257.874      294.423      138.774        0.066        0.035       25.235        4.424        0.031      334.005        3.692      858.235
02/04/2014  17:45:00       13.377       37.721       10.574       21.823       15.814       16.161      476.242      250.096      261.189        0.135        0.049       40.022       13.544        0.115      334.058        3.779      858.241
02/04/2014  17:46:00        4.330       27.631       -4.836       13.125        9.709        9.583      172.272       94.263       91.825        0.058        0.018       27.968        3.246        0.013      334.010        3.700      858.261
02/04/2014  17:47:00       -6.950       16.751       -2.266       14.716       11.046       10.134      216.548      122.005      102.705        0.039        0.022       18.136        6.802        0.141      334.016        3.710      858.266
02/04/2014  17:48:00       -7.347       20.974       -0.552       14.754        9.378       10.519      217.685       87.946      110.651        0.046        0.021       22.223        7.343        0.109      334.080        3.816      858.289
02/04/2014  17:49:00       -8.492        4.358        4.721       19.188        8.751       10.073      368.192       76.574      101.469        0.033        0.027        9.545       10.910        1.306      334.038        3.747      858.300
02/04/2014  17:50:00      -77.050      -10.419       -4.380       18.360       12.561       10.743      337.096      157.778      115.403        0.334        0.031       77.752        7.738        0.010      334.027        3.728      858.313
02/04/2014  17:51:00      -66.246      -22.287       -6.836       24.044       19.053       13.927      578.109      363.006      193.967        0.303        0.057       69.894        4.510        0.004      334.085        3.826      858.323
02/04/2014  17:52:00     -101.338       -2.481      -11.573       29.658       32.316       14.038      879.589     1044.294      197.055        0.626        0.106      101.368        6.388        0.004      333.884        3.492      858.327
02/04/2014  17:53:00      -82.596       -8.723       -9.242       37.605       27.771       19.400     1414.142      771.217      376.374        0.477        0.128       83.055       21.796        0.069      333.771        3.305      858.330
02/04/2014  17:54:00      -83.266        4.805       -7.041       39.674       24.679       20.246     1574.031      609.074      409.891        0.480        0.130       83.404       23.407        0.079      333.793        3.341      858.331
02/04/2014  17:55:00      -77.701        0.015       -6.142       32.136       21.205       15.769     1032.716      449.650      248.675        0.390        0.087       77.701       13.732        0.031      333.891        3.505      858.334
02/04/2014  17:56:00      -73.302      -15.797       -4.412       22.483       29.273       15.066      505.507      856.920      226.991        0.362        0.079       74.985        9.594        0.016      333.882        3.489      858.338
02/04/2014  17:57:00     -101.842       -9.003      -17.211       17.118       15.865       15.686      293.042      251.696      246.044        0.577        0.040      102.240        9.319        0.008      333.658        3.118      858.359
02/04/2014  17:58:00     -111.866      -34.156      -16.553       15.987       17.770       15.075      255.571      315.779      227.263        0.738        0.040      116.964        7.616        0.004      333.666        3.130      858.382
02/04/2014  17:59:00      -98.364      -23.009       -9.018       18.580       18.450       12.116      345.233      340.419      146.790        0.556        0.042      101.019        9.420        0.009      333.723        3.225      858.401
02/04/2014  18:00:00     -114.974       -1.907      -15.232       24.171       16.781       17.296      584.253      281.608      299.137        0.731        0.058      114.989       14.040        0.015      333.782        3.323      858.421
02/04/2014  18:01:00     -108.703      -10.607       -8.014       27.100       20.721       16.752      734.403      429.367      280.625        0.672        0.072      109.219       14.173        0.017      333.810        3.369      858.427
02/04/2014  18:02:00     -116.328       17.728      -12.138       21.907       21.170       13.289      479.911      448.166      176.595        0.755        0.055      117.671        7.435        0.004      333.841        3.421      858.434
02/04/2014  18:03:00     -109.094        9.968      -17.239       20.066       25.788       12.245      402.632      665.011      149.933        0.676        0.061      109.549        5.519        0.003      333.844        3.425      858.446
02/04/2014  18:04:00      -57.157       10.632       -7.981       25.991       28.916       15.945      675.533      836.116      254.237        0.260        0.088       58.137       15.337        0.070      333.677        3.148      858.451
02/04/2014  18:05:00      -57.490       21.460       -6.593       16.671       26.224       16.665      277.936      687.700      277.721        0.253        0.062       61.364       12.261        0.040      333.643        3.093      858.475
02/04/2014  18:06:00      -66.784       35.949      -18.312       18.965       44.957       12.586      359.661     2021.161      158.419        0.431        0.127       75.845       11.754        0.024      333.728        3.233      858.482
02/04/2014  18:07:00      -54.688      -11.255       -6.288       16.204       12.888       12.962      262.557      166.101      168.012        0.188        0.030       55.834        9.754        0.031      333.681        3.154      858.490
02/04/2014  18:08:00      -35.059       -1.006       -3.943       15.845       13.524       12.040      251.053      182.897      144.956        0.091        0.029       35.073        7.258        0.043      333.730        3.237      858.503
02/04/2014  18:09:00      -38.663        3.841        1.749       19.761       10.166       11.351      390.484      103.341      128.851        0.107        0.031       38.853       11.316        0.085      333.842        3.421      858.501
02/04/2014  18:10:00      -25.478        1.283       -7.196       18.701       10.704        9.171      349.734      114.566       84.100        0.063        0.027       25.511        8.035        0.099      333.842        3.423      858.503
02/04/2014  18:11:00      -31.786       -6.113        2.312       10.679        9.568        7.838      114.042       91.550       61.438        0.066        0.013       32.368        6.856        0.045      333.833        3.408      858.511
02/04/2014  18:12:00      -29.569       -6.463        1.708       13.303       10.007       10.870      176.981      100.144      118.149        0.066        0.020       30.267        9.471        0.098      333.676        3.147      858.507
02/04/2014  18:13:00      -37.584      -15.083       -4.729       18.733       10.504        9.861      350.940      110.343       97.232        0.111        0.028       40.498        7.633        0.036      333.624        3.060      858.510
02/04/2014  18:14:00      -53.480      -19.886       -2.489       16.384       10.340        9.552      268.437      106.911       91.243        0.186        0.023       57.057        8.485        0.022      333.659        3.119      858.521
02/04/2014  18:15:00      -61.247      -17.375       -8.024       10.031        9.629        8.876      100.614       92.708       78.782        0.219        0.014       63.664        6.171        0.009      333.699        3.184      858.519
02/04/2014  18:16:00      -53.475      -12.433       -4.046       10.979       17.524       10.156      120.532      307.091      103.147        0.178        0.027       54.902        6.805        0.015      333.693        3.176      858.531
02/04/2014  18:17:00      -59.767      -13.796       -3.969       14.123       12.882        6.806      199.468      165.939       46.316        0.209        0.021       61.339        4.383        0.005      333.733        3.241      858.528
02/04/2014  18:18:00      -79.929      -19.659       -6.340       23.880       24.044       15.130      570.239      578.122      228.904        0.410        0.069       82.311       10.226        0.015      333.486        2.833      858.520
02/04/2014  18:19:00      -93.115       -5.161       -9.123       24.910       17.061       11.828      620.515      291.088      139.898        0.492        0.053       93.258       10.134        0.012      333.342        2.593      858.511
02/04/2014  18:20:00      -71.789       -8.570       -9.039       18.094       13.786       10.397      327.408      190.051      108.090        0.297        0.031       72.299        5.547        0.006      333.396        2.682      858.513
02/04/2014  18:21:00      -67.303       -6.544       -5.112       17.849       12.147        8.430      318.593      147.554       71.070        0.257        0.027       67.620        6.859        0.010      333.425        2.730      858.509
02/04/2014  18:22:00      -56.085       -7.665       -4.939       14.220       10.776        7.050      202.213      116.116       49.701        0.180        0.018       56.607        5.277        0.009      333.467        2.800      858.507
02/04/2014  18:23:00      -31.770      -25.752       -1.973       15.676       11.008        8.762      245.742      121.182       76.768        0.106        0.022       40.896        8.426        0.042      333.496        2.847      858.499
02/04/2014  18:24:00      -40.552      -24.515       -3.116       12.847       13.973        6.545      165.054      195.242       42.840        0.133        0.020       47.386        5.283        0.012      333.533        2.908      858.497
02/04/2014  18:25:00      -42.694      -31.086        3.514       19.580       11.401       13.306      383.382      129.976      177.045        0.175        0.035       52.812       12.936        0.060      333.518        2.884      858.492
02/04/2014  18:26:00      -46.956      -24.835       -2.357       16.670       14.082       10.245      277.892      198.304      104.950        0.170        0.029       53.119        9.695        0.033      333.578        2.984      858.489
02/04/2014  18:27:00      -51.995      -13.451        3.646       39.656       21.467       14.806     1572.577      460.822      219.230        0.257        0.113       53.706       18.426        0.118      333.493        2.844      858.484
02/04/2014  18:28:00      -59.575      -20.226       -5.276       23.355       16.211       13.633      545.444      262.807      185.853        0.249        0.050       62.915       10.538        0.028      333.208        2.373      858.493
02/04/2014  18:29:00      -23.474       -5.190       -0.314       23.135       18.757       17.096      535.224      351.820      292.259        0.088        0.059       24.041       11.975        0.248      333.173        2.313      858.502
02/04/2014  18:30:00      -46.585      -12.293       -7.751       36.374       16.409       14.887     1323.068      269.255      221.611        0.210        0.091       48.180       14.972        0.097      333.187        2.336      858.517
02/04/2014  18:31:00      -57.858      -14.638      -11.016       20.726       14.347       10.948      429.560      205.839      119.856        0.222        0.038       59.681        8.762        0.022      333.122        2.229      858.538
02/04/2014  18:32:00      -43.808      -20.318      -10.898       25.514       13.265        9.626      650.941      175.955       92.654        0.168        0.046       48.290        9.357        0.038      333.150        2.272      858.555
02/04/2014  18:33:00      -30.716      -13.776       -5.294       13.369       13.047        9.107      178.739      170.225       82.942        0.080        0.022       33.664        6.142        0.033      333.170        2.309      858.566
02/04/2014  18:34:00      -43.230      -15.519      -11.101       11.543       15.387       11.077      133.242      236.752      122.692        0.136        0.025       45.932        3.928        0.007      333.211        2.376      858.571
02/04/2014  18:35:00      -45.860      -15.397      -12.758        8.705        9.317        6.238       75.782       86.802       38.913        0.135        0.010       48.376        3.074        0.004      333.321        2.560      858.580
02/04/2014  18:36:00      -34.512      -11.346       -0.126       14.787        6.934        9.429      218.663       48.075       88.914        0.084        0.018       36.329        9.283        0.065      333.554        2.945      858.593
02/04/2014  18:37:00      -28.977       -4.667       -3.341       17.220       13.035        8.629      296.514      169.899       74.456        0.071        0.027       29.350        6.412        0.048      333.510        2.872      858.615
02/04/2014  18:38:00      -18.362       -1.875       -6.283       12.079       11.012        5.331      145.894      121.260       28.416        0.034        0.015       18.458        3.270        0.031      333.468        2.801      858.626
02/04/2014  18:39:00      -41.572      -12.283       -4.061       11.926        8.043        8.041      142.218       64.698       64.658        0.108        0.014       43.349        5.097        0.014      333.342        2.594      858.648
02/04/2014  18:40:00      -84.762      -25.597      -14.091       23.823       11.453        9.211      567.556      131.172       84.847        0.441        0.039       88.542        5.351        0.004      333.132        2.245      858.666
02/04/2014  18:41:00      -86.791      -38.512      -13.841       21.210       19.331       17.157      449.872      373.670      294.364        0.516        0.056       94.952       12.876        0.018      333.031        2.080      858.670
02/04/2014  18:42:00      -71.205      -21.007       -5.994       19.251       13.477       11.862      370.615      181.643      140.701        0.312        0.035       74.239        6.431        0.008      333.042        2.096      858.679
02/04/2014  18:43:00      -47.296      -36.548      -16.869       18.239       13.037       10.980      332.646      169.955      120.562        0.224        0.031       59.772        6.251        0.011      333.040        2.094      858.685
02/04/2014  18:44:00      -80.631      -22.131      -13.488       14.784        9.067        9.029      218.570       82.208       81.519        0.378        0.019       83.613        4.836        0.003      333.042        2.100      858.695
02/04/2014  18:45:00      -82.897      -11.240      -11.408       15.255       12.658        9.886      232.707      160.214       97.732        0.381        0.025       83.656        9.624        0.013      333.094        2.183      858.695
02/04/2014  18:46:00      -75.617      -20.704       -5.046       18.268       13.705       11.729      333.726      187.837      137.574        0.342        0.033       78.400        7.901        0.010      333.148        2.272      858.705
02/04/2014  18:47:00      -97.626      -28.763       -2.586       31.406       18.597       18.415      986.318      345.836      339.124        0.602        0.084      101.775       16.680        0.027      333.162        2.296      858.718
02/04/2014  18:48:00      -81.494      -56.400        3.515       57.353       25.212       23.575     3289.310      635.622      555.781        0.716        0.224       99.107       19.834        0.040      333.101        2.195      858.736
02/04/2014  18:49:00     -114.876      -65.837       -0.810       43.691       31.556       20.371     1908.904      995.790      414.978        1.043        0.166      132.405       18.581        0.020      333.095        2.187      858.750
02/04/2014  18:50:00     -100.419      -31.329       -0.322       27.307       22.664       16.262      745.674      513.644      264.441        0.629        0.076      105.193       14.439        0.019      333.065        2.136      858.746
02/04/2014  18:51:00      -70.620       -4.093       -8.591       14.843       17.689       10.796      220.326      312.890      116.545        0.286        0.032       70.739        6.311        0.008      333.040        2.094      858.740
02/04/2014  18:52:00      -54.681       13.919      -10.005       14.613       12.706       11.925      213.551      161.453      142.217        0.190        0.026       56.424        9.978        0.031      332.990        2.012      858.741
02/04/2014  18:53:00      -64.784       14.955       -9.672        9.544        8.090        8.077       91.088       65.446       65.233        0.237        0.011       66.488        4.120        0.004      333.111        2.213      858.730
02/04/2014  18:54:00      -80.354        1.919      -12.826       16.047       13.110        8.802      257.508      171.870       77.479        0.357        0.025       80.377        5.163        0.004      333.132        2.246      858.717
02/04/2014  18:55:00      -96.414      -26.690       -6.109       24.893       26.188       12.606      619.668      685.816      158.922        0.575        0.073      100.040       10.433        0.011      333.014        2.052      858.721
02/04/2014  18:56:00     -125.966      -24.493       -9.349       40.715       29.867       21.121     1657.746      892.066      446.077        0.977        0.150      128.325       15.582        0.015      332.858        1.794      858.737
02/04/2014  18:57:00     -103.420      -52.340       -6.101       48.290       36.107       22.149     2331.933     1303.693      490.592        0.880        0.206      115.910       10.798        0.009      332.869        1.812      858.739
02/04/2014  18:58:00      -74.898      -43.742       -0.591       39.715       37.338       17.545     1577.265     1394.109      307.842        0.540        0.164       86.735       13.624        0.025      332.829        1.748      858.743
02/04/2014  18:59:00      -27.482       -5.395        1.847       15.921       16.489       14.234      253.491      271.873      202.600        0.076        0.036       28.006       12.053        0.185      332.864        1.805      858.743
02/04/2014  19:00:00      -44.628       -3.193       -6.355        8.013        9.283        7.525       64.206       86.169       56.620        0.112        0.010       44.743        2.992        0.004      332.954        1.952      858.745
02/04/2014  19:01:00      -63.685       -6.073       -6.412       20.038       11.892        9.246      401.527      141.418       85.480        0.238        0.031       63.974        8.999        0.020      332.970        1.979      858.746
02/04/2014  19:02:00     -101.222      -12.910       -7.348       22.850       14.459       12.325      522.105      209.067      151.911        0.567        0.044      102.042       13.608        0.018      332.917        1.893      858.753
02/04/2014  19:03:00     -102.305       -4.159      -14.626       19.147       13.500       11.502      366.619      182.245      132.285        0.569        0.034      102.390       10.135        0.010      332.806        1.709      858.774
02/04/2014  19:04:00      -62.606        1.485      -13.274       16.495       14.213       10.819      272.070      202.010      117.042        0.234        0.030       62.624        7.246        0.013      332.776        1.659      858.769
02/04/2014  19:05:00      -37.488        0.254       -5.659       20.312        9.049        8.439      412.594       81.881       71.224        0.100        0.028       37.489       10.638        0.081      332.877        1.827      858.767
02/04/2014  19:06:00       16.800       20.674       -0.599       13.076       20.622        7.824      170.985      425.265       61.219        0.068        0.033       26.640        9.672        0.132      333.190        2.343      858.774
02/04/2014  19:07:00        1.857       17.216       -3.133        9.543       11.027        8.146       91.074      121.590       66.355        0.029        0.014       17.316        6.391        0.136      333.233        2.413      858.789
02/04/2014  19:08:00      -55.874      -11.781       -3.950       31.670       19.441       11.239     1002.965      377.942      126.309        0.239        0.075       57.103        9.268        0.026      333.029        2.077      858.801
02/04/2014  19:09:00     -128.247      -37.279      -14.126       17.773       20.317        9.953      315.886      412.795       99.061        0.943        0.041      133.555        6.900        0.003      332.768        1.646      858.818
02/04/2014  19:10:00     -135.034      -32.084      -16.760       24.678       19.749       20.434      608.994      390.024      417.554        1.048        0.071      138.793       12.413        0.008      332.583        1.339      858.838
02/04/2014  19:11:00     -142.342      -14.715      -18.391       24.317       23.399       20.998      591.304      547.528      440.918        1.120        0.079      143.101       15.258        0.011      332.577        1.329      858.843
02/04/2014  19:12:00      -88.645       19.623      -15.258       21.565       16.901       12.707      465.054      285.644      161.468        0.469        0.046       90.791        5.567        0.004      332.524        1.241      858.836
02/04/2014  19:13:00      -29.552       40.715      -12.585       34.740       24.547        7.098     1206.852      602.579       50.384        0.227        0.093       50.309       10.764        0.046      332.891        1.848      858.835
02/04/2014  19:14:00       41.879       73.692       -4.425       25.776       30.011       17.674      664.416      900.657      312.362        0.454        0.094       84.760       15.002        0.031      333.059        2.127      858.841
02/04/2014  19:15:00       69.833       60.719        3.471       34.318       30.648       23.441     1177.756      939.313      549.478        0.562        0.133       92.539       19.496        0.044      332.896        1.858      858.843
02/04/2014  19:16:00       97.183       69.853        4.541       36.902       27.439       27.991     1361.757      752.892      783.518        0.862        0.145      119.683       19.784        0.027      332.965        1.971      858.847
02/04/2014  19:17:00       78.749       59.672       -0.119       38.770       29.467       21.378     1503.105      868.277      457.020        0.629        0.141       98.803        5.735        0.003      332.905        1.873      858.856
02/04/2014  19:18:00       52.390       42.898       -1.547       36.406       28.571       22.654     1325.369      816.328      513.199        0.362        0.133       67.712       21.563        0.101      332.943        1.934      858.870
02/04/2014  19:19:00        6.142       56.818       -2.563       35.118       24.954       15.312     1233.298      622.688      234.456        0.268        0.105       57.149       15.551        0.074      332.969        1.978      858.888
02/04/2014  19:20:00      -85.055       13.094      -12.977       23.160       40.197       17.404      536.390     1615.810      302.906        0.501        0.123       86.058       13.271        0.024      332.668        1.480      858.910
02/04/2014  19:21:00     -164.088       19.981      -16.392       84.634       43.234       31.562     7162.849     1869.172      996.184        1.881        0.501      165.300       35.668        0.047      332.522        1.237      858.941
02/04/2014  19:22:00     -152.428       18.780      -19.599       44.538       31.242       22.557     1983.632      976.032      508.809        1.372        0.173      153.580       13.954        0.008      332.532        1.257      858.961
02/04/2014  19:23:00      -65.708       33.748      -17.391       32.558       31.752       15.210     1060.023     1008.162      231.340        0.403        0.115       73.868        8.987        0.015      332.808        1.712      858.957
02/04/2014  19:24:00       29.113       36.140       14.497       38.274       27.456       21.532     1464.905      753.832      463.639        0.252        0.134       46.408       17.527        0.143      332.884        1.839      858.942
02/04/2014  19:25:00       39.650       48.588        4.577       29.215       24.144       21.352      853.527      582.941      455.904        0.292        0.095       62.713       16.005        0.065      332.805        1.708      858.935
02/04/2014  19:26:00       44.028       76.714       -2.004       28.922       37.427       24.549      836.464     1400.753      602.639        0.533        0.142       88.450       19.470        0.048      332.763        1.638      858.931
02/04/2014  19:27:00       37.371       49.498       12.694       39.763       41.711       28.353     1581.120     1739.777      803.915        0.407        0.206       62.021       23.424        0.143      332.812        1.720      858.937
02/04/2014  19:28:00       30.596       75.942       -7.695       29.529       50.553       24.840      871.950     2555.610      617.013        0.540        0.202       81.874       29.034        0.126      332.799        1.697      858.940
02/04/2014  19:29:00        3.523      136.893      -28.576       30.574       24.203       13.554      934.770      585.808      183.714        1.064        0.085      136.939        5.052        0.001      332.790        1.682      858.959
02/04/2014  19:30:00      -74.878       25.091      -16.461       28.869       57.990       20.132      833.445     3362.783      405.280        0.555        0.230       78.970       22.010        0.078      332.889        1.846      858.986
02/04/2014  19:31:00     -104.273       -6.978      -13.104       31.919       44.600       28.593     1018.848     1989.125      817.554        0.746        0.191      104.507       14.950        0.020      332.719        1.564      858.982
02/04/2014  19:32:00      -89.388       16.608      -20.971       37.293       28.162       19.986     1390.769      793.120      399.450        0.564        0.129       90.918       11.356        0.016      332.717        1.562      858.987
02/04/2014  19:33:00       -2.343       64.745        0.667       42.337       47.532       29.226     1792.438     2259.261      854.188        0.455        0.245       64.788       20.380        0.099      332.807        1.709      858.983
02/04/2014  19:34:00       50.030       83.028       -0.726       36.392       33.742       29.023     1324.407     1138.553      842.315        0.635        0.165       96.937       25.369        0.068      332.865        1.807      858.974
02/04/2014  19:35:00      135.149       76.264       10.526       54.015       37.476       32.351     2917.624     1404.416     1046.602        1.478        0.268      155.182       20.693        0.018      332.849        1.780      858.967
02/04/2014  19:36:00       85.914       45.104        7.778       39.934       34.932       26.264     1594.753     1220.218      689.785        0.649        0.175       97.034       11.439        0.014      332.807        1.710      858.988
02/04/2014  19:37:00       24.697       57.708       -4.644       39.531       22.716       19.417     1562.663      516.027      377.027        0.321        0.123       62.770       16.781        0.071      332.761        1.634      859.008
02/04/2014  19:38:00       43.053       69.212       -2.662       36.195       24.324       18.317     1310.079      591.644      335.522        0.444        0.112       81.510       16.024        0.039      332.764        1.640      859.029
02/04/2014  19:39:00       53.418       58.368       -2.594       25.001       26.248       21.749      625.070      688.972      473.019        0.403        0.089       79.122       18.521        0.055      332.721        1.569      859.018
02/04/2014  19:40:00       68.699       51.147        2.909       22.653       20.729       16.881      513.166      429.679      284.974        0.429        0.061       85.648        7.393        0.007      332.717        1.562      859.010
02/04/2014  19:41:00       74.258       69.762        5.608       44.429       28.189       33.356     1973.923      794.618     1112.631        0.715        0.194      101.887       21.035        0.043      332.687        1.512      859.019
02/04/2014  19:42:00       36.767       97.650       -1.303       29.224       47.559       35.480      854.032     2261.841     1258.807        0.763        0.219      104.343       33.057        0.100      332.694        1.524      859.017
02/04/2014  19:43:00       45.373      118.536       -5.217       35.054       55.042       37.004     1228.789     3029.622     1369.322        1.088        0.281      126.924       35.811        0.080      332.725        1.574      859.021
02/04/2014  19:44:00      136.241       89.774       -1.616       54.253       37.537       30.831     2943.429     1409.013      950.540        1.596        0.265      163.159       15.162        0.009      332.742        1.601      859.011
02/04/2014  19:45:00      139.447       74.877        7.449       49.913       36.890       33.532     2491.287     1360.884     1124.411        1.504        0.249      158.278       26.770        0.029      332.702        1.536      858.999
02/04/2014  19:46:00      104.710       71.968       23.641       50.981       36.646       33.096     2599.023     1342.920     1095.354        1.087        0.252      127.057       25.952        0.042      332.677        1.496      859.006
02/04/2014  19:47:00      145.084       80.259       21.521       50.413       44.481       35.604     2541.474     1978.524     1267.625        1.687        0.289      165.803       23.379        0.020      332.645        1.441      859.009
02/04/2014  19:48:00       97.528       65.014       13.529       65.267       49.977       39.589     4259.735     2497.714     1567.250        1.112        0.416      117.212       23.736        0.041      332.620        1.401      859.028
02/04/2014  19:49:00       34.901       88.640        0.893       50.737       54.390       37.470     2574.268     2958.262     1404.021        0.801        0.347       95.263       37.054        0.151      332.570        1.317      859.056
02/04/2014  19:50:00      -58.793       67.391       -8.560       33.808       65.364       22.760     1142.980     4272.430      518.038        0.700        0.297       89.433       20.958        0.055      332.759        1.631      859.076
02/04/2014  19:51:00     -108.098       20.519      -14.235       31.174       34.562       20.054      971.789     1194.533      402.181        0.744        0.128      110.028       11.240        0.010      332.742        1.603      859.116
02/04/2014  19:52:00     -183.238       16.680      -21.620       45.600       35.930       23.082     2079.403     1290.943      532.780        1.911        0.195      183.995       24.497        0.018      332.726        1.573      859.153
02/04/2014  19:53:00      -87.194       36.706      -22.520       28.872       26.324       21.457      833.616      692.968      460.403        0.572        0.099       94.605       10.291        0.012      332.708        1.545      859.165
02/04/2014  19:54:00       -9.126       66.717      -11.850       55.686       35.844       22.144     3100.877     1284.792      490.372        0.477        0.244       67.339       23.075        0.117      332.796        1.694      859.156
02/04/2014  19:55:00        5.000       58.502      -12.848       34.252       20.579       21.114     1173.230      423.509      445.810        0.283        0.102       58.715       24.658        0.176      332.824        1.738      859.145
02/04/2014  19:56:00       15.210       61.381      -12.662       24.997       15.293       11.593      624.847      233.888      134.398        0.258        0.050       63.237        8.060        0.016      332.833        1.754      859.139
02/04/2014  19:57:00        0.256      147.662      -18.446       26.345       33.985       15.537      694.036     1154.977      241.405        1.212        0.105      147.662       14.316        0.009      332.802        1.702      859.133
02/04/2014  19:58:00       15.727      109.458      -15.974       25.072       30.225       18.202      628.623      913.521      331.325        0.718        0.094      110.582       16.633        0.023      332.736        1.594      859.133
02/04/2014  19:59:00       28.241       63.412      -13.006       24.978       22.111       16.105      623.903      488.910      259.362        0.318        0.069       69.416       13.795        0.039      332.716        1.560      859.134
02/04/2014  20:00:00      -23.345       64.687      -18.966       17.942       19.909       11.644      321.903      396.357      135.586        0.297        0.043       68.771        4.531        0.004      332.867        1.809      859.158
02/04/2014  20:01:00       -2.961       63.792      -21.315       17.540       20.449       12.459      307.651      418.171      155.237        0.271        0.044       63.861       11.229        0.031      332.786        1.676      859.195
02/04/2014  20:02:00       64.479       49.204        3.465       24.603       16.775       22.344      605.313      281.385      499.242        0.399        0.069       81.109       13.817        0.029      332.696        1.526      859.210
02/04/2014  20:03:00       75.119       46.866       -1.365       17.317       17.386       15.233      299.884      302.259      232.043        0.434        0.042       88.540        6.913        0.006      332.727        1.579      859.229
02/04/2014  20:04:00       77.124       59.800       11.277       19.381       13.331       15.459      375.619      177.709      238.972        0.522        0.040       97.591        8.400        0.007      332.733        1.589      859.246
02/04/2014  20:05:00       92.240       69.885       28.668       23.139       21.350       27.655      535.412      455.803      764.783        0.798        0.088      115.724        6.199        0.003      332.808        1.713      859.240
02/04/2014  20:06:00        3.003       54.615       54.216       30.636       27.147       27.582      938.576      736.980      760.765        0.418        0.122       54.697       24.897        0.207      332.752        1.621      859.241
02/04/2014  20:07:00       47.427       57.051       38.828       39.326       24.015       27.783     1546.551      576.697      771.909        0.495        0.145       74.190       28.322        0.146      332.759        1.631      859.248
02/04/2014  20:08:00       68.979       36.106       25.167       25.782       19.507       24.713      664.687      380.504      610.741        0.418        0.083       77.857       15.203        0.038      332.778        1.661      859.260
02/04/2014  20:09:00      144.789       70.183       21.909       40.102       29.532       30.052     1608.158      872.135      903.135        1.488        0.169      160.902       23.732        0.022      332.696        1.528      859.253
02/04/2014  20:10:00      132.101       70.616       23.134       31.903       20.712       26.186     1017.797      429.002      685.714        1.255        0.107      149.791        7.401        0.002      332.644        1.442      859.254
02/04/2014  20:11:00       99.581       43.647        6.988       38.246       29.990       26.841     1462.727      899.416      720.429        0.748        0.154      108.726        8.005        0.005      332.657        1.464      859.271
02/04/2014  20:12:00       54.240       29.147        5.149       18.825       18.886       14.364      354.396      356.670      206.315        0.237        0.046       61.575       11.803        0.037      332.645        1.442      859.293
02/04/2014  20:13:00       85.346       45.854        3.754       19.301       19.291       12.307      372.528      372.126      151.458        0.515        0.045       96.884        9.729        0.010      332.637        1.429      859.285
02/04/2014  20:14:00      105.740       59.936       30.965       38.688       29.732       33.364     1496.763      884.003     1113.156        0.961        0.175      121.546       26.121        0.046      332.657        1.461      859.272
02/04/2014  20:15:00       13.003       42.776       46.242       36.468       31.967       29.769     1329.917     1021.898      886.222        0.369        0.162       44.709       28.064        0.394      332.618        1.398      859.290
02/04/2014  20:16:00       64.430       20.679       15.421       32.058       22.493       21.892     1027.698      505.943      479.269        0.341        0.101       67.668       19.235        0.081      332.638        1.430      859.318
02/04/2014  20:17:00       86.415       71.385       38.131       39.687       23.635       24.996     1575.093      558.608      624.810        0.839        0.138      112.087       17.534        0.024      332.651        1.453      859.311
02/04/2014  20:18:00       90.454       45.040       20.797       48.925       32.827       23.559     2393.679     1077.634      555.035        0.733        0.201      101.047       12.353        0.015      332.630        1.418      859.330
02/04/2014  20:19:00       13.563       10.892        3.172       21.243       15.789       15.256      451.246      249.295      232.757        0.062        0.047       17.395        8.174        0.221      332.568        1.315      859.374
02/04/2014  20:20:00       25.147       30.456       -7.429       13.052       23.767        7.947      170.344      564.873       63.153        0.121        0.040       39.496        7.712        0.038      332.653        1.455      859.414
02/04/2014  20:21:00        7.976       53.171       -8.876       12.752       23.704        9.315      162.624      561.861       86.776        0.189        0.041       53.766        7.605        0.020      332.635        1.426      859.431
02/04/2014  20:22:00       13.944       61.332       -3.179       21.408       27.533       16.956      458.300      758.059      287.505        0.273        0.075       62.897       13.159        0.044      332.611        1.386      859.426
02/04/2014  20:23:00       33.470       51.778       -3.039       21.298       25.624       12.534      453.618      656.607      157.104        0.254        0.063       61.654       10.785        0.031      332.605        1.376      859.430
02/04/2014  20:24:00       62.932       50.880        4.034       26.285       24.703       21.515      690.920      610.260      462.912        0.416        0.088       80.927       16.272        0.040      332.570        1.319      859.433
02/04/2014  20:25:00       65.710       60.922       -8.362       27.458       28.840       18.600      753.922      831.774      345.963        0.502        0.097       89.607       14.792        0.027      332.606        1.379      859.437
02/04/2014  20:26:00       31.150       54.826       -2.210       18.538       31.539       19.945      343.649      994.740      397.805        0.286        0.087       63.057       18.635        0.087      332.613        1.389      859.458
02/04/2014  20:27:00       -9.814      120.921      -27.610       30.067       19.618       10.452      904.024      384.851      109.247        0.844        0.070      121.318       11.474        0.009      332.725        1.575      859.487
02/04/2014  20:28:00      -28.513       39.893       -2.596       29.837       35.380       18.592      890.220     1251.740      345.651        0.245        0.124       49.035       17.408        0.126      332.743        1.604      859.505
02/04/2014  20:29:00      -19.876       78.383      -16.259       51.514       39.856       18.663     2653.739     1588.486      348.320        0.570        0.230       80.864       14.564        0.032      332.753        1.620      859.519
02/04/2014  20:30:00       28.695       70.311       -3.476       26.307       49.581       24.372      692.042     2458.246      593.997        0.476        0.187       75.941       24.146        0.101      332.717        1.561      859.507
02/04/2014  20:31:00       30.972       55.272       -5.502       41.000       25.615       21.356     1680.975      656.108      456.088        0.342        0.140       63.358       18.444        0.085      332.666        1.478      859.495
02/04/2014  20:32:00       17.969       68.985      -12.548       28.829       33.849       19.831      831.138     1145.758      393.269        0.380        0.119       71.286       18.497        0.067      332.718        1.564      859.513
02/04/2014  20:33:00       14.105       66.762        5.813       38.350       58.896       30.699     1470.696     3468.717      942.416        0.528        0.294       68.236       35.493        0.271      332.733        1.587      859.517
02/04/2014  20:34:00       -0.737       95.972      -16.692       28.436       23.089       13.865      808.611      533.116      192.251        0.551        0.077       95.975       12.647        0.017      332.752        1.619      859.528
02/04/2014  20:35:00      -58.741       34.343       -7.821       18.589       19.905       17.290      345.540      396.199      298.955        0.287        0.052       68.044       10.601        0.024      332.786        1.674      859.539
02/04/2014  20:36:00      -32.435        4.284       -8.804       12.908       15.612        8.876      166.622      243.734       78.779        0.082        0.024       32.717        7.672        0.055      332.797        1.695      859.557
02/04/2014  20:37:00       -7.369       19.131        2.903       10.569       12.005        9.857      111.710      144.117       97.159        0.039        0.018       20.501        6.514        0.101      332.851        1.783      859.576
02/04/2014  20:38:00       17.564       23.330        5.191       17.773       19.885       11.905      315.887      395.427      141.731        0.087        0.043       29.202       10.988        0.142      332.825        1.741      859.581
02/04/2014  20:39:00       44.518       24.152        0.890       20.738       20.515       16.065      430.076      420.862      258.098        0.184        0.055       50.648       10.247        0.041      332.788        1.678      859.581
02/04/2014  20:40:00       32.322       45.514        5.453       27.470       24.662       20.988      754.600      608.234      440.499        0.247        0.090       55.824       18.661        0.112      332.762        1.634      859.581
02/04/2014  20:41:00       22.122       42.604       -0.234       21.022       23.153       15.999      441.918      536.043      255.955        0.177        0.062       48.005       11.188        0.054      332.752        1.619      859.592
02/04/2014  20:42:00        8.214       54.481       -9.922       19.948       32.538       12.443      397.927     1058.691      154.840        0.237        0.081       55.096       14.566        0.070      332.808        1.713      859.613
02/04/2014  20:43:00        6.865       99.355       -4.700       49.478       41.602       29.617     2448.070     1730.699      877.194        0.750        0.253       99.592       25.293        0.064      333.115        2.220      859.645
02/04/2014  20:44:00       44.384      136.034      -19.778       47.519       53.313       35.392     2258.059     2842.313     1252.618        1.361        0.318      143.091       34.046        0.057      332.880        1.833      859.652
02/04/2014  20:45:00       29.965       72.544       -2.313       31.378       53.998       29.033      984.598     2915.756      842.910        0.545        0.237       78.489       32.263        0.169      332.838        1.761      859.658
02/04/2014  20:46:00        0.744       71.552      -11.068       26.283       23.277       15.054      690.810      541.801      226.611        0.335        0.073       71.556       12.204        0.029      332.945        1.940      859.666
02/04/2014  20:47:00        9.642       54.508       -7.701       16.550       13.518       13.853      273.889      182.725      191.918        0.189        0.032       55.355        5.438        0.010      333.041        2.096      859.671
02/04/2014  20:48:00       22.095       34.435        0.888       14.927       21.871       12.666      222.812      478.331      160.436        0.127        0.043       40.914        8.239        0.041      333.015        2.053      859.667
02/04/2014  20:49:00       66.575       26.585        8.553       25.789       23.983       22.246      665.063      575.167      494.894        0.347        0.087       71.687        9.398        0.017      332.916        1.891      859.646
02/04/2014  20:50:00       31.908       81.763       -6.033       36.130       54.762       29.327     1305.395     2998.858      860.088        0.645        0.258       87.768       31.995        0.133      332.833        1.752      859.680
02/04/2014  20:51:00        2.267      104.376       -7.869       30.544       41.440       29.097      932.951     1717.272      846.625        0.723        0.175      104.400       27.827        0.071      332.857        1.793      859.705
02/04/2014  20:52:00       23.151       89.057       -6.941       28.146       37.107       25.695      792.189     1376.929      660.253        0.567        0.141       92.017       22.927        0.062      332.818        1.729      859.703
02/04/2014  20:53:00       34.665       56.018       -0.226       42.920       49.158       33.536     1842.145     2416.461     1124.660        0.486        0.269       65.876       31.440        0.228      332.758        1.628      859.712
02/04/2014  20:54:00       20.811       86.658        4.630       44.451       57.271       32.722     1975.898     3279.996     1070.739        0.714        0.316       89.122       31.819        0.127      332.789        1.679      859.735
02/04/2014  20:55:00      -11.583       72.366       -8.590       20.941       34.184       24.110      438.518     1168.572      581.291        0.382        0.109       73.287       20.810        0.081      332.922        1.901      859.745
02/04/2014  20:56:00       -7.913       25.896      -12.514       41.754       32.278       15.616     1743.390     1041.896      243.872        0.196        0.151       27.078        7.009        0.067      332.868        1.811      859.750
02/04/2014  20:57:00      -66.237       -4.670      -10.938       16.668       17.538       12.839      277.812      307.575      164.845        0.264        0.038       66.401        6.610        0.010      332.764        1.638      859.750
02/04/2014  20:58:00      -13.778        3.611       -6.682       13.086       13.249       10.487      171.250      175.526      109.985        0.035        0.023       14.244        7.878        0.306      332.844        1.772      859.763
02/04/2014  20:59:00      -18.860      -23.795       -6.066       16.488       16.668       11.619      271.860      277.835      135.002        0.082        0.034       30.363        5.503        0.033      332.931        1.912      859.760
02/04/2014  21:00:00      -21.598      -12.302       -1.983       12.616       13.005       11.586      159.160      169.137      134.226        0.054        0.023       24.856        7.093        0.081      332.964        1.967      859.759
02/04/2014  21:01:00       -8.852       -9.212        8.239       18.053        8.050        6.636      325.923       64.795       44.035        0.033        0.022       12.775        4.462        0.122      333.028        2.075      859.760
02/04/2014  21:02:00      -19.745      -25.485        4.572       25.612       17.935       11.095      655.950      321.649      123.095        0.108        0.055       32.239       12.971        0.162      333.069        2.142      859.750
02/04/2014  21:03:00      -50.484      -28.877       -4.214       14.631       13.519        7.379      214.079      182.755       54.450        0.193        0.023       58.159        4.283        0.005      333.043        2.103      859.750
02/04/2014  21:04:00      -43.627      -14.821       -2.441       17.490        9.979        8.451      305.893       99.588       71.423        0.130        0.024       46.076        8.117        0.031      333.058        2.125      859.751
02/04/2014  21:05:00      -25.335      -15.523        4.358       19.027       15.459       10.521      362.017      238.973      110.686        0.081        0.036       29.713        8.100        0.074      333.048        2.109      859.766
02/04/2014  21:06:00        5.466      -10.520       -0.655       10.450       16.263       19.677      109.203      264.473      387.192        0.045        0.038       11.855       10.230        0.745      333.139        2.258      859.778
02/04/2014  21:07:00        1.981       27.751        8.464        7.882        9.936       11.989       62.134       98.730      143.740        0.058        0.015       27.822        6.826        0.060      333.011        2.045      859.795
02/04/2014  21:08:00        7.626        3.661       -2.642        9.850       13.224        9.686       97.024      174.886       93.823        0.022        0.018        8.459        4.725        0.312      333.037        2.090      859.812
02/04/2014  21:09:00      -18.218       -9.445      -14.235       13.522       12.225        9.771      182.853      149.446       95.477        0.053        0.021       20.521        7.405        0.130      333.080        2.160      859.821
02/04/2014  21:10:00      -15.648       -7.615      -11.812       13.002       13.630        6.346      169.041      185.780       40.272        0.042        0.020       17.402        3.342        0.037      333.210        2.374      859.835
02/04/2014  21:11:00       -3.594      -11.669        6.247       13.985       10.677       10.107      195.593      113.993      102.157        0.030        0.021       12.210        8.859        0.526      333.278        2.488      859.852
02/04/2014  21:12:00      -21.123       -4.925        1.638       13.725       16.195       18.894      188.369      262.290      356.970        0.064        0.040       21.690       12.762        0.346      333.276        2.485      859.878
02/04/2014  21:13:00      -42.979      -30.398        2.267       37.801       56.331       19.091     1428.901     3173.227      364.454        0.387        0.248       52.642        7.031        0.018      333.232        2.413      859.902
02/04/2014  21:14:00      -59.590     -147.739       -3.587       32.661       40.746       31.249     1066.748     1660.246      976.528        1.455        0.185      159.304       26.987        0.029      333.014        2.051      859.906
02/04/2014  21:15:00      -92.549      -77.247       -9.601       26.496       31.861       18.137      702.020     1015.122      328.954        0.834        0.102      120.550       10.019        0.007      333.109        2.209      859.920
02/04/2014  21:16:00      -91.854      -56.528        0.535       48.789       32.695       23.506     2380.328     1068.934      552.510        0.782        0.200      107.854       20.553        0.036      333.152        2.280      859.949
02/04/2014  21:17:00      -64.411      -33.727        0.784       30.421       18.442       17.066      925.445      340.119      291.249        0.342        0.078       72.707       12.693        0.030      333.053        2.116      859.966
02/04/2014  21:18:00      -17.059      -35.774        2.725       28.148       16.302       15.104      792.330      265.763      228.145        0.143        0.064       39.634       10.992        0.077      333.164        2.298      859.967
02/04/2014  21:19:00        5.899       15.869       26.607       17.719       21.434       11.753      313.949      459.406      138.123        0.095        0.046       16.929        9.444        0.311      333.091        2.179      859.966
02/04/2014  21:20:00      -58.633      -21.782        3.865       37.177       34.939       13.730     1382.126     1220.717      188.507        0.336        0.140       62.549       13.603        0.047      333.151        2.277      859.978
02/04/2014  21:21:00     -104.447      -44.214       -3.918       27.955       24.135       15.006      781.489      582.489      225.172        0.723        0.079      113.420        9.733        0.007      333.079        2.160      860.004
02/04/2014  21:22:00      -24.862      -67.189        1.416       34.074       27.340       14.614     1161.021      747.479      213.583        0.363        0.106       71.641       12.981        0.033      333.219        2.390      860.015
02/04/2014  21:23:00       -7.275      -35.334       10.397       26.645       36.702       18.888      709.982     1347.026      356.767        0.191        0.121       36.075       24.572        0.464      333.240        2.426      860.018
02/04/2014  21:24:00      -17.424       -4.030       12.057       28.184       21.500       17.571      794.328      462.242      308.757        0.102        0.078       17.884       14.129        0.624      333.189        2.340      860.028
02/04/2014  21:25:00      -52.521      -27.997        5.416       47.489       31.403       22.301     2255.203      986.177      497.354        0.365        0.187       59.517       21.595        0.132      333.185        2.334      860.031
02/04/2014  21:26:00      -43.758      -23.558        2.282       27.131       21.596       17.560      736.113      466.389      308.336        0.199        0.076       49.697       15.325        0.095      333.139        2.258      860.035
02/04/2014  21:27:00      -22.919        6.518        2.887       26.589       18.132       14.828      706.999      328.758      219.858        0.092        0.063       23.828       14.811        0.386      333.085        2.170      860.028
02/04/2014  21:28:00      -42.162       10.355        1.958       13.394       13.316        9.242      179.400      177.328       85.410        0.117        0.022       43.415        5.935        0.019      333.029        2.076      860.024
02/04/2014  21:29:00       -6.363       15.205       12.095       21.919       15.517        8.792      480.449      240.790       77.307        0.061        0.040       16.483        9.618        0.341      333.007        2.041      860.019
02/04/2014  21:30:00       43.302       26.370       12.499       14.654       14.115       14.520      214.735      199.234      210.820        0.168        0.031       50.700        5.652        0.012      332.912        1.885      860.008
02/04/2014  21:31:00        9.260       19.888       18.362       16.840       18.947       12.669      283.596      358.987      160.511        0.081        0.040       21.938       12.199        0.309      332.869        1.816      859.997
02/04/2014  21:32:00      -13.745      -24.616       -4.266       19.326       26.895       13.339      373.486      723.346      177.936        0.104        0.064       28.194       15.467        0.301      333.007        2.041      860.024
02/04/2014  21:33:00        8.208      -13.649       10.848       13.939       15.513       13.294      194.298      240.663      176.719        0.049        0.031       15.927        7.361        0.214      333.067        2.141      860.040
02/04/2014  21:34:00       -9.254       28.244       33.837       18.288       20.882       12.879      334.469      436.038      165.856        0.148        0.047       29.722        9.993        0.113      332.980        1.994      860.026
02/04/2014  21:35:00      -21.420        9.769       29.351       21.302       21.155       15.414      453.763      447.526      237.591        0.128        0.057       23.543       17.587        0.558      332.940        1.930      860.011
02/04/2014  21:36:00        5.344       -2.038       29.169       16.389       35.035       19.812      268.598     1227.440      392.518        0.139        0.094        5.720       23.318       16.621      332.911        1.882      860.022
02/04/2014  21:37:00       -2.786      -36.811      -15.109       14.405       23.720       19.450      207.512      562.653      378.319        0.137        0.057       36.916       10.862        0.087      333.001        2.030      860.034
02/04/2014  21:38:00        2.058      -34.432       -7.225       34.942       19.709       17.938     1220.929      388.445      321.787        0.159        0.097       34.494       18.101        0.275      333.016        2.056      860.035
02/04/2014  21:39:00        5.283       13.488       32.077       24.834       25.530       15.053      616.750      651.791      226.588        0.137        0.075       14.486       19.003        1.721      332.982        1.997      860.039
02/04/2014  21:40:00        2.733        9.066        9.889       12.818       13.771       12.168      164.296      189.637      148.057        0.034        0.025        9.469       10.732        1.285      332.910        1.881      860.035
02/04/2014  21:41:00       54.084       33.110       40.770       36.353       30.942       31.237     1321.523      957.383      975.779        0.447        0.163       63.414       23.905        0.142      332.899        1.863      860.034
02/04/2014  21:42:00        8.148       70.927       84.842       40.969       40.773       22.962     1678.424     1662.412      527.245        0.808        0.193       71.394       21.749        0.093      332.910        1.879      860.023
02/04/2014  21:43:00       13.517      -10.792       50.406       24.125       39.659       24.890      581.998     1572.832      619.502        0.281        0.139       17.297       21.111        1.490      332.933        1.919      860.013
02/04/2014  21:44:00        4.452      -37.002       20.444       28.060       28.989       25.331      787.354      840.335      641.677        0.204        0.113       37.269       16.356        0.193      332.973        1.984      860.016
02/04/2014  21:45:00      -10.200      -10.865       -9.130       32.290       26.047       16.222     1042.625      678.427      263.159        0.114        0.099       14.903       12.417        0.694      332.852        1.785      860.038
02/04/2014  21:46:00      -85.298      -34.776       -2.717       22.810       19.946       10.944      520.319      397.835      119.763        0.477        0.052       92.114       14.124        0.024      332.679        1.499      860.050
02/04/2014  21:47:00      -73.960      -30.007       -3.384       16.575       18.819       11.196      274.738      354.139      125.359        0.357        0.038       79.816       10.110        0.016      332.682        1.503      860.069
02/04/2014  21:48:00      -54.145      -26.838       -5.209       18.672       11.651        5.890      348.639      135.747       34.692        0.210        0.026       60.432        5.832        0.009      332.714        1.557      860.083
02/04/2014  21:49:00      -18.436        2.562        1.180       13.075       13.245        8.900      170.949      175.429       79.212        0.039        0.021       18.614        7.248        0.152      332.819        1.731      860.092
02/04/2014  21:50:00       -2.429       12.432        7.471        8.745        8.698        9.891       76.478       75.647       97.825        0.023        0.012       12.667        2.836        0.050      332.807        1.711      860.092
02/04/2014  21:51:00        9.690       12.998        2.113       12.714       12.972       11.010      161.658      168.265      121.227        0.036        0.023       16.213        4.365        0.072      332.797        1.694      860.103
02/04/2014  21:52:00       -8.849      -18.839        2.979       28.690       17.168       13.115      823.105      294.724      172.006        0.087        0.064       20.814        9.410        0.204      332.907        1.876      860.116
02/04/2014  21:53:00      -23.677      -12.673       -6.863       11.731       21.355        7.591      137.621      456.041       57.626        0.071        0.033       26.855        7.063        0.069      332.729        1.580      860.128
02/04/2014  21:54:00      -16.495       10.294        2.679        8.385       12.221       12.695       70.316      149.351      161.165        0.038        0.019       19.443        7.337        0.142      332.746        1.608      860.133
02/04/2014  21:55:00      -23.764        2.983       -9.016       14.445       16.463       13.091      208.646      271.047      171.364        0.065        0.033       23.950        7.654        0.102      332.790        1.682      860.148
02/04/2014  21:56:00      -16.625        0.539       -3.370       22.825       16.876       12.209      520.974      284.795      149.066        0.062        0.048       16.634        9.007        0.293      332.804        1.706      860.155
02/04/2014  21:57:00      -26.653      -19.163       21.268       27.249       46.114       24.674      742.527     2126.476      608.813        0.250        0.174       32.826       23.901        0.530      332.739        1.599      860.157
02/04/2014  21:58:00      -13.881      -17.619       -0.515       32.647       23.596       17.830     1065.811      556.774      317.903        0.122        0.097       22.430       11.241        0.251      332.835        1.759      860.171
02/04/2014  21:59:00       -7.979       23.044       61.755       29.581       40.333       31.123      875.037     1626.772      968.625        0.394        0.174       24.387       28.187        1.336      332.834        1.754      860.171
02/04/2014  22:00:00       -7.329       38.265       73.678       25.385       43.396       25.413      644.398     1883.249      645.811        0.506        0.159       38.960       24.138        0.384      332.765        1.640      860.145
02/04/2014  22:01:00       40.013       19.975       69.439       61.862       78.305       56.359     3826.846     6131.729     3176.307        0.998        0.657       44.721       47.011        1.105      332.656        1.459      860.137
02/04/2014  22:02:00      143.191     -136.764      -10.884       48.742       60.657       31.268     2375.781     3679.309      977.660        2.318        0.352      198.010       31.095        0.025      332.613        1.386      860.143
02/04/2014  22:03:00       52.713     -116.976      -16.857       71.034       53.714       27.491     5045.810     2885.183      755.760        1.272        0.434      128.305       25.418        0.039      332.809        1.714      860.174
02/04/2014  22:04:00      -74.957      -45.240       -0.253       36.706       43.376       28.647     1347.356     1881.491      820.676        0.586        0.202       87.551       16.091        0.034      332.847        1.779      860.208
02/04/2014  22:05:00      -44.370      -25.420        9.865       40.612       23.647       21.465     1649.343      559.176      460.726        0.269        0.133       51.136       16.061        0.099      332.741        1.600      860.221
02/04/2014  22:06:00        1.815      -28.796       -0.080       59.210       30.654       19.998     3505.791      939.683      399.922        0.284        0.242       28.854       19.044        0.436      332.712        1.552      860.224
02/04/2014  22:07:00       93.546       20.306       32.342       46.669       78.321       52.971     2177.984     6134.183     2805.963        1.066        0.556       95.725       54.473        0.324      332.730        1.582      860.205
02/04/2014  22:08:00      139.235       87.512       73.035       66.487       56.967       43.758     4420.503     3245.269     1914.740        2.098        0.479      164.453       39.123        0.057      332.631        1.417      860.177
02/04/2014  22:09:00       11.836       84.308      100.356       46.339       47.316       30.359     2147.301     2238.849      921.698        1.131        0.265       85.135       25.978        0.093      332.667        1.479      860.180
02/04/2014  22:10:00       29.196      -69.220       11.297       52.399       94.578       38.281     2745.695     8944.976     1465.411        0.946        0.658       75.126       43.911        0.342      332.689        1.516      860.222
02/04/2014  22:11:00        5.096      -56.429       -1.795       33.641       49.494       26.164     1131.694     2449.627      684.572        0.374        0.213       56.659       21.707        0.147      332.811        1.717      860.272
02/04/2014  22:12:00      -14.437        8.416       24.505       38.540       31.218       29.829     1485.365      974.582      889.760        0.211        0.167       16.711       25.772        2.379      332.663        1.471      860.291
02/04/2014  22:13:00       32.014       58.303       78.817       37.554       32.168       33.120     1410.309     1034.798     1096.962        0.709        0.177       66.514       27.428        0.170      332.596        1.360      860.239
02/04/2014  22:14:00       10.750       42.075       55.071       26.647       30.409       20.086      710.082      924.680      403.435        0.348        0.102       43.426       21.057        0.235      332.603        1.373      860.245
02/04/2014  22:15:00       51.484       25.649       21.471       32.072       25.409       29.577     1028.611      645.599      874.811        0.316        0.127       57.520       12.919        0.050      332.631        1.417      860.269
02/04/2014  22:16:00       32.597      -36.544       22.282       33.447       50.308       29.327     1118.685     2530.872      860.101        0.370        0.225       48.970       30.946        0.399      332.609        1.382      860.246
02/04/2014  22:17:00       45.815      -82.422       -1.225       33.876       33.882       24.642     1147.599     1147.981      607.207        0.590        0.145       94.300       20.348        0.047      332.660        1.469      860.253
02/04/2014  22:18:00       93.787     -114.847      -13.347       24.653       23.038       14.675      607.780      530.770      215.367        1.176        0.068      148.277       11.992        0.007      332.554        1.289      860.261
02/04/2014  22:19:00       57.960      -37.562        2.056       45.022       49.274       42.183     2027.001     2427.961     1779.401        0.550        0.312       69.067       36.043        0.272      332.564        1.306      860.248
02/04/2014  22:20:00       31.079       23.247       65.062       50.035       42.410       48.380     2503.460     1798.594     2340.590        0.619        0.332       38.812       25.206        0.422      332.493        1.192      860.196
02/04/2014  22:21:00       25.802       11.895       61.018       39.303       59.966       50.511     1544.731     3595.898     2551.311        0.611        0.385       28.412       44.445        2.447      332.531        1.253      860.199
02/04/2014  22:22:00       89.509     -104.210       -0.664       27.546       45.854       23.717      758.796     2102.605      562.499        1.115        0.171      137.374       26.222        0.036      332.491        1.189      860.236
02/04/2014  22:23:00       48.194        5.638       40.123       53.649       50.749       36.159     2878.268     2575.425     1307.504        0.536        0.338       48.523       38.686        0.636      332.507        1.213      860.224
02/04/2014  22:24:00       17.473       34.127       79.064       34.626       32.933       18.186     1198.972     1084.560      330.747        0.517        0.131       38.341       13.305        0.120      332.491        1.188      860.184
02/04/2014  22:25:00       19.206       53.481       71.127       43.179       38.761       34.853     1864.390     1502.452     1214.738        0.643        0.229       56.825       37.680        0.440      332.496        1.194      860.182
02/04/2014  22:26:00       47.695       18.916       16.592       24.052       24.182       20.320      578.480      584.781      412.886        0.224        0.079       51.309       12.599        0.060      332.450        1.122      860.211
02/04/2014  22:27:00       34.824       16.109       27.999       23.494       21.053       16.733      551.978      443.229      280.006        0.177        0.064       38.369        6.822        0.032      332.430        1.087      860.221
02/04/2014  22:28:00       41.399       33.085        0.255       23.261       20.058       19.086      541.063      402.339      364.262        0.206        0.065       52.995       12.284        0.054      332.440        1.103      860.197
02/04/2014  22:29:00       46.927       57.388       11.020       25.514       36.093       22.359      650.941     1302.696      499.917        0.403        0.123       74.132       14.835        0.040      332.442        1.109      860.195
02/04/2014  22:30:00       59.975       55.479        1.833       24.086       21.332       14.289      580.155      455.066      204.172        0.396        0.062       81.700        7.854        0.009      332.439        1.102      860.192
02/04/2014  22:31:00       45.810       51.958       -6.749       14.797       13.175       14.641      218.956      173.579      214.371        0.273        0.030       69.269        6.406        0.009      332.417        1.068      860.189
02/04/2014  22:32:00       84.429       45.333        9.450       22.871       18.742       22.552      523.091      351.254      508.604        0.533        0.069       95.830        7.671        0.006      332.480        1.169      860.186
02/04/2014  22:33:00       68.054       53.797       14.542       35.611       25.526       25.373     1268.118      651.557      643.809        0.515        0.128       86.749       15.802        0.033      332.527        1.247      860.201
02/04/2014  22:34:00       15.875        2.298      -13.951       17.030       32.364       21.653      290.024     1047.440      468.847        0.113        0.090       16.040       14.234        0.788      332.531        1.253      860.240
02/04/2014  22:35:00        9.343      -31.062        9.485       17.259       47.381       28.086      297.886     2244.942      788.797        0.224        0.167       32.437       34.626        1.140      332.631        1.419      860.252
02/04/2014  22:36:00       -6.379       56.809       82.637       27.158       31.339       18.533      737.535      982.162      343.457        0.608        0.103       57.166       13.319        0.054      332.501        1.205      860.228
02/04/2014  22:37:00       38.484      -72.822       15.134       34.516       54.925       41.463     1191.380     3016.725     1719.167        0.647        0.296       82.366       38.012        0.213      332.583        1.339      860.224
02/04/2014  22:38:00       26.779      -54.367        3.552       29.130       38.366       20.986      848.556     1471.956      440.403        0.322        0.138       60.604       18.363        0.092      332.599        1.368      860.250
02/04/2014  22:39:00       66.615       51.194       40.033       41.775       21.114       20.917     1745.166      445.799      437.502        0.564        0.131       84.014       18.352        0.048      332.475        1.162      860.249
02/04/2014  22:40:00      113.683       68.903       26.705       40.525       33.614       36.630     1642.310     1129.918     1341.791        1.125        0.206      132.934       28.077        0.045      332.452        1.125      860.223
02/04/2014  22:41:00       65.191       57.967       58.145       30.097       48.364       31.987      905.827     2339.099     1023.170        0.763        0.213       87.236       29.199        0.112      332.391        1.024      860.246
02/04/2014  22:42:00       45.715       13.034       28.075       34.442       18.473       21.959     1186.229      341.235      482.210        0.253        0.100       47.537       16.305        0.118      332.409        1.053      860.299
02/04/2014  22:43:00       54.585       15.049       35.361       29.076       29.213       24.592      845.425      853.383      604.760        0.338        0.115       56.621       13.825        0.060      332.392        1.025      860.326
02/04/2014  22:44:00       45.015       43.418       40.069       23.768       32.172       22.365      564.909     1035.037      500.192        0.381        0.105       62.541       22.460        0.129      332.359        0.969      860.341
02/04/2014  22:45:00       53.805       27.187       23.141       28.484       21.812       24.131      811.351      475.760      582.298        0.302        0.093       60.284       11.143        0.034      332.386        1.014      860.342
02/04/2014  22:46:00       38.094       45.215       24.952       12.806       12.639       14.628      163.994      159.754      213.975        0.233        0.027       59.123        8.307        0.020      332.364        0.977      860.351
02/04/2014  22:47:00       30.199       19.187        1.189       20.782       21.636       19.987      431.898      468.133      399.484        0.129        0.065       35.778       10.333        0.083      332.383        1.010      860.364
02/04/2014  22:48:00       49.278       13.924        5.110       19.980       16.782       13.396      399.195      281.626      179.443        0.175        0.043       51.208        5.429        0.011      332.444        1.111      860.363
02/04/2014  22:49:00       54.911       42.747       31.577       20.414       13.369       15.664      416.730      178.735      245.367        0.334        0.042       69.588        9.991        0.021      332.319        0.905      860.364
02/04/2014  22:50:00       65.217       33.647       15.784       17.190       12.275       14.808      295.490      150.673      219.269        0.315        0.033       73.385        7.926        0.012      332.342        0.940      860.359
02/04/2014  22:51:00       17.153       37.007        1.178       12.258        6.736        8.343      150.270       45.369       69.610        0.097        0.013       40.790        4.167        0.010      332.326        0.917      860.375
02/04/2014  22:52:00        6.046       36.531       -5.361       12.400       15.416        9.001      153.752      237.663       81.022        0.094        0.024       37.028        8.204        0.049      332.333        0.925      860.382
02/04/2014  22:53:00       26.767       22.122        6.501       18.216       15.264       16.303      331.818      232.992      265.797        0.104        0.042       34.726       10.557        0.092      332.327        0.916      860.395
02/04/2014  22:54:00       55.399       24.489        1.519       24.363       23.627       15.150      593.557      558.219      229.517        0.253        0.069       60.571        9.603        0.025      332.387        1.014      860.394
02/04/2014  22:55:00       92.245       51.420        5.345       13.325       13.603       12.472      177.563      185.052      155.558        0.585        0.026      105.609        7.117        0.005      332.391        1.023      860.372
02/04/2014  22:56:00       55.139       49.259        3.748       26.256       13.002       11.271      689.396      169.041      127.025        0.323        0.049       73.938        6.015        0.007      332.368        0.982      860.393
02/04/2014  22:57:00       39.854       31.035       16.808       19.668       11.705       11.589      386.820      137.017      134.296        0.175        0.033       50.512        6.540        0.017      332.351        0.954      860.412
02/04/2014  22:58:00       75.694       54.364       35.996       25.957       19.514       22.011      673.764      380.794      484.465        0.576        0.077       93.193       16.358        0.031      332.384        1.011      860.401
02/04/2014  22:59:00      113.424       58.543       13.585       19.970       17.965       19.328      398.781      322.726      373.567        0.879        0.055      127.641       11.776        0.009      332.390        1.022      860.380
02/04/2014  23:00:00      105.313       56.431       13.151       23.093       19.848       17.644      533.265      393.925      311.298        0.784        0.062      119.479       10.752        0.008      332.397        1.032      860.367
02/04/2014  23:01:00      103.121       42.555        2.768       29.148       25.628       20.116      849.611      656.813      404.648        0.718        0.096      111.557       15.270        0.019      332.383        1.008      860.354
02/04/2014  23:02:00      105.876       50.963       11.403       25.236       23.402       21.456      636.868      547.673      460.365        0.779        0.082      117.503       13.674        0.014      332.378        1.003      860.354
02/04/2014  23:03:00      142.371       63.212       28.419       31.359       26.764       33.661      983.368      716.316     1133.057        1.395        0.142      155.773       23.482        0.023      332.357        0.966      860.343
02/04/2014  23:04:00      137.301       63.240       17.308       43.315       44.478       38.944     1876.156     1978.310     1516.622        1.426        0.269      151.166       24.376        0.026      332.273        0.828      860.326
02/04/2014  23:05:00       75.974       54.701        3.759       45.987       31.419       22.356     2114.807      987.176      499.796        0.619        0.180       93.617       14.865        0.025      332.209        0.724      860.336
02/04/2014  23:06:00       23.372      131.533      -23.045       25.604       38.263       15.072      655.573     1464.064      227.163        1.036        0.117      133.594       14.771        0.012      332.115        0.567      860.336
02/04/2014  23:07:00       21.236       37.643       -2.149       22.979       32.703       17.169      528.053     1069.498      294.764        0.188        0.095       43.220       17.720        0.168      332.161        0.642      860.330
02/04/2014  23:08:00        7.602       -1.507       -2.126       17.694       30.069       12.767      313.085      904.157      162.989        0.072        0.069        7.750        9.981        1.658      332.190        0.691      860.322
02/04/2014  23:09:00       26.927      -33.970       -7.030       26.477       21.770       19.785      701.011      473.931      391.429        0.175        0.078       43.347       19.228        0.197      332.227        0.752      860.325
02/04/2014  23:10:00       32.480       -2.920       11.405       23.739       33.072       24.925      563.529     1093.750      621.278        0.174        0.114       32.611       24.907        0.583      332.246        0.783      860.328
02/04/2014  23:11:00       72.764       38.862       40.034       22.334       20.781       25.281      498.786      431.834      639.128        0.499        0.078       82.492       15.311        0.034      332.209        0.724      860.328
02/04/2014  23:12:00      118.200       68.153       15.653       24.470       24.844       24.898      598.772      617.243      619.935        1.035        0.092      136.441       10.450        0.006      332.228        0.756      860.320
02/04/2014  23:13:00      105.623       74.873       38.253       31.133       21.837       30.646      969.284      476.851      939.200        1.030        0.119      129.469        9.914        0.006      332.198        0.705      860.335
02/04/2014  23:14:00       78.592       56.908       35.477       39.723       25.746       27.530     1577.950      662.850      757.874        0.684        0.150       97.032       23.197        0.057      332.221        0.743      860.360
02/04/2014  23:15:00       75.620       47.008       21.786       28.324       20.713       22.080      802.226      429.017      487.517        0.506        0.086       89.040       17.411        0.038      332.159        0.641      860.390
02/04/2014  23:16:00       62.147       31.153       13.967       17.405       16.501       16.275      302.945      272.281      264.890        0.293        0.042       69.518       10.115        0.021      332.169        0.657      860.404
02/04/2014  23:17:00       77.524       49.938        4.679       21.944       13.823       14.695      481.532      191.067      215.954        0.471        0.044       92.216       11.211        0.015      332.137        0.605      860.398
02/04/2014  23:18:00       66.434       32.422        3.205       18.162       10.553       13.032      329.854      111.375      169.832        0.304        0.031       73.923        8.865        0.014      332.150        0.624      860.388
02/04/2014  23:19:00       51.017       36.883       -0.502       19.435       12.870       15.280      377.727      165.642      233.484        0.237        0.039       62.953        9.045        0.021      332.137        0.604      860.388
02/04/2014  23:20:00       82.511       56.911       23.851       19.344       13.387       20.351      374.176      179.219      414.170        0.579        0.048      100.234       10.638        0.011      332.130        0.591      860.393
02/04/2014  23:21:00      105.774       58.396       27.550       27.305       23.750       25.489      745.576      564.049      649.665        0.866        0.098      120.823       10.203        0.007      332.276        0.836      860.401
02/04/2014  23:22:00       84.368       43.274       15.997       30.857       20.181       22.656      952.146      407.279      513.295        0.556        0.094       94.819       18.512        0.038      332.167        0.656      860.435
02/04/2014  23:23:00       68.296       30.770       10.453       21.406       16.762       21.448      458.230      280.957      460.035        0.346        0.060       74.908       13.725        0.034      332.143        0.614      860.448
02/04/2014  23:24:00       49.116       33.500       -0.086        9.840        8.262       11.837       96.823       68.267      140.104        0.192        0.015       59.453        6.831        0.013      332.124        0.582      860.464
02/04/2014  23:25:00       29.725       19.480       -8.703        6.615        7.320        7.645       43.755       53.586       58.445        0.075        0.008       35.539        4.181        0.014      332.124        0.583      860.468
02/04/2014  23:26:00       58.584       34.070       12.736       21.265       10.434       14.471      452.185      108.870      209.416        0.276        0.039       67.771       11.442        0.029      332.122        0.579      860.468
02/04/2014  23:27:00       83.294       38.063        8.584       20.353       19.903       22.170      414.247      396.118      491.507        0.488        0.065       91.579       10.789        0.014      332.105        0.552      860.464
02/04/2014  23:28:00       63.992       56.783        8.661       23.644       19.034       24.106      559.020      362.305      581.083        0.445        0.075       85.552        6.370        0.006      332.054        0.467      860.475
02/04/2014  23:29:00       34.619       46.121       -1.560       29.468       23.446       16.220      868.370      549.709      263.087        0.250        0.084       57.669       13.031        0.051      332.037        0.439      860.505
02/04/2014  23:30:00       11.108       70.834       -5.133       15.187       24.250       17.016      230.637      588.075      289.537        0.314        0.055       71.699       14.692        0.042      332.030        0.429      860.529
02/04/2014  23:31:00       13.545       74.400       -5.143       12.781       19.917       10.772      163.362      396.706      116.039        0.321        0.034       75.623        6.731        0.008      332.015        0.405      860.530
02/04/2014  23:32:00       18.758       72.225      -12.936       13.216       15.172       10.150      174.675      230.200      103.023        0.312        0.025       74.621        9.245        0.015      332.005        0.387      860.526
02/04/2014  23:33:00       18.852       46.616       -7.454       11.936       27.336        9.638      142.465      747.277       92.895        0.178        0.049       50.284        8.986        0.032      331.996        0.373      860.525
02/04/2014  23:34:00       28.059       22.020        2.239       15.374       16.844       15.289      236.358      283.711      233.764        0.102        0.038       35.668       10.037        0.079      332.022        0.416      860.529
02/04/2014  23:35:00       70.662       51.671       17.031       23.705       19.698       16.616      561.935      388.008      276.096        0.459        0.061       87.539       13.057        0.022      332.002        0.382      860.525
02/04/2014  23:36:00      112.974       68.070       10.515       27.822       23.430       15.476      774.043      548.975      239.506        0.953        0.078      131.897       11.777        0.008      332.062        0.480      860.516
02/04/2014  23:37:00       76.470       53.297        5.942       42.417       25.484       24.012     1799.174      649.414      576.574        0.587        0.151       93.211       24.746        0.070      332.073        0.500      860.520
02/04/2014  23:38:00       29.473       13.731       10.320       23.386       13.807       15.840      546.906      190.639      250.903        0.108        0.049       32.514        7.480        0.053      332.105        0.551      860.545
02/04/2014  23:39:00       -5.929       22.297       -8.665       15.841       14.002        6.912      250.949      196.049       47.770        0.055        0.025       23.071        6.683        0.084      332.019        0.413      860.557
02/04/2014  23:40:00       20.682       79.322      -10.168       16.636       22.246        7.513      276.751      494.868       56.444        0.383        0.041       81.973        9.643        0.014      332.054        0.466      860.558
02/04/2014  23:41:00       26.911      121.085      -20.439       16.202       33.911       13.997      262.494     1149.933      195.919        0.871        0.080      124.039       17.192        0.019      332.029        0.426      860.552
02/04/2014  23:42:00       22.460       43.130        1.527       26.390       39.379       24.663      696.429     1550.702      608.253        0.261        0.143       48.627       21.308        0.192      331.957        0.307      860.541
02/04/2014  23:43:00       47.653       79.946      -10.238       30.502       31.147       16.264      930.375      970.128      264.520        0.547        0.108       93.071       16.354        0.031      331.995        0.370      860.540
02/04/2014  23:44:00       51.351       44.041        2.199       33.585       20.299       20.422     1127.933      412.036      417.078        0.327        0.098       67.650       18.565        0.075      332.006        0.388      860.537
02/04/2014  23:45:00       81.952       39.249       -5.589       22.527       21.695       18.140      507.465      470.658      329.046        0.480        0.065       90.866       14.397        0.025      332.024        0.419      860.527
02/04/2014  23:46:00       59.171       34.649       10.600       28.476       23.722       17.804      810.882      562.711      316.994        0.325        0.085       68.569       16.981        0.061      332.035        0.436      860.532
02/04/2014  23:47:00       15.196       -5.951        5.493       15.604       28.068       13.825      243.494      787.790      191.140        0.076        0.061       16.320       10.555        0.418      332.089        0.525      860.527
02/04/2014  23:48:00       32.294        8.343       25.328       15.149       23.868       16.025      229.496      569.699      256.812        0.140        0.053       33.354       11.087        0.110      332.001        0.380      860.532
02/04/2014  23:49:00       35.718       26.910       19.364        9.542        8.012       11.816       91.057       64.199      139.610        0.133        0.015       44.721        6.952        0.024      332.044        0.452      860.540
02/04/2014  23:50:00       31.948       39.162       27.940       20.122       10.876       15.271      404.884      118.290      233.206        0.205        0.038       50.541       11.173        0.049      332.061        0.481      860.529
02/04/2014  23:51:00       45.180       42.220       12.334       13.913       11.947       13.559      193.584      142.719      183.846        0.225        0.026       61.836        8.389        0.018      332.073        0.498      860.510
02/04/2014  23:52:00       61.946       36.439       -2.937       12.358       10.321        9.835      152.730      106.519       96.722        0.276        0.018       71.869        6.648        0.009      332.068        0.493      860.505
02/04/2014  23:53:00       62.288       25.283        4.606       20.215       15.339       11.114      408.650      235.293      123.522        0.265        0.038       67.224        9.002        0.018      332.068        0.491      860.506
02/04/2014  23:54:00       41.454       27.352       -0.963       10.118        8.359        9.454      102.365       69.876       89.375        0.136        0.013       49.664        3.851        0.006      332.084        0.515      860.514
02/04/2014  23:55:00       63.445       57.252       14.986       17.955       12.442       21.150      322.388      154.802      447.323        0.423        0.046       85.458       10.047        0.014      332.087        0.523      860.510
02/04/2014  23:56:00       83.168       56.296       26.871       23.107       19.059       24.294      533.913      363.261      590.215        0.615        0.074      100.430       19.962        0.040      332.132        0.597      860.487
02/04/2014  23:57:00       89.124       35.152        3.663       20.918       17.041       17.545      437.578      290.391      307.830        0.511        0.052       95.806       10.312        0.012      332.071        0.496      860.468
02/04/2014  23:58:00       62.019       36.333        6.275       24.047       19.849       15.663      578.264      394.002      245.327        0.321        0.061       71.878       12.639        0.031      332.060        0.478      860.466
02/04/2014  23:59:00       31.195       19.827       13.789       19.256       12.817       12.928      370.797      164.280      167.128        0.113        0.035       36.962        8.635        0.055      332.070        0.494      860.469
